[[{"header":{"parameterUnit":"m.s-1","parameterCategory":1,"la1":30.6,"la2":29.2853,"lo1":-89.7004,"lo2":-87.6739,"dy":0.0162,"dx":0.0183,"nx":112,"ny":82,"refTime":"2023-07-21T00:00:00:Z","depth":0,"parameterNumber":2,"parameterNumberName":"U-component_of_WINDS"},"data":[0.0,0.0,0.0,0.0,0.0,0.0,0.0,0.0,0.0,0.0,0.0,0.0,0.0,0.0,0.0,0.0,0.0,0.0,0.0,0.0,0.0,0.0,0.0,0.0,0.0,0.0,0.0,0.0,0.0,0.0,0.0,0.0,0.0,0.0,0.0,0.0,0.0,0.0,0.0,0.0,0.0,0.0,0.0,0.0,0.0,0.0,0.0,0.0,0.0,0.0,0.0,0.0,0.0,0.0,0.0,0.0,0.0,0.0,0.0,0.0,0.0,0.0,0.0,0.0,0.0,0.0,0.0,0.0,0.0,0.0,0.0,0.0,0.0,0.0,0.0,0.0,0.0,0.0,0.0,0.0,0.0,0.0,0.0,0.0,0.0,0.0,0.0,0.0,0.0,0.0,2.3774,2.354,2.3348,2.3193,2.3077,2.3193,2.3217,2.3168,0.0,0.0,0.0,0.0,0.0,0.0,0.0,0.0,0.0,0.0,0.0,0.0,0.0,0.0,0.0,0.0,0.0,0.0,0.0,0.0,0.0,0.0,0.0,0.0,0.0,0.0,0.0,0.0,0.0,0.0,0.0,0.0,0.0,0.0,0.0,0.0,0.0,0.0,0.0,0.0,0.0,0.0,0.0,0.0,0.0,0.0,0.0,0.0,0.0,0.0,0.0,0.0,0.0,0.0,0.0,0.0,0.0,0.0,0.0,0.0,0.0,0.0,0.0,0.0,0.0,0.0,0.0,0.0,0.0,0.0,0.0,0.0,0.0,0.0,0.0,0.0,0.0,0.0,0.0,0.0,0.0,0.0,0.0,0.0,0.0,0.0,0.0,0.0,0.0,0.0,0.0,0.0,0.0,0.0,0.0,0.0,0.0,0.0,0.0,0.0,0.0,0.0,0.0,0.0,2.3518,2.3206,2.3052,2.2995,2.302,2.3028,2.302,2.2944,0.0,0.0,0.0,0.0,0.0,0.0,0.0,0.0,0.0,0.0,0.0,0.0,0.0,0.0,0.0,0.0,0.0,0.0,0.0,0.0,0.0,0.0,0.0,0.0,0.0,0.0,0.0,0.0,0.0,0.0,0.0,0.0,0.0,0.0,0.0,0.0,0.0,0.0,0.0,0.0,0.0,0.0,0.0,0.0,0.0,0.0,0.0,0.0,0.0,0.0,0.0,0.0,0.0,0.0,0.0,0.0,0.0,0.0,0.0,0.0,0.0,0.0,0.0,0.0,0.0,0.0,0.0,0.0,0.0,0.0,0.0,0.0,0.0,0.0,0.0,0.0,0.0,0.0,0.0,0.0,0.0,0.0,0.0,0.0,0.0,0.0,0.0,0.0,0.0,0.0,0.0,0.0,0.0,0.0,0.0,0.0,0.0,0.0,0.0,0.0,0.0,0.0,0.0,2.3376,2.3116,2.2919,2.2868,2.285,2.2944,2.2919,2.285,2.279,2.2677,0.0,0.0,0.0,0.0,0.0,0.0,0.0,0.0,0.0,0.0,0.0,0.0,0.0,0.0,0.0,0.0,0.0,0.0,0.0,0.0,0.0,0.0,0.0,0.0,0.0,0.0,0.0,0.0,0.0,0.0,0.0,0.0,0.0,0.0,0.0,0.0,0.0,0.0,0.0,0.0,0.0,0.0,0.0,0.0,0.0,0.0,0.0,0.0,0.0,0.0,0.0,0.0,0.0,0.0,0.0,0.0,0.0,0.0,0.0,0.0,0.0,0.0,0.0,0.0,0.0,0.0,0.0,0.0,0.0,0.0,0.0,0.0,0.0,0.0,0.0,0.0,0.0,0.0,0.0,0.0,0.0,0.0,0.0,0.0,0.0,0.0,0.0,0.0,0.0,0.0,0.0,0.0,0.0,0.0,0.0,0.0,0.0,0.0,0.0,0.0,0.0,0.0,2.2919,2.279,2.2659,2.2685,2.2738,2.2816,2.2764,2.2685,2.2588,2.2309,0.0,0.0,0.0,0.0,0.0,0.0,0.0,0.0,0.0,0.0,0.0,0.0,0.0,0.0,0.0,0.0,0.0,0.0,0.0,0.0,0.0,0.0,0.0,0.0,0.0,0.0,0.0,0.0,0.0,0.0,0.0,0.0,0.0,0.0,0.0,0.0,0.0,0.0,0.0,0.0,0.0,0.0,0.0,0.0,0.0,0.0,0.0,0.0,0.0,0.0,0.0,0.0,0.0,0.0,0.0,0.0,0.0,0.0,0.0,0.0,0.0,0.0,0.0,0.0,0.0,0.0,0.0,0.0,0.0,0.0,0.0,0.0,0.0,0.0,0.0,0.0,0.0,0.0,0.0,0.0,0.0,0.0,0.0,0.0,0.0,0.0,0.0,0.0,0.0,0.0,0.0,0.0,0.0,0.0,0.0,0.0,0.0,0.0,0.0,0.0,0.0,0.0,2.2712,2.2579,2.2515,2.246,2.2487,2.2605,2.2515,2.2371,2.2237,2.2056,0.0,0.0,0.0,0.0,0.0,0.0,0.0,0.0,0.0,0.0,0.0,0.0,0.0,0.0,0.0,0.0,0.0,0.0,0.0,0.0,0.0,0.0,0.0,0.0,0.0,0.0,0.0,0.0,0.0,0.0,0.0,0.0,0.0,0.0,0.0,0.0,0.0,0.0,0.0,0.0,0.0,0.0,0.0,0.0,0.0,0.0,0.0,0.0,0.0,0.0,0.0,0.0,0.0,0.0,0.0,0.0,0.0,0.0,0.0,0.0,0.0,0.0,0.0,0.0,0.0,0.0,0.0,0.0,0.0,0.0,0.0,0.0,0.0,0.0,0.0,0.0,0.0,0.0,0.0,0.0,0.0,0.0,0.0,0.0,0.0,0.0,0.0,0.0,0.0,0.0,0.0,0.0,0.0,0.0,0.0,0.0,0.0,0.0,0.0,0.0,0.0,0.0,2.2215,2.2147,0.0,2.2118,2.2215,2.2337,2.2243,2.213,2.2068,0.0,0.0,0.0,0.0,0.0,0.0,0.0,0.0,0.0,0.0,0.0,0.0,0.0,0.0,0.0,0.0,0.0,0.0,0.0,0.0,0.0,0.0,0.0,0.0,0.0,0.0,0.0,0.0,0.0,0.0,0.0,0.0,0.0,0.0,0.0,0.0,0.0,0.0,0.0,0.0,0.0,0.0,0.0,0.0,0.0,0.0,0.0,0.0,0.0,0.0,0.0,0.0,0.0,0.0,0.0,0.0,0.0,0.0,0.0,0.0,0.0,0.0,0.0,0.0,0.0,0.0,0.0,0.0,0.0,0.0,0.0,0.0,0.0,0.0,0.0,0.0,0.0,0.0,0.0,0.0,0.0,0.0,0.0,0.0,0.0,0.0,0.0,0.0,0.0,0.0,0.0,0.0,0.0,0.0,0.0,0.0,0.0,0.0,0.0,0.0,0.0,0.0,2.1866,2.1735,2.1691,0.0,2.1735,2.1853,2.1965,2.1911,2.1853,2.1823,0.0,0.0,0.0,0.0,0.0,0.0,0.0,0.0,0.0,0.0,0.0,0.0,0.0,0.0,0.0,0.0,0.0,0.0,0.0,0.0,0.0,0.0,0.0,0.0,0.0,0.0,0.0,0.0,0.0,0.0,0.0,0.0,0.0,0.0,0.0,0.0,0.0,0.0,0.0,0.0,0.0,0.0,0.0,0.0,0.0,0.0,0.0,0.0,0.0,0.0,0.0,0.0,0.0,0.0,0.0,0.0,0.0,0.0,0.0,0.0,0.0,0.0,0.0,0.0,0.0,0.0,0.0,0.0,0.0,0.0,0.0,0.0,0.0,0.0,0.0,0.0,0.0,0.0,0.0,0.0,0.0,0.0,0.0,0.0,0.0,0.0,0.0,0.0,0.0,0.0,0.0,0.0,0.0,0.0,0.0,0.0,0.0,0.0,0.0,0.0,0.0,0.0,2.1448,2.134,2.1277,2.1277,2.1371,2.1401,2.1493,2.1556,2.1542,0.0,0.0,0.0,0.0,0.0,0.0,0.0,0.0,0.0,0.0,0.0,0.0,0.0,0.0,0.0,0.0,0.0,0.0,0.0,0.0,0.0,0.0,0.0,0.0,0.0,0.0,0.0,0.0,0.0,0.0,0.0,0.0,0.0,0.0,0.0,0.0,0.0,0.0,0.0,0.0,0.0,0.0,0.0,0.0,0.0,0.0,0.0,0.0,0.0,0.0,0.0,0.0,0.0,0.0,0.0,0.0,0.0,0.0,0.0,0.0,0.0,0.0,0.0,0.0,0.0,0.0,0.0,0.0,0.0,0.0,0.0,0.0,0.0,0.0,0.0,0.0,0.0,0.0,0.0,0.0,0.0,0.0,0.0,0.0,0.0,0.0,0.0,0.0,0.0,0.0,0.0,0.0,0.0,0.0,0.0,0.0,0.0,0.0,0.0,0.0,0.0,0.0,0.0,2.1007,2.0925,2.0876,2.0876,2.1055,2.1183,2.1214,2.1309,2.1388,2.134,0.0,0.0,0.0,0.0,0.0,0.0,0.0,0.0,0.0,0.0,0.0,0.0,0.0,0.0,0.0,0.0,0.0,0.0,0.0,0.0,0.0,0.0,0.0,0.0,0.0,0.0,0.0,0.0,0.0,0.0,0.0,0.0,0.0,0.0,0.0,0.0,0.0,0.0,0.0,0.0,0.0,0.0,0.0,0.0,0.0,0.0,0.0,0.0,0.0,0.0,0.0,0.0,0.0,0.0,0.0,0.0,0.0,0.0,0.0,0.0,0.0,0.0,0.0,0.0,0.0,0.0,0.0,0.0,0.0,0.0,0.0,0.0,0.0,0.0,0.0,0.0,0.0,0.0,0.0,0.0,0.0,0.0,0.0,0.0,0.0,0.0,0.0,0.0,0.0,0.0,0.0,0.0,0.0,0.0,0.0,0.0,0.0,0.0,0.0,0.0,0.0,0.0,2.0494,2.0509,2.0543,2.0543,2.0777,2.0941,2.0941,2.1327,2.1585,2.1585,0.0,0.0,0.0,0.0,0.0,0.0,0.0,0.0,0.0,0.0,0.0,0.0,0.0,0.0,0.0,0.0,0.0,0.0,0.0,0.0,0.0,0.0,0.0,0.0,0.0,0.0,0.0,0.0,0.0,0.0,0.0,0.0,0.0,0.0,0.0,0.0,0.0,0.0,0.0,0.0,0.0,0.0,0.0,0.0,0.0,0.0,0.0,0.0,0.0,0.0,0.0,0.0,0.0,0.0,0.0,0.0,0.0,0.0,0.0,0.0,0.0,0.0,0.0,0.0,0.0,0.0,0.0,0.0,0.0,0.0,0.0,0.0,0.0,0.0,0.0,0.0,0.0,0.0,0.0,0.0,0.0,0.0,0.0,0.0,0.0,0.0,0.0,0.0,0.0,0.0,0.0,0.0,0.0,0.0,0.0,0.0,0.0,0.0,0.0,0.0,0.0,0.0,2.0081,2.0222,2.0377,2.0454,2.0696,2.0848,2.0848,2.16,2.2067,2.2067,0.0,0.0,0.0,0.0,0.0,0.0,0.0,0.0,0.0,0.0,0.0,0.0,0.0,0.0,0.0,0.0,0.0,0.0,0.0,0.0,0.0,0.0,0.0,0.0,0.0,0.0,0.0,0.0,0.0,0.0,0.0,0.0,0.0,0.0,0.0,0.0,0.0,0.0,0.0,0.0,0.0,0.0,0.0,0.0,0.0,0.0,0.0,0.0,0.0,0.0,0.0,0.0,0.0,0.0,0.0,0.0,0.0,0.0,0.0,0.0,2.5067,0.0,0.0,0.0,0.0,0.0,0.0,0.0,0.0,0.0,0.0,0.0,0.0,0.0,0.0,0.0,0.0,0.0,0.0,0.0,0.0,0.0,0.0,0.0,0.0,0.0,0.0,0.0,0.0,0.0,0.0,0.0,0.0,0.0,0.0,0.0,0.0,0.0,0.0,0.0,0.0,0.0,2.0557,2.0691,2.0999,2.1629,2.1914,2.2061,2.2061,2.2347,2.253,2.2389,2.253,0.0,0.0,0.0,0.0,0.0,0.0,0.0,0.0,0.0,0.0,0.0,0.0,0.0,0.0,0.0,0.0,0.0,0.0,0.0,0.0,0.0,0.0,0.0,0.0,0.0,0.0,0.0,0.0,0.0,0.0,0.0,0.0,0.0,0.0,0.0,0.0,0.0,0.0,0.0,0.0,0.0,0.0,0.0,0.0,0.0,0.0,0.0,0.0,0.0,0.0,0.0,0.0,0.0,0.0,0.0,0.0,0.0,0.0,0.0,0.0,2.4989,0.0,0.0,0.0,0.0,0.0,0.0,0.0,0.0,0.0,0.0,0.0,0.0,0.0,0.0,0.0,0.0,0.0,0.0,0.0,0.0,0.0,0.0,0.0,0.0,0.0,0.0,0.0,0.0,0.0,0.0,0.0,0.0,0.0,0.0,0.0,0.0,0.0,0.0,0.0,0.0,2.0965,2.1233,2.1469,2.1918,2.2118,2.2248,2.2248,2.2655,2.2879,2.2786,2.3016,0.0,0.0,0.0,0.0,0.0,0.0,0.0,0.0,0.0,0.0,0.0,0.0,0.0,0.0,0.0,0.0,0.0,0.0,0.0,0.0,0.0,0.0,0.0,0.0,0.0,0.0,0.0,0.0,0.0,0.0,0.0,0.0,0.0,0.0,0.0,0.0,0.0,0.0,0.0,0.0,0.0,0.0,0.0,0.0,0.0,0.0,0.0,0.0,0.0,0.0,0.0,0.0,0.0,2.3082,2.3157,2.3275,2.3451,2.3625,2.3824,2.4276,2.4661,2.5005,2.5371,0.0,0.0,0.0,0.0,0.0,0.0,0.0,0.0,0.0,0.0,0.0,0.0,0.0,0.0,0.0,0.0,0.0,0.0,0.0,0.0,0.0,0.0,0.0,0.0,1.9782,1.976,0.0,0.0,0.0,0.0,0.0,0.0,0.0,0.0,0.0,0.0,0.0,0.0,2.1436,2.1724,2.1954,2.2074,2.2264,2.2343,2.2343,2.2813,2.3117,2.3076,2.348,2.3711,0.0,0.0,0.0,0.0,0.0,0.0,0.0,0.0,0.0,0.0,0.0,0.0,0.0,0.0,0.0,0.0,0.0,0.0,0.0,0.0,0.0,0.0,0.0,0.0,0.0,0.0,0.0,0.0,0.0,0.0,0.0,0.0,2.6337,2.5573,0.0,0.0,0.0,0.0,0.0,0.0,0.0,0.0,0.0,0.0,0.0,0.0,0.0,2.2137,2.2292,2.237,2.2509,2.2661,2.2963,2.3098,2.3127,2.3451,2.3653,2.3839,2.4177,0.0,2.4862,2.5068,0.0,0.0,0.0,0.0,0.0,0.0,0.0,0.0,0.0,0.0,0.0,0.0,0.0,0.0,0.0,0.0,0.0,0.0,0.0,0.0,0.0,0.0,2.0549,2.0425,2.0329,2.0217,0.0,2.0142,2.0209,2.0123,2.0444,0.0,0.0,0.0,0.0,0.0,0.0,0.0,2.2014,2.2199,2.2475,2.3182,2.3355,2.334,2.3255,2.3314,2.3287,2.3128,2.326,2.3304,2.3216,2.3068,0.0,0.0,0.0,0.0,0.0,0.0,0.0,0.0,0.0,0.0,0.0,0.0,0.0,0.0,0.0,0.0,0.0,0.0,0.0,0.0,0.0,0.0,0.0,0.0,0.0,0.0,0.0,0.0,0.0,2.6198,2.5615,2.516,2.4165,2.3227,0.0,0.0,0.0,0.0,0.0,0.0,0.0,0.0,0.0,2.1375,2.1664,2.1888,2.2091,2.2137,2.2324,2.2615,2.2859,2.3083,2.3201,2.3566,2.3797,2.394,2.4177,2.4441,2.4661,2.4989,2.513,2.5224,0.0,0.0,0.0,0.0,2.4338,2.386,2.3431,2.2958,0.0,2.2496,0.0,0.0,0.0,0.0,0.0,0.0,0.0,0.0,0.0,0.0,2.013,2.0087,2.0014,1.991,1.9809,2.0113,2.0316,0.0,2.0133,2.033,2.0258,0.0,0.0,0.0,0.0,2.17,2.2366,2.2571,2.2761,2.3143,2.3201,2.3201,2.3098,2.3054,2.2965,2.2889,2.2904,2.2873,2.2814,2.2768,2.2632,0.0,0.0,0.0,0.0,0.0,0.0,0.0,0.0,0.0,0.0,0.0,0.0,0.0,0.0,0.0,0.0,0.0,0.0,0.0,0.0,0.0,0.0,0.0,0.0,0.0,0.0,0.0,0.0,2.5492,2.5142,2.4679,2.3667,2.2689,0.0,0.0,0.0,0.0,0.0,0.0,2.041,2.0799,2.1033,2.118,2.1471,2.1712,2.1949,2.1996,2.2184,2.2555,2.2814,2.3038,2.3319,2.3668,2.3839,2.3982,2.4177,2.4302,2.4441,2.4831,2.495,2.495,2.5045,2.4966,2.4791,2.4719,2.4271,2.3708,2.3573,2.313,2.2598,2.2534,0.0,2.2265,2.1736,0.0,0.0,0.0,0.0,2.0277,2.0429,2.0247,2.0021,1.9989,1.997,1.9938,1.9879,2.0214,2.0442,0.0,2.012,2.0319,2.0288,0.0,0.0,0.0,0.0,2.2071,2.2515,2.2663,2.2754,2.2754,2.2799,2.2814,2.2754,2.2663,2.2618,2.2572,2.254,2.2555,2.2555,2.2509,2.237,2.2137,0.0,0.0,0.0,0.0,0.0,0.0,0.0,0.0,0.0,0.0,0.0,0.0,0.0,0.0,0.0,0.0,0.0,0.0,0.0,0.0,0.0,0.0,0.0,0.0,0.0,0.0,0.0,0.0,0.0,2.3527,2.3212,0.0,0.0,0.0,0.0,1.9674,1.9978,2.0182,2.0233,2.0686,2.1033,2.118,2.1471,2.1664,2.1793,2.1949,2.2137,2.2417,2.2768,2.3038,2.3319,2.3668,2.3797,2.3824,2.4036,2.412,2.4162,2.4508,2.4605,2.4539,2.4539,2.4441,2.4302,2.4204,2.409,2.4059,2.4006,2.3849,2.3734,2.3734,2.3419,2.2878,2.1887,2.1348,0.0,0.0,2.0625,2.0435,2.1,2.1037,2.0904,2.0845,2.0858,2.0795,2.067,2.0696,2.0637,0.0,2.1043,2.152,2.152,0.0,2.1913,2.1941,2.2081,2.2189,2.2217,2.2324,2.2417,2.2417,2.2555,2.2555,2.2417,2.2417,2.237,2.2217,2.2324,2.2417,2.2417,2.2278,2.2137,2.1996,2.1746,0.0,0.0,0.0,0.0,0.0,0.0,0.0,0.0,0.0,0.0,0.0,0.0,0.0,0.0,0.0,0.0,0.0,0.0,0.0,0.0,0.0,0.0,0.0,0.0,0.0,0.0,0.0,0.0,2.3403,2.2078,0.0,2.0348,1.9793,1.9422,1.9334,1.9617,1.9875,2.0042,2.0573,2.0921,2.1082,2.1326,2.1568,2.1664,2.1793,2.2091,2.2509,2.2768,2.3113,2.3523,2.3797,2.394,2.394,2.4109,2.4109,2.4051,2.4177,2.4219,2.4261,2.4261,2.4177,2.4109,2.4051,2.3967,2.3909,2.3882,2.3754,2.3581,2.3304,2.2889,2.2452,2.2009,2.1569,2.1287,2.1159,2.0885,2.0722,2.097,2.0911,2.0812,2.0762,2.0762,2.0762,2.0699,2.0699,2.0696,2.0633,2.0913,2.1158,2.1158,2.134,2.152,2.1616,2.1746,2.1888,2.2044,2.2137,2.2184,2.2278,2.2324,2.2324,2.2278,2.2278,2.2231,2.2184,2.2231,2.2278,2.2278,2.2137,2.1949,2.1616,2.1375,2.0983,0.0,0.0,0.0,0.0,0.0,0.0,0.0,0.0,0.0,0.0,0.0,0.0,0.0,0.0,0.0,0.0,0.0,0.0,0.0,0.0,0.0,0.0,0.0,0.0,0.0,0.0,2.2885,2.2144,2.0807,1.984,1.9578,1.905,1.8851,1.9064,1.942,1.972,1.9926,2.0459,2.0858,2.0997,2.1277,2.152,2.1664,2.1841,2.217,2.2646,2.2904,2.3246,2.3595,2.3882,2.3982,2.394,2.3982,2.394,2.3839,2.3855,2.3882,2.3952,2.3994,2.3952,2.3882,2.3882,2.3797,2.3739,2.3711,2.3581,2.3363,2.2934,2.254,2.2184,2.1996,2.1616,2.1229,2.118,2.101,2.0825,2.0825,2.0775,2.0699,2.0699,2.0699,2.0699,2.0699,2.0699,2.0699,2.0699,2.0825,2.0901,2.0901,2.101,2.118,2.1326,2.1423,2.1568,2.1841,2.1902,2.1996,2.2137,2.2184,2.2184,2.2184,2.2184,2.2184,2.2184,2.2184,2.2137,2.2137,2.1949,2.1616,2.1277,2.0822,2.0372,1.9978,0.0,0.0,0.0,0.0,0.0,0.0,0.0,0.0,0.0,0.0,0.0,0.0,0.0,0.0,0.0,0.0,0.0,0.0,0.0,0.0,0.0,0.0,0.0,2.2695,2.2817,2.1945,1.9645,1.9467,1.9142,1.8172,1.841,1.8625,1.8744,1.9251,1.9656,1.9747,2.0409,2.0858,2.0997,2.1361,2.1664,2.1793,2.2091,2.2356,2.2694,2.3127,2.3392,2.3595,2.3882,2.394,2.3797,2.3653,2.3595,2.3595,2.3538,2.3538,2.3595,2.3739,2.3696,2.3595,2.3595,2.3595,2.361,2.3494,2.3422,2.3216,2.2799,2.2434,2.2137,2.1841,2.1423,2.0997,2.0997,2.0848,2.0699,2.0699,2.0699,2.0699,2.0699,2.0699,2.0699,2.0699,2.0699,2.0699,2.0699,2.0775,2.0888,2.0888,2.0961,2.1033,2.118,2.118,0.0,2.1568,2.1698,2.1841,2.1996,2.2137,2.2184,2.2184,2.2184,2.2184,2.2184,2.2091,2.1996,2.1996,2.1616,2.1277,2.0983,2.0169,1.9708,1.9565,0.0,0.0,0.0,0.0,0.0,0.0,0.0,0.0,0.0,0.0,0.0,0.0,0.0,0.0,0.0,0.0,0.0,0.0,0.0,0.0,0.0,0.0,2.1249,2.1629,2.0831,1.997,1.9326,1.8449,1.7835,1.7665,1.7744,1.7909,1.8127,1.8614,1.9028,1.9344,2.0016,2.0523,2.0858,2.1264,2.1568,2.1793,2.2184,2.2449,2.2694,2.3127,2.3392,2.3595,2.3882,2.394,2.3797,2.3839,2.3782,2.3595,2.3566,2.3653,2.3739,2.3696,2.3638,2.3595,2.3595,2.3566,2.3494,2.326,2.3008,2.2737,2.2449,2.203,2.1616,2.152,2.1242,2.0938,2.0938,2.0825,2.0699,2.0699,2.0699,2.0699,2.0699,2.0699,2.0699,2.0699,2.0699,2.0699,2.0699,2.0712,2.0762,2.0762,2.0875,2.0974,2.1046,2.1229,0.0,2.1712,2.1841,2.1996,2.2137,2.2184,2.2184,2.2184,2.2184,2.2184,2.2184,2.2091,2.1949,2.1841,2.1471,2.0934,2.0296,1.9772,1.9408,0.0,0.0,0.0,0.0,0.0,0.0,0.0,0.0,0.0,0.0,0.0,0.0,0.0,0.0,0.0,0.0,0.0,0.0,0.0,0.0,0.0,0.0,1.922,1.9463,1.9381,1.9121,1.8698,1.8179,1.7404,1.6987,1.72,1.72,1.7368,1.781,1.8224,1.8709,1.9239,1.9875,2.0422,2.0871,2.1215,2.1568,2.1888,2.2184,2.2495,2.2799,2.3127,2.3392,2.3595,2.3882,2.3982,2.3882,2.3925,2.3839,2.3739,2.3696,2.3782,0.0,0.0,0.0,0.0,0.0,2.3625,2.3466,2.3275,2.2949,2.2586,2.237,2.1949,2.1568,2.152,2.1291,2.1023,2.1023,2.0911,2.0848,2.0848,2.0848,2.0848,2.0848,2.0848,2.0848,2.0848,2.0848,2.0848,2.0848,2.0848,0.0,2.0848,2.0875,2.0938,2.1095,2.1277,2.152,2.1841,2.1949,2.2044,2.2184,2.2231,2.2278,2.2278,2.2278,0.0,0.0,0.0,2.176,2.1677,2.1356,0.0,0.0,0.0,1.9988,1.977,0.0,0.0,0.0,1.818,1.7656,0.0,0.0,0.0,0.0,0.0,0.0,0.0,0.0,0.0,0.0,0.0,0.0,0.0,0.0,0.0,0.0,1.7434,1.7099,1.6761,1.7594,1.7759,1.6654,1.6353,1.6353,1.6694,1.6761,1.6987,1.759,1.8018,1.8602,1.9316,0.0,0.0,0.0,0.0,2.1568,2.1996,2.2137,2.2402,2.2844,2.3127,2.3392,2.361,2.3882,2.4024,2.4024,2.3925,2.3925,2.4024,2.3925,2.3952,2.412,2.3909,2.3925,2.4024,2.3882,2.3668,2.3466,2.3319,0.0,0.0,2.2417,2.2044,2.1712,2.1616,2.1375,2.118,2.118,2.1082,2.0997,2.0997,2.0997,2.0997,2.0997,2.0997,2.1033,2.1033,2.1033,2.1033,2.1033,2.1033,2.1033,2.1033,2.101,2.1023,2.118,2.1375,2.163,2.2033,2.2094,2.2216,2.2381,0.0,0.0,2.2583,2.2583,2.2583,2.2536,2.2062,2.1659,2.1577,2.13,2.1275,2.1481,2.1144,2.0929,2.0827,2.0355,2.0111,2.0088,1.8566,1.7812,0.0,0.0,0.0,0.0,0.0,0.0,0.0,0.0,0.0,0.0,0.0,0.0,0.0,0.0,0.0,1.7412,1.6976,1.6637,1.6285,1.6252,1.6213,1.6213,1.6077,1.6077,1.6228,1.6363,1.6648,1.7123,1.7776,1.8429,1.904,1.9681,2.0271,2.0809,2.1118,2.1423,2.1841,2.2091,2.237,2.2646,0.0,0.0,2.3538,2.3909,2.4078,2.4078,2.4276,2.4317,2.4219,2.4219,2.4317,2.44,2.4261,2.4135,2.4078,2.3967,2.3726,2.3319,2.3083,2.2618,2.2123,2.1935,2.1664,2.1326,2.1277,2.118,0.0,2.1033,2.1033,2.0997,2.0997,2.0997,2.0997,2.0997,2.1082,2.118,2.118,2.1229,2.1326,2.1326,2.1326,2.1326,2.1326,2.1326,2.134,2.1375,2.1664,2.2068,2.2651,2.2818,2.3112,2.3695,2.3851,2.39,2.3801,2.3851,2.3801,2.3551,2.294,2.2406,2.2003,2.1745,2.1491,2.1325,2.1099,2.0929,2.0827,2.0355,2.0111,2.01,1.9283,1.8899,0.0,0.0,0.0,0.0,0.0,0.0,0.0,0.0,0.0,0.0,0.0,2.0646,0.0,0.0,1.8267,1.7357,1.692,1.6524,1.6077,1.5951,1.5894,1.5894,1.5846,1.5904,1.6056,1.6353,1.6751,1.7301,1.7941,1.8632,1.9344,1.9965,2.0573,2.1055,2.1361,2.1664,2.1996,2.2278,2.2509,2.2768,2.3127,2.3407,2.3668,2.4036,2.4261,2.4302,2.4482,2.4523,2.4467,2.4589,2.493,2.5365,2.5293,2.4828,2.4177,2.4094,2.3754,2.3363,2.3038,2.2572,2.2184,2.1996,2.1698,2.152,2.152,2.1471,2.1423,2.1423,2.1423,2.1491,2.1789,2.1857,2.1939,2.2251,2.2383,2.2433,2.2433,2.2483,2.2533,2.2533,2.2533,2.2533,2.2533,2.2619,2.2523,2.2109,2.2574,2.3041,2.3348,2.3426,2.3551,2.3821,2.4016,2.4118,2.4067,2.4067,2.3849,2.3346,2.2804,2.2492,2.2309,2.2109,2.2033,2.2089,2.1913,2.1748,2.1618,2.12,2.0959,2.0911,2.0412,1.9844,0.0,0.0,0.0,0.0,0.0,0.0,0.0,0.0,2.2859,2.2123,2.1444,2.0696,1.9811,1.9081,1.8278,1.7412,1.6976,1.6591,1.6087,1.6066,1.6066,1.5846,1.5788,1.5894,1.6124,1.6457,1.6965,1.77,1.8321,1.9056,1.9901,2.051,2.1019,2.1568,2.1793,2.2077,2.231,2.2601,2.2814,2.3024,2.3407,2.3668,2.3967,2.4399,2.4684,2.4864,2.5055,2.5143,2.5143,2.5361,2.5854,2.6445,2.651,2.5835,2.4828,2.4645,2.4303,2.3837,2.3494,2.3097,2.2692,2.2502,2.2311,2.2138,2.2014,2.1973,2.1945,2.1835,2.1793,2.1904,2.2401,2.2525,2.2649,2.3225,2.3386,2.34,2.3437,2.3487,2.3487,2.3487,2.3487,2.3529,2.3603,2.3817,2.3733,2.3017,2.3529,2.3993,2.4016,2.403,2.402,2.3989,2.4211,2.4315,2.4263,2.4094,2.374,2.3151,2.2756,2.2575,2.268,2.2518,2.2627,2.2957,2.28,2.2678,2.2482,2.2111,2.1874,2.1761,2.1423,2.0608,2.6418,2.603,2.5589,2.5169,2.4831,2.4467,0.0,0.0,2.2754,2.2123,2.1396,2.0597,1.9901,1.9056,1.8267,1.7579,1.7088,1.6637,1.6296,1.6296,1.6296,1.6239,1.6124,1.6124,1.6374,1.674,1.7279,1.7984,1.8845,1.9631,2.0459,2.1104,2.1698,2.2091,2.2296,2.2558,2.2799,2.2994,2.3201,2.3508,2.3696,2.4009,2.4431,2.5342,2.5816,2.6036,2.6764,2.7077,2.7077,2.7118,2.7166,2.7288,2.7288,2.7089,2.6772,2.6498,2.5953,2.5345,2.5018,2.4505,2.3906,2.3856,2.3691,2.3391,2.2774,2.2594,2.2484,2.1945,2.1793,2.1821,2.1876,2.1904,2.1965,2.213,2.2286,2.2395,2.2536,2.263,2.2723,2.2723,2.2723,2.2861,2.3257,2.3809,2.4061,2.3803,2.4061,2.4416,2.4812,2.4882,2.5026,2.5409,2.5465,2.5465,2.5259,2.49,2.452,2.4165,2.3716,2.3416,2.3301,2.311,2.3015,2.3078,2.2969,2.28,2.2678,2.2309,2.2061,2.1874,2.1526,2.1152,2.6487,2.6243,2.5957,0.0,2.5224,2.4831,2.4219,2.3638,2.2979,2.2263,2.1554,2.0809,2.0055,1.9371,1.8697,0.0,1.7623,1.7301,1.6853,1.727,1.7546,1.742,1.7879,1.7835,1.6973,1.7621,1.8259,1.8721,1.9527,2.0295,2.1042,2.1684,2.2217,2.2586,2.3207,2.3639,2.3835,2.4477,2.4852,2.4987,2.5326,2.5629,2.5931,2.6525,2.6901,2.7163,2.751,2.7664,2.7688,2.7688,2.7964,2.8311,2.8253,2.8281,2.8247,2.7118,2.6318,2.5771,2.5349,2.4917,2.4554,2.4369,2.4269,2.4112,2.3844,2.3759,2.3703,2.3449,2.3378,2.3463,2.3815,2.3914,2.3999,2.4416,2.4552,2.4639,2.474,2.474,2.4755,2.4841,2.4805,2.479,2.4892,2.5147,2.5099,2.4487,2.4896,2.5233,2.5284,2.5258,2.53,2.5314,2.523,2.5174,2.5048,2.4821,2.4478,2.4203,2.3936,2.3641,2.3403,2.333,2.321,2.3078,2.2969,2.2848,2.28,2.2482,2.2247,2.2061,2.18,2.1385,2.6725,2.6521,0.0,2.5977,2.5642,2.5224,2.4574,2.3921,2.3275,2.2495,2.1841,2.1171,2.0616,2.0076,1.9499,1.8844,1.8682,1.8417,1.7886,1.8585,1.9121,1.903,2.0001,2.0163,1.8928,1.9036,1.9436,1.9828,2.0373,2.1095,2.2034,2.2644,2.3207,2.3686,2.4431,2.4881,2.4987,2.5773,2.6153,2.6198,2.6629,2.6891,2.7036,2.7566,2.8026,2.8403,2.8403,2.8403,2.8469,2.8469,2.8753,2.9199,2.9054,2.9083,2.9087,2.77,2.6933,2.647,2.6027,2.5703,2.5436,2.5236,2.5135,2.5106,2.4934,2.4876,2.4833,2.4661,2.4618,2.4718,2.5128,2.5242,2.5357,2.5868,2.5969,2.6021,2.6162,2.6058,2.6021,2.611,2.5954,2.5869,2.5881,2.5856,2.5596,2.5101,2.545,2.5618,2.5315,2.5329,2.5257,2.4948,2.4835,2.4721,2.4664,2.4478,2.4319,2.4067,2.3878,2.37,2.3463,2.3463,2.339,2.3258,2.309,2.303,2.2969,2.2665,2.2347,2.203,2.199,2.159,2.7213,0.0,2.6708,2.6453,2.6013,2.5497,2.4831,2.4184,2.3522,2.283,2.2203,2.178,2.1816,2.1407,2.0934,2.0494,2.0374,2.0097,1.95,2.0253,2.087,2.1016,2.2252,2.3025,0.0,2.1176,2.0536,2.1433,2.1507,2.2164,2.3728,2.4204,2.4836,2.5681,2.5986,2.6138,2.6153,2.6363,2.6541,2.6689,2.6965,2.7179,2.7422,2.8366,2.9172,2.9908,2.9837,2.9853,2.9853,2.9853,2.9782,2.9665,2.9544,2.9335,2.9075,2.8622,2.8225,2.7898,2.76,2.7276,2.6945,2.6945,2.6811,2.6509,2.5952,2.5763,2.5633,2.5058,2.4898,2.4898,2.4912,2.4927,2.4975,2.5102,2.5165,2.515,2.5309,2.5213,2.515,2.515,2.4892,2.4848,2.5326,2.5137,2.511,2.5617,2.5439,2.508,2.4652,2.486,2.4948,2.4835,2.4677,2.4549,2.435,2.4216,2.4054,2.3891,2.37,2.3628,2.3569,2.3569,2.3569,2.3556,2.345,2.3271,2.3078,2.2957,2.2455,2.1607,2.2006,2.1774,2.7672,2.7474,2.7258,2.6987,2.6573,2.6071,2.5433,2.4816,2.4307,2.4148,2.3606,2.3245,2.3362,2.3053,2.2731,2.2548,2.2612,2.2644,2.2524,2.3206,2.3798,2.3951,2.4783,0.0,0.0,0.0,0.0,2.3482,2.3763,2.4229,2.4995,2.5226,2.5591,2.6062,2.6596,2.6903,2.7011,2.7612,2.7922,2.7984,2.8381,2.8722,2.8984,2.9416,2.9789,3.0103,3.0017,2.9989,2.9973,2.987,2.9738,2.9531,2.9441,2.9152,2.8795,2.851,2.8332,2.8073,2.7725,2.7437,2.7248,2.7144,2.7078,2.6967,2.6814,2.674,2.6696,2.6476,2.6417,2.6417,2.6417,2.6417,2.6417,2.6468,2.6482,2.6533,2.6683,2.6497,2.6345,2.6345,2.6009,2.574,2.5703,2.557,2.5423,2.5356,2.5174,2.505,2.4901,2.477,2.4721,2.4778,2.4677,2.4563,2.4492,2.4447,2.4332,2.4203,2.4073,2.3969,2.3819,2.3819,2.376,2.3628,2.3569,2.345,2.3271,2.3138,2.287,2.2455,2.2531,2.208,2.8138,2.7943,2.776,2.7517,2.7098,2.6607,2.6035,2.5643,2.5377,2.5179,2.5016,2.4906,2.5048,2.4918,2.474,2.4647,2.4901,2.5014,2.4944,2.5473,2.5884,2.6056,2.6642,2.7161,0.0,0.0,0.0,2.5534,2.5583,2.5847,2.6382,2.6505,2.675,2.7195,2.7628,2.786,2.7922,2.8435,2.8748,2.8842,2.9213,2.9515,2.9793,2.9886,2.993,3.0044,2.9886,2.9814,2.9798,2.9754,2.9605,2.9441,2.9305,2.9029,2.8716,2.8493,2.8299,2.8137,2.784,2.769,2.7604,2.7437,2.7437,2.7386,2.7386,2.7321,2.7321,2.7321,2.7321,2.7321,2.7321,2.7321,2.7321,2.7321,2.7284,2.7284,2.7401,2.7144,2.6899,2.6817,2.6472,2.6096,2.5893,2.5674,2.5397,2.5118,2.5005,2.4948,2.5005,2.4778,2.4677,2.4778,2.4677,2.462,2.462,2.462,2.4549,2.4421,2.4421,2.4319,2.4041,2.4041,2.3982,2.3806,2.3747,2.3641,2.3582,2.339,2.3097,2.2683,2.2761,2.237,2.8626,2.8422,2.8201,2.8,2.7577,2.7117,2.6624,2.6664,2.6675,2.6091,2.635,2.6787,0.0,0.0,2.6866,2.6837,2.7149,2.7221,2.6855,2.6989,2.7173,0.0,0.0,0.0,0.0,0.0,0.0,2.7565,0.0,2.7121,2.7929,2.7976,2.8336,2.9059,2.8967,2.8904,2.8904,2.8904,2.9044,2.9305,2.9412,2.9576,2.981,2.9726,2.9754,2.981,2.9592,2.9518,2.9518,2.9473,2.9412,2.9259,2.9121,2.8951,2.8747,2.8508,2.8348,2.8186,2.8103,2.8005,2.7955,2.784,2.779,2.779,2.7675,2.7625,2.7625,2.7625,2.7625,2.7625,2.7625,2.7575,2.7575,2.7575,2.7488,2.7401,2.7401,2.7093,2.6712,2.6525,2.615,2.5839,2.5674,2.5397,2.5118,2.4835,2.4835,2.4892,2.5005,2.4892,2.4778,2.4835,2.4734,2.4677,2.4677,2.462,2.462,2.462,2.462,2.4549,2.435,2.4292,2.4247,2.4112,2.4008,2.3891,2.3891,2.37,2.317,2.2372,2.2887,2.2683,2.9003,2.8839,2.8669,2.8456,2.8065,2.7747,2.7851,2.7673,2.764,2.8216,2.823,2.8313,0.0,0.0,0.0,2.9054,2.9389,0.0,2.9584,2.9263,0.0,2.9798,0.0,2.942,3.0063,3.0227,0.0,0.0,2.9139,2.893,2.9166,2.9019,2.8978,2.9121,2.9075,2.9075,2.9075,2.9075,2.9121,2.9305,2.9441,2.9576,2.9726,2.9814,2.9858,2.9858,2.9726,2.9608,2.9473,2.9412,2.9213,2.9013,2.8967,2.8905,2.8794,2.87,2.87,2.8652,2.8604,2.8348,2.8005,2.7955,2.7955,2.7955,2.7905,2.7905,2.7905,2.779,2.774,2.774,2.7625,2.7539,2.7437,2.7437,2.7248,2.7107,2.7107,2.6817,2.6525,2.6272,2.5784,2.5342,2.5174,2.5174,2.5174,2.5118,2.5257,2.5201,2.4892,2.4892,2.5005,2.5118,2.5188,2.5257,2.5257,2.5131,2.5005,2.4892,2.4778,2.4664,2.4549,2.4549,2.4434,2.4247,2.4189,2.4086,2.3891,2.3832,2.3623,2.3293,2.3327,2.3135,2.9289,2.9115,2.8952,2.8767,2.8396,2.8138,2.8477,2.8475,2.8655,2.9349,2.9656,0.0,3.0119,3.0269,0.0,0.0,0.0,0.0,3.0982,3.0398,3.0171,0.0,3.0101,0.0,3.0312,3.0468,3.0468,0.0,3.0087,2.9826,2.9782,2.9665,2.9531,2.9441,2.9321,2.9229,2.9167,2.9229,2.9321,2.9412,2.9531,2.9637,2.9697,2.9786,2.983,2.9814,0.0,2.9563,2.9473,2.9412,2.9305,2.9167,2.9106,2.9029,2.892,2.8873,2.8826,2.8794,2.8794,2.8604,2.8314,2.8201,2.8168,2.8152,2.802,2.802,2.7955,2.784,2.774,2.769,2.7539,2.7386,2.7196,2.7196,2.6974,2.6765,2.6765,2.6539,2.6258,2.6002,2.5633,2.5313,2.5244,2.53,2.53,2.53,2.5439,2.5383,2.5145,2.5188,2.5257,2.53,2.5425,2.5494,2.5494,2.5369,2.53,2.5244,2.5075,2.4892,2.4778,2.4734,2.4607,2.4421,2.4673,2.4701,2.4491,2.4753,2.4736,2.4494,2.431,2.4113,2.9512,2.931,2.9089,2.8952,2.871,2.8558,2.8838,2.9258,2.9712,3.0116,0.0,3.1162,3.114,3.1295,3.1411,3.1372,0.0,3.1559,3.1517,3.0848,3.0421,3.0469,3.0163,2.9938,2.9995,3.0244,3.0426,3.0426,3.0231,3.006,3.0017,2.9902,2.9874,2.9814,2.9592,2.9412,2.9305,2.9412,2.9518,2.9518,2.9608,2.9697,2.9697,2.9697,2.9697,2.9742,2.9608,0.0,2.9518,2.9518,2.9518,2.9473,2.935,2.9213,2.9075,2.8967,2.8858,2.8794,2.8794,2.8794,2.8747,2.8508,2.8396,2.8348,2.8103,2.8005,2.7955,2.784,2.769,2.7524,2.7401,2.7144,2.6937,2.6937,2.6698,2.6457,2.6457,2.6258,2.6002,2.5729,2.5592,2.5494,2.5494,2.5494,2.555,2.555,2.555,2.555,2.555,2.555,2.555,2.555,2.555,2.555,2.555,2.555,2.555,2.555,2.5355,2.5215,2.5184,2.507,2.4939,2.4905,2.5354,2.5488,2.5368,2.5871,2.5936,2.5636,2.5434,2.5243,2.9551,2.9392,2.9228,2.9021,2.9228,2.9547,2.9923,3.0339,0.0,0.0,3.1551,3.1562,3.1711,3.1875,3.1912,3.1821,3.1821,3.1765,3.1555,3.0776,3.0408,0.0,3.0101,2.9809,3.036,3.0192,0.0,0.0,0.0,2.9738,2.9973,2.9814,2.9637,2.9396,2.935,2.9305,2.9305,2.9412,2.9518,2.9518,2.9518,2.9608,2.9697,2.9697,2.9786,2.9858,2.983,0.0,2.9653,2.9653,2.9547,2.935,2.9305,2.9152,2.892,2.8904,2.8858,2.8794,2.8794,2.8794,2.8747,2.8636,2.8493,2.8348,2.8186,2.8103,2.7955,2.7675,2.7539,2.7401,2.7144,2.6817,2.6578,2.6578,2.6365,2.6165,2.6165,2.5948,2.5784,2.5729,2.5592,2.5494,2.5494,2.5592,2.5688,2.5688,2.5743,2.5853,2.5853,2.5729,2.5688,2.5688,2.5729,2.5853,2.5853,2.5743,2.5688,2.5688,2.5536,2.5659,2.6155,2.5983,2.6027,2.6397,2.6412,2.6297,2.6086,2.6131,2.606,2.5998,2.5484,2.5294,2.9626,2.9472,2.927,2.9134,2.946,2.99,3.0267,0.0,0.0,0.0,3.1929,3.1875,3.1984,3.2073,0.0,3.193,3.1821,3.1691,3.15,3.0985,0.0,3.0965,3.0496,3.0211,0.0,3.0231,3.0017,0.0,0.0,2.9576,2.9754,2.9425,2.9198,2.8967,2.8997,2.8997,2.8967,2.9121,2.9213,2.9275,2.9275,2.9366,2.9502,2.9502,2.9547,2.9697,2.9697,0.0,2.9608,2.9608,2.9502,2.9305,2.9213,2.9013,2.8779,2.8732,2.8668,2.8604,2.8604,2.8604,2.8541,2.8332,2.8332,2.8348,2.8088,2.7955,2.7855,2.759,2.7335,2.713,2.6951,2.6606,2.6312,2.6312,2.6165,2.6002,2.6002,2.5893,2.5784,2.5784,2.5743,2.5702,2.5702,2.5743,2.5784,2.5784,2.5839,2.5893,2.5893,2.5893,2.5893,2.5784,2.5839,2.5893,2.5893,2.5839,2.5924,2.6232,2.6162,2.6327,2.6937,2.682,2.684,2.7069,2.7216,2.7195,2.7023,2.718,2.715,2.6958,2.6635,2.6375,2.9645,2.9472,2.9326,2.9403,2.9789,3.0233,3.0606,3.1101,0.0,3.2022,3.2073,3.2073,3.2073,0.0,3.2073,0.0,3.1765,3.1596,3.1517,3.123,3.1015,0.0,3.0773,0.0,3.0375,3.0231,0.0,0.0,0.0,0.0,2.938,2.9013,2.8732,2.8653,2.8622,2.8574,2.859,2.8732,2.8842,2.8951,2.8951,2.9029,2.9152,2.9152,2.9259,2.9366,2.9428,0.0,0.0,2.9428,2.9321,2.9167,2.9075,2.8826,2.8542,2.8462,2.8381,2.825,2.825,2.825,2.8186,2.7925,2.8039,2.8201,2.784,2.769,2.764,2.7401,2.713,2.6922,2.6727,2.6394,2.6111,2.6111,2.6056,2.6002,2.6002,2.5948,2.5948,2.5948,2.5948,2.5948,2.5948,2.5948,2.6002,2.6002,2.6002,2.6059,2.6186,2.6309,2.6366,2.6383,2.6229,2.6145,2.609,2.6217,2.6512,2.6989,2.6903,2.7053,2.7666,2.7515,2.7451,2.7649,2.7858,2.7993,2.7895,2.815,2.8105,2.7855,2.7536,2.7335,2.9471,2.937,2.9428,3.0056,3.0556,3.1028,3.1554,0.0,3.2196,3.2197,3.2055,3.1948,3.2073,0.0,0.0,0.0,0.0,3.1726,3.1517,3.1308,3.1112,3.0912,0.0,0.0,3.0231,3.0,0.0,0.0,0.0,0.0,2.8951,2.8621,2.8444,2.8444,2.8284,2.8235,2.8235,2.8396,2.8444,2.8444,2.8444,2.851,2.8559,2.8685,2.8826,2.8967,2.9075,0.0,0.0,2.9137,2.8982,2.8732,2.8732,2.8446,2.8057,2.8057,2.786,2.7675,2.7675,2.7675,2.7625,2.7488,2.764,2.779,2.7503,2.7335,2.7233,2.7107,2.6951,2.6727,2.6447,2.6286,2.6286,2.6286,2.6286,2.6286,2.6286,2.6179,2.6056,2.6056,2.6056,2.6056,2.6056,2.6179,2.6286,2.6286,2.6286,2.6486,2.7111,2.7183,2.7397,2.7912,2.7343,2.6835,2.6722,2.727,2.7636,2.7678,2.7516,2.7708,2.8279,2.792,2.7993,2.8666,2.8387,2.8349,2.8519,2.8249,2.8079,2.8079,2.7348,2.7011,2.9468,2.9386,2.9444,3.0079,3.0597,3.1073,3.151,0.0,3.2284,3.2055,3.1948,3.1894,3.1929,3.1965,0.0,0.0,0.0,0.0,3.1688,3.15,3.1308,3.1112,3.0871,0.0,0.0,0.0,0.0,0.0,0.0,0.0,2.8621,2.8381,2.825,2.8152,2.8039,2.794,2.794,2.7989,2.8103,2.8152,2.8152,2.8201,2.8301,2.8365,2.8462,2.8621,2.8684,0.0,0.0,2.8668,2.8573,2.8414,2.8414,2.8171,2.7875,2.7875,2.7775,2.7575,2.7488,2.7488,2.7437,2.7248,2.7248,2.7299,2.7196,2.7093,2.7041,2.6899,2.6765,2.6592,2.6472,2.6379,2.6286,2.6286,2.6286,2.6286,2.6286,2.6286,2.6233,2.6233,2.6233,2.6233,2.6233,2.66,2.6897,2.6897,2.7211,2.7554,2.7797,2.7826,2.7926,2.8054,2.7854,2.7655,2.7541,2.7781,2.7961,2.8148,2.801,2.8105,2.851,2.8207,2.8136,2.8314,2.8105,2.8039,2.8118,2.7868,2.7669,2.7616,2.7348,2.7079,2.9407,2.9323,2.9411,3.0253,3.063,3.0995,0.0,0.0,3.2161,3.1875,3.1821,3.1802,3.1783,3.1839,3.1894,0.0,0.0,3.1912,3.1856,3.1671,3.1428,0.0,0.0,0.0,0.0,0.0,0.0,0.0,0.0,0.0,2.8299,2.8137,2.8039,2.802,2.7855,2.779,2.779,2.774,2.779,2.7905,2.7905,2.794,2.8024,2.8088,2.8137,2.8201,2.825,0.0,0.0,2.8266,2.8201,2.8088,2.8088,2.794,2.769,2.769,2.759,2.7473,2.7386,2.7299,2.7248,2.7055,2.6951,2.6951,2.6951,2.6951,2.6899,2.6832,2.6645,2.651,2.6578,2.6486,2.6379,2.6447,2.6447,2.6447,2.6447,2.6379,2.6379,2.6379,2.6537,2.6666,2.6666,2.7181,2.761,2.761,2.7968,2.8268,2.8454,2.8425,2.8438,2.8491,2.8519,2.8434,2.8133,2.8288,2.8464,2.8518,2.8312,2.8266,2.843,2.8105,2.7894,2.7776,2.7577,2.751,2.7577,2.739,2.7201,2.7134,2.6998,2.6782,2.9181,2.9108,2.9337,3.075,3.0848,3.0921,0.0,0.0,3.1875,3.1654,3.1617,3.1654,3.18,3.1839,3.193,3.2073,0.0,0.0,3.193,3.1728,0.0,0.0,0.0,0.0,0.0,0.0,0.0,0.0,0.0,0.0,2.8008,2.789,2.784,2.802,2.7855,2.779,2.779,2.7675,2.7625,2.7625,2.7625,2.761,2.7625,2.774,2.779,2.779,0.0,0.0,0.0,2.8005,2.7905,2.779,2.779,2.764,2.7401,2.7401,2.7335,2.7181,2.7181,2.7144,2.7003,2.7003,2.6899,2.6779,2.6779,2.6779,2.6779,2.6779,2.6645,2.6578,2.6727,2.6645,2.6578,2.6727,2.6779,2.6779,2.6779,2.6645,2.651,2.651,2.7043,2.7489,2.7489,2.8008,2.8369,2.8369,2.8254,2.8426,2.904,2.8961,2.9142,2.9723,2.9484,2.9045,2.8446,2.9024,2.9198,2.8853,2.8468,2.8222,2.8039,2.7377,2.7095,2.7229,2.6905,2.6782,2.704,2.6782,2.6714,2.6714,2.6371,2.6094,2.8906,2.8832,2.91,3.0441,3.0552,3.0627,3.1777,0.0,3.1839,3.1559,3.1671,3.1802,3.18,3.1929,3.2073,3.2073,3.2108,0.0,0.0,0.0,0.0,3.1334,3.0797,0.0,0.0,0.0,0.0,0.0,0.0,0.0,2.7473,2.7291,2.7306,2.7604,2.7554,2.7488,2.7386,2.7335,2.7321,2.7321,2.7437,2.7437,2.7437,2.7488,2.7554,0.0,0.0,0.0,0.0,2.769,2.7675,2.7675,2.7675,2.7625,2.7524,2.7524,2.7524,2.7473,2.7386,2.7299,2.7248,2.7055,2.6951,2.6899,2.6832,2.6779,2.6779,2.6779,2.6765,2.6712,2.6779,2.6765,2.6712,2.6779,2.6779,2.6779,2.6779,2.706,2.7295,2.7187,2.7705,2.8081,2.7968,2.8382,2.8751,2.8751,2.8852,2.9055,2.9175,2.9031,2.885,2.8903,2.8739,2.8671,2.8872,2.8834,2.861,2.83,2.7908,2.7643,2.7297,2.6824,2.6577,2.6521,2.6245,2.6176,2.6233,2.6176,2.6176,2.6176,2.5886,2.5746,0.0,2.8554,2.8845,3.0148,3.0269,0.0,0.0,0.0,0.0,0.0,0.0,3.1839,3.18,3.1929,3.2037,3.2073,3.2073,0.0,0.0,0.0,0.0,3.0942,0.0,0.0,0.0,0.0,0.0,0.0,0.0,0.0,2.6893,2.6759,2.6721,2.6803,2.7063,2.7167,2.7011,2.6959,2.6959,2.6959,2.7011,2.7063,2.7115,2.7115,2.7115,0.0,0.0,0.0,0.0,2.7335,2.7386,2.7423,2.7423,2.7423,2.7423,2.7423,2.7423,2.7423,2.7335,2.7248,2.7144,2.7055,2.6951,2.6899,2.6832,2.6779,2.6779,2.6779,2.6779,2.6779,2.6779,2.6779,2.6779,2.6779,2.6968,2.7089,2.7089,2.7527,2.7849,2.7682,2.814,2.851,2.8335,2.8679,2.8904,2.8767,2.8823,2.8917,2.8803,2.861,2.8352,2.8222,2.8039,2.8039,2.8379,2.83,2.8105,2.7789,2.7456,2.7175,2.6905,2.6508,2.6314,2.6213,2.591,2.5758,2.5758,2.5688,2.5676,2.5676,2.5465,2.5465,0.0,2.8219,2.8548,2.9832,3.0036,0.0,0.0,0.0,0.0,0.0,0.0,0.0,3.1837,3.1839,3.1948,3.2073,3.1984,0.0,0.0,3.1466,0.0,0.0,0.0,0.0,0.0,0.0,0.0,0.0,0.0,0.0,2.6283,2.6283,2.6136,2.5893,2.6496,2.6759,2.663,2.651,2.6457,2.6457,2.6457,2.651,2.6683,2.6683,2.6683,0.0,0.0,0.0,0.0,2.6951,2.7041,2.7115,2.7115,2.7115,2.7115,2.7115,2.7115,2.7115,2.7115,2.6974,2.6779,2.6884,2.6846,2.6727,2.6779,2.6779,2.6779,2.6779,2.6779,2.6779,2.6779,2.6808,2.6852,2.6852,2.7169,2.7506,2.7506,2.7882,2.8153,2.7965,2.8429,2.8759,2.8441,2.8726,2.8894,2.8481,2.8287,2.8157,2.7973,2.7842,2.7723,2.7709,2.7456,2.7268,2.7268,2.7523,2.759,2.7268,2.7053,2.6905,2.6714,2.6396,2.6213,2.6213,2.5828,2.5606,2.5606,2.5382,2.5312,2.5312,2.5182,2.5182,2.7683,0.0,2.7988,2.9519,2.9742,2.9938,0.0,0.0,0.0,0.0,0.0,0.0,0.0,0.0,3.1856,3.1948,3.1802,3.1654,3.1654,0.0,0.0,0.0,0.0,0.0,0.0,0.0,0.0,0.0,0.0,2.6351,2.5988,2.5879,2.5784,2.5605,2.5757,2.5839,2.5934,2.5879,2.5879,2.5879,2.5988,2.6111,2.6218,2.6218,2.6218,0.0,0.0,0.0,2.634,2.6418,2.6457,2.651,2.651,2.651,2.651,2.651,2.651,2.651,2.651,2.6457,2.6404,2.6457,2.6365,2.6286,2.6394,2.6621,2.6779,2.663,2.6578,2.6525,2.6433,2.6806,2.7164,2.7164,2.7526,2.7811,2.7811,2.8074,2.827,2.8061,2.8374,2.8534,2.8343,2.8206,2.8039,2.7973,2.7723,2.7523,2.7469,2.7268,2.7134,2.6985,2.6863,2.6794,2.6739,2.685,2.6918,2.6863,2.6726,2.6589,2.6521,2.6339,2.6213,2.6213,2.598,2.5758,2.5606,2.5535,2.5453,2.5312,2.5241,2.5241,2.7324,2.7378,2.7801,2.9277,2.9574,2.9868,3.1364,0.0,0.0,0.0,0.0,0.0,0.0,0.0,0.0,0.0,3.1671,0.0,0.0,0.0,0.0,0.0,0.0,0.0,0.0,0.0,0.0,0.0,0.0,2.6042,2.5743,2.5647,2.5522,2.5257,2.5257,2.53,2.5397,2.5397,2.5342,2.5286,2.5342,2.5453,2.5619,2.5619,2.5619,0.0,0.0,0.0,2.5674,2.577,2.5797,2.592,2.6174,2.6287,2.6315,2.6582,2.668,2.668,2.668,2.668,2.668,2.6694,2.6722,2.6736,2.6863,2.7045,2.7154,2.6826,2.674,2.6757,2.6904,2.723,2.7485,2.7485,2.7706,2.7963,2.7917,2.816,2.8274,2.8008,2.8072,2.8105,2.7908,2.7723,2.7523,2.7323,2.7121,2.6998,2.693,2.6807,2.6739,2.6589,2.6589,2.6589,2.6533,2.6589,2.6589,2.6589,2.6521,2.6533,2.6533,2.6396,2.627,2.6213,2.6062,2.591,2.5758,2.5758,2.5606,2.5465,2.5465,2.5382,2.7053,2.7316,2.7924,2.9161,2.9472,2.9868,3.1455,0.0,0.0,0.0,0.0,0.0,0.0,3.1856,0.0,0.0,0.0,0.0,0.0,0.0,0.0,0.0,0.0,0.0,0.0,0.0,0.0,0.0,0.0,2.5907,2.5494,2.5494,2.5369,2.5005,2.5005,2.4948,2.4948,2.4948,2.4892,2.4721,2.4721,2.4778,2.4948,2.4948,2.5003,2.5084,0.0,0.0,2.539,2.539,2.542,2.556,2.6109,2.6257,2.6311,2.6791,2.6909,2.6909,2.6969,2.6969,2.6982,2.6996,2.7129,2.7248,2.7409,2.7468,2.7384,2.7099,2.7017,2.7131,2.7446,2.7611,2.7666,2.7666,2.787,2.805,2.789,2.8015,2.8039,2.7776,2.7643,2.7523,2.7268,2.7201,2.7066,2.6726,2.6658,2.6658,2.6533,2.6533,2.6533,2.6533,2.6533,2.6533,2.6533,2.6533,2.6533,2.6533,2.6533,2.6533,2.6533,2.6533,2.6396,2.627,2.627,2.6131,2.598,2.598,2.5828,2.5688,2.5688,2.5535,2.6758,2.7451,2.8371,2.9197,2.9403,2.9833,3.1455,0.0,0.0,0.0,0.0,0.0,0.0,0.0,0.0,0.0,0.0,0.0,0.0,0.0,0.0,0.0,0.0,0.0,0.0,0.0,0.0,0.0,0.0,2.5798,2.5494,2.5494,2.5369,2.5005,2.4892,2.4778,2.4677,2.4677,2.4549,2.435,2.435,2.4478,2.4677,2.4677,2.4887,2.5354,0.0,2.5635,2.6149,2.6149,2.6149,2.6149,2.6243,2.6222,2.6065,2.6144,2.6171,2.6171,2.6342,2.6404,2.6417,2.6356,2.6356,2.6417,2.6417,2.643,2.6511,2.685,2.7026,2.7138,2.6936,2.721,2.7591,2.7466,2.7736,2.7971,2.7841,2.7591,2.7469,2.7403,2.7121,2.685,2.6782,2.6726,2.6589,2.6521,2.6521,2.6521,2.6533,2.6533,2.6533,2.6533,2.6533,2.6533,2.6533,2.6533,2.6533,2.6533,2.6533,2.6533,2.6533,2.6533,2.6465,2.6465,2.6465,2.6327,2.6131,2.6131,2.6062,2.5828,2.5828,2.5758,2.6657,2.7403,2.8374,2.9144,2.9747,3.0402,3.1541,0.0,0.0,0.0,0.0,0.0,0.0,0.0,0.0,0.0,0.0,0.0,0.0,0.0,0.0,0.0,0.0,0.0,0.0,0.0,0.0,0.0,0.0,0.0,2.5494,2.5369,2.5244,2.5005,2.4892,2.4721,2.462,2.4492,2.4376,2.4203,2.4203,2.4432,2.4807,2.4807,2.5123,2.5603,0.0,2.5748,2.5998,2.5998,2.5998,2.6087,2.6403,2.6409,2.6257,2.644,2.6622,2.6687,2.6674,2.6739,2.6868,2.6804,2.6804,2.6804,2.6868,2.6933,2.6921,2.7066,2.7099,2.7015,2.7096,2.7311,2.751,2.7445,2.7525,2.759,2.7377,2.7188,2.693,2.6863,2.6726,2.6589,2.6589,2.6521,2.6533,2.6533,2.6533,2.6533,2.6533,2.6533,2.6533,2.6533,2.6533,2.6533,2.6533,2.6533,2.6533,2.6533,2.6533,2.6533,2.6533,2.6533,2.6533,2.6533,2.6533,2.6465,2.6339,2.6339,2.627,2.6062,2.6062,2.591,2.679,2.7571,2.8579,2.9348,0.0,3.0886,3.1627,0.0,0.0,0.0,0.0,0.0,0.0,0.0,0.0,0.0,0.0,0.0,0.0,0.0,0.0,0.0,0.0,0.0,0.0,0.0,0.0,0.0,0.0,0.0,2.5494,2.53,2.5118,2.5005,2.4835,2.4677,2.462,2.4376,2.4203,2.4112,2.4243,2.4543,2.4975,2.5105,2.5484,2.602,2.602,2.6099,2.6216,2.6216,2.6216,2.6269,2.67,2.6752,2.6554,2.6857,2.7011,2.7134,2.7011,2.7079,2.7214,2.7201,2.7134,2.7201,2.7255,2.7268,2.7255,2.7134,2.6945,2.6909,2.7285,2.7403,2.7403,2.7323,2.7255,2.7134,2.6918,2.6782,2.6589,2.6521,2.6533,2.6533,2.6533,2.6533,2.6533,2.6533,2.6533,2.6533,2.6533,2.6533,2.6533,2.6533,2.6533,2.6533,2.6533,2.6533,2.6533,2.6533,2.6533,2.6533,2.6533,2.6533,2.6533,2.6533,2.6533,2.6533,2.6533,2.6533,2.6396,2.627,2.627,2.605,2.7289,2.8351,2.9365,3.0153,3.0501,0.0,3.1627,3.1709,0.0,3.1617,0.0,0.0,0.0,0.0,0.0,0.0,0.0,0.0,0.0,0.0,0.0,0.0,0.0,0.0,0.0,0.0,0.0,0.0,0.0,0.0,2.5494,2.53,2.5118,2.5005,2.4721,2.462,2.462,2.4287,2.4112,2.4125,2.4661,2.4996,2.5048,2.5524,2.6073,2.6621,2.6621,2.6922,2.7406,2.7406,2.7406,2.7406,2.7458,2.7217,2.696,2.6782,2.6726,2.6794,2.6943,2.7024,2.7011,2.6794,2.6714,2.6726,2.6589,2.6602,2.6602,2.6533,2.6564,2.6607,2.693,2.7011,2.7011,2.6794,2.6726,2.6726,2.6602,2.6521,2.6533,2.6533,2.6533,2.6533,2.6533,2.6533,2.6533,2.6533,2.6533,2.6533,2.6533,2.6533,2.6533,2.6533,2.6533,2.6533,2.6533,2.6533,2.6533,2.6533,2.6533,2.6533,2.6533,2.6533,2.6533,2.6533,2.6533,2.6533,2.6533,2.6533,2.6465,2.6465,2.6465,2.6327,2.749,2.8774,3.0067,3.0341,3.0934,0.0,0.0,3.1765,0.0,0.0,0.0,0.0,0.0,0.0,0.0,0.0,0.0,0.0,0.0,0.0,0.0,0.0,0.0,0.0,0.0,0.0,0.0,0.0,0.0,0.0,2.5494,2.5244,2.5061,2.5005,2.4721,2.462,2.462,2.4642,2.4648,2.4648,2.4857,2.5279,2.5856,2.6077,2.6414,2.6891,2.7011,2.7207,2.7403,2.7469,2.7469,2.7335,2.6973,2.6701,2.6577,2.6465,2.6452,2.6496,2.6658,2.6726,2.6794,2.6658,2.6589,2.6589,2.6521,2.6533,2.6533,2.6533,2.6533,2.6533,2.6671,2.6671,2.6671,2.6589,2.6589,2.6589,2.6533,2.6533,2.6533,2.6533,2.6533,2.6533,2.6533,2.6533,2.6533,2.6533,2.6533,2.6533,2.6533,2.6533,2.6533,2.6533,2.6533,2.6533,2.6533,2.6396,2.6339,2.6339,2.6396,2.6533,2.6533,2.6533,2.6533,2.6533,2.6533,2.6533,2.6533,2.6533,2.6533,2.6533,2.6533,2.6327,2.8172,2.9296,3.0387,0.0,0.0,0.0,3.1856,0.0,0.0,0.0,0.0,0.0,0.0,0.0,0.0,0.0,0.0,0.0,0.0,0.0,0.0,0.0,0.0,0.0,0.0,0.0,0.0,0.0,0.0,0.0,0.0,2.5244,2.5061,2.5005,2.4778,2.47,2.4829,2.5005,2.5205,2.5572,2.5449,2.5803,2.6375,2.6477,2.664,2.6943,2.6985,2.6985,2.7053,2.7108,2.7053,2.6918,2.6358,2.6151,2.6151,2.5898,2.5955,2.6151,2.6164,2.6314,2.6452,2.6396,2.6396,2.6396,2.6465,2.6533,2.6533,2.6533,2.6533,2.6533,2.6533,2.6533,2.6533,2.6533,2.6533,2.6533,2.6533,2.6533,2.6533,2.6533,2.6533,2.6533,2.6533,2.6533,2.6533,2.6533,2.6533,2.6533,2.6533,2.6533,2.6533,2.6533,2.6533,2.6465,2.6396,2.6201,2.6062,2.591,2.5968,2.6094,2.6314,2.6327,2.6327,2.6327,2.6327,2.6327,2.6327,2.6327,2.6327,2.6327,2.6327,2.6176,2.9521,2.9998,3.0394,0.0,0.0,0.0,3.1894,0.0,0.0,0.0,0.0,0.0,0.0,0.0,0.0,0.0,0.0,0.0,0.0,0.0,0.0,0.0,0.0,0.0,0.0,0.0,0.0,0.0,0.0,0.0,0.0,2.53,2.5118,2.5005,2.4892,2.5016,2.5428,2.5263,2.5722,2.6674,2.6492,2.6375,2.6388,2.6608,2.6714,2.6658,2.6496,2.6414,2.6414,2.6414,2.6289,2.6164,2.5746,2.5606,2.5535,2.5158,2.5241,2.5606,2.5606,2.5688,2.591,2.6131,2.6201,2.6201,2.6465,2.6533,2.6533,2.6533,2.6533,2.6533,2.6533,2.6533,2.6533,2.6533,2.6533,2.6533,2.6533,2.6533,2.6533,2.6533,2.6533,2.6533,2.6533,2.6533,2.6533,2.6533,2.6533,2.6533,2.6533,2.6533,2.6533,2.6533,2.6465,2.6396,2.6213,2.5992,2.5688,2.5312,2.5087,2.5241,2.5828,2.591,2.591,2.591,2.591,2.591,2.591,2.591,2.591,2.591,2.591,2.591,2.9503,3.0253,0.0,3.1389,0.0,0.0,0.0,0.0,0.0,0.0,0.0,0.0,0.0,0.0,0.0,0.0,0.0,0.0,0.0,0.0,0.0,0.0,0.0,0.0,0.0,0.0,0.0,0.0,0.0,0.0,0.0,2.53,2.5118,2.5005,2.4892,2.5016,2.5428,2.5659,2.6054,2.6674,2.6775,2.6755,2.662,2.6433,2.6082,2.5734,2.5804,2.5734,2.5652,2.5652,2.5594,2.5523,2.4874,2.4731,2.4802,2.4515,2.4587,2.4814,2.4933,2.5087,2.5312,2.5535,2.5758,2.605,2.6201,2.6396,2.6533,2.6533,2.6533,2.6533,2.6533,2.6533,2.6533,2.6533,2.6533,2.6533,2.6533,2.6533,2.6533,2.6533,2.6533,2.6533,2.6533,2.6533,2.6533,2.6533,2.6533,2.6533,2.6533,2.6396,2.627,2.627,2.605,2.5816,2.5606,2.5229,2.4874,2.4587,2.4311,2.4455,2.5016,2.5087,2.5087,2.5087,2.5087,2.5087,2.5087,2.5087,2.5087,2.5087,2.5087,2.5087,2.9945,3.056,0.0,3.1368,3.1559,3.1746,3.18,0.0,0.0,0.0,0.0,0.0,0.0,0.0,0.0,0.0,0.0,0.0,0.0,0.0,0.0,0.0,0.0,0.0,0.0,0.0,0.0,0.0,0.0,0.0,0.0,2.5411,2.5244,2.5061,2.5121,2.5293,2.5775,2.6175,2.6566,2.7027,2.6992,2.6875,2.6577,2.6164,2.5664,2.517,2.5111,2.4969,2.4897,2.4754,2.4671,2.4599,2.3936,2.379,2.3863,2.3644,2.379,2.402,2.4154,2.4299,2.4599,2.4802,2.517,2.5606,2.591,2.6188,2.6396,2.6465,2.6533,2.6533,2.6533,2.6533,2.6533,2.6533,2.6533,2.6533,2.6533,2.6533,2.6533,2.6533,2.6533,2.6533,2.6533,2.6533,2.6533,2.6533,2.6396,2.6327,2.6258,2.6119,2.591,2.5758,2.5535,2.5241,2.5016,2.4587,2.4227,2.3863,2.3582,2.3508,2.3779,2.407,2.4299,2.4299,2.4299,2.4299,2.4299,2.4299,2.4299,2.4299,2.4299,2.4299,3.0526,0.0,0.0,3.1235,3.1466,0.0,3.1763,0.0,3.1837,0.0,0.0,0.0,0.0,0.0,0.0,0.0,0.0,0.0,0.0,0.0,0.0,0.0,0.0,0.0,0.0,0.0,0.0,0.0,0.0,0.0,0.0,2.5592,2.5425,2.523,2.5472,2.5828,2.6294,2.6691,2.7092,2.7469,2.7146,2.6726,2.6358,2.5804,2.5312,2.4874,2.4322,2.4116,2.4127,2.3897,2.3666,2.3446,2.3075,2.2927,2.2927,2.2703,2.2927,2.3224,2.3224,2.3446,2.3824,2.4082,2.4432,2.4945,2.5382,2.584,2.6201,2.6396,2.6465,2.6533,2.6533,2.6533,2.6533,2.6533,2.6533,2.6533,2.6533,2.6533,2.6533,2.6533,2.6533,2.6465,2.6465,2.6465,2.6465,2.6383,2.6258,2.6062,2.584,2.5606,2.5382,2.4945,2.4862,2.4731,2.4371,2.4032,2.3604,2.3224,2.2852,2.2553,2.2327,2.3075,2.3519,2.3519,2.3519,2.3519,2.3519,2.3519,2.3519,2.3519,2.3446,2.3446,3.0189,3.0526,0.0,0.0,3.1389,3.1634,3.1763,3.18,3.18,0.0,0.0,0.0,0.0,0.0,0.0,0.0,0.0,0.0,0.0,0.0,0.0,0.0,0.0,0.0,0.0,0.0,0.0,0.0,0.0,0.0,2.5729,2.5592,2.5425,2.523,2.5472,2.5828,2.6294,2.6691,2.7026,0.0,2.693,2.6521,2.5968,2.5523,2.4886,2.4105,2.3813,2.3666,2.3446,2.3298,2.3075,2.2852,2.2478,2.2402,2.2478,2.2327,2.2402,2.2628,2.2628,2.2777,2.3001,2.3361,2.3813,2.425,2.4945,2.5382,2.5828,2.6131,2.6396,2.6533,2.6533,2.6533,2.6533,2.6533,2.6533,2.6533,2.6533,2.6533,2.6533,2.6533,2.6533,2.6465,2.627,2.627,2.6131,2.5828,2.5758,2.5606,2.5229,2.5016,2.4791,2.4432,2.4093,2.3728,2.3361,2.3075,2.2777,2.2402,2.2252,2.2101,2.1959,2.2402,2.2628,2.2628,2.2628,2.2628,2.2628,2.2628,2.2628,2.2628,2.2478,2.2478,2.987,0.0,0.0,3.1095,0.0,3.1504,3.1671,3.1709,3.1709,0.0,0.0,0.0,0.0,0.0,0.0,0.0,0.0,0.0,0.0,0.0,0.0,0.0,0.0,0.0,0.0,0.0,0.0,0.0,0.0,2.5893,2.5784,2.5592,2.5563,2.5782,2.595,2.6256,2.6734,2.705,2.7157,2.7121,2.6714,2.6094,2.5348,2.4981,2.4394,2.3751,2.3519,2.3372,2.315,2.2852,2.2628,2.2553,2.2101,2.2025,2.2101,2.2035,2.2025,2.2101,2.2101,2.2252,2.2478,2.2628,2.315,2.374,2.4311,2.4886,2.5382,2.591,2.6188,2.6339,2.6339,2.6339,2.6327,2.6258,2.6396,2.6533,2.6533,2.6396,2.6339,2.6339,2.6188,2.6037,2.591,2.5758,2.5535,2.5241,2.5087,2.4957,2.4527,2.4299,2.4009,2.3497,2.3287,2.3075,2.2777,2.2553,2.2327,2.2101,2.2025,2.1883,2.1807,2.2035,2.2101,2.2101,2.2101,2.2101,2.1959,2.1959,2.1959,2.1807,2.1731,2.1731,2.9589,0.0,3.0477,3.1055,3.1252,0.0,3.1542,3.1617,0.0,0.0,0.0,0.0,0.0,0.0,0.0,0.0,0.0,0.0,0.0,0.0,0.0,0.0,0.0,0.0,0.0,0.0,0.0,0.0,0.0,2.5893,2.5893,2.5647,2.5784,2.6378,2.6484,2.6711,2.7213,2.738,2.7323,2.6905,2.6289,2.5548,2.4718,2.4345,2.397,2.3604,2.3446,2.3224,2.2927,2.2553,2.2402,2.2327,2.1949,2.1807,2.1807,2.1807,2.1807,2.1807,2.1807,2.1883,2.2025,2.2111,2.2553,2.315,2.3666,2.4238,2.4945,2.5535,2.591,2.6062,2.6062,2.605,2.598,2.5758,2.5955,2.6245,2.6314,2.6188,2.6062,2.5992,2.5688,2.5394,2.5382,2.5028,2.4731,2.4504,2.436,2.4166,2.374,2.3519,2.3224,2.2628,2.2628,2.2478,2.2327,2.2101,2.2025,2.2025,2.1883,2.1807,2.1731,2.1731,2.1731,2.1731,2.1731,2.1655,2.1425,2.1425,2.1359,2.1205,2.1128,2.1128,0.0,0.0,3.0733,0.0,3.1346,3.15,0.0,0.0,0.0,0.0,0.0,0.0,0.0,0.0,0.0,0.0,0.0,0.0,0.0,0.0,0.0,0.0,0.0,0.0,0.0,0.0,0.0,0.0,2.5893,2.5893,2.5893,2.5647,2.5784,2.6378,2.6484,2.6711,2.7213,2.738,2.7188,2.6483,2.5477,2.4861,2.4502,2.4273,2.397,2.3593,2.3593,2.3224,2.2703,2.2478,2.2327,2.2101,2.1883,2.1807,2.1807,2.1807,2.1807,2.1807,2.1807,2.1807,2.1883,2.2025,2.2176,2.2402,2.315,2.3666,2.4177,2.4945,2.5241,2.5453,2.5606,2.5382,2.5158,2.5158,2.5004,2.5075,2.5606,2.5688,2.5606,2.5241,2.4874,2.4587,2.4443,2.4166,2.3886,2.3519,2.3446,2.3298,2.2927,2.2852,2.2628,2.2262,2.2176,2.2101,2.1883,2.1883,2.1807,2.1807,2.1807,2.1731,2.1578,2.1502,2.1436,2.1282,2.1425,2.1436,2.1205,2.1205,2.1205,2.1205,2.0984,2.0906,2.9059,2.9826,3.0485,0.0,3.1072,3.1269,3.1389,0.0,0.0,0.0,0.0,0.0,0.0,0.0,0.0,0.0,0.0,0.0,0.0,0.0,0.0,0.0,0.0,0.0,0.0,0.0,0.0,0.0,2.5893,2.5893,2.5893,2.6064,2.6368,2.6862,2.7141,2.7444,2.7693,2.7538,2.6905,2.5791,2.4981,2.4502,2.4345,2.4273,2.4043,2.3751,2.3677,2.3372,2.3001,2.2553,2.2327,2.2252,2.1959,2.1807,2.1807,2.1807,2.1807,2.1807,2.1807,2.1807,2.1807,2.1883,2.2025,2.2176,2.2777,2.3224,2.3666,2.4394,2.4671,2.4874,2.4957,2.4802,2.4504,2.4383,2.4238,2.4166,2.4311,2.4671,2.4814,2.4311,2.402,2.3728,2.3423,2.3287,2.315,2.2852,2.2777,2.2703,2.2402,2.2327,2.2252,2.1949,2.1949,2.1883,2.1807,2.1807,2.1731,2.1655,2.1655,2.1502,2.1359,2.1359,2.1205,2.1061,2.1205,2.1205,2.1061,2.1061,2.0974,2.0886,2.0731,2.0731,0.0,0.0,3.0172,3.051,3.0855,3.1095,0.0,0.0,0.0,0.0,0.0,0.0,0.0,0.0,0.0,0.0,0.0,0.0,0.0,0.0,0.0,0.0,0.0,0.0,0.0,0.0,0.0,0.0,2.6034,2.6132,2.6132,2.6595,2.7037,2.7409,2.7742,2.7963,2.8079,2.7456,2.6483,2.5312,2.4694,2.4345,2.42,2.42,2.4116,2.397,2.3677,2.353,2.3224,2.2628,2.2402,2.2327,2.1959,2.1807,2.1807,2.1807,2.1807,2.1807,2.1807,2.1807,2.1807,2.1807,2.1883,2.2111,2.2478,2.2777,2.315,2.3751,2.4032,2.4154,2.4166,2.4009,2.379,2.3593,2.3446,2.3298,2.3298,2.3655,2.3936,2.3446,2.3224,2.2927,2.2628,2.2553,2.2478,2.2252,2.2252,2.2176,2.2025,2.2025,2.1959,2.1807,2.1807,2.1807,2.1807,2.1731,2.1655,2.1502,2.1425,2.1359,2.1138,2.1128,2.1111,2.0987,2.1143,2.1093,2.0819,2.0819,2.0741,2.0566,2.0566,2.0566,0.0,2.9241,0.0,3.0225,0.0,0.0,0.0,0.0,0.0,0.0,0.0,0.0,0.0,0.0,0.0,0.0,0.0,0.0,0.0,0.0,0.0,0.0,0.0,0.0,0.0,0.0,0.0,0.0,2.6427,2.6764,2.6764,2.7225,2.7676,2.8132,2.7961,2.7963,2.8079,2.6688,2.5721,2.5312,2.4539,2.42,2.42,2.42,2.4189,2.4189,2.3751,2.353,2.3224,2.2628,2.2402,2.2327,2.1959,2.1807,2.1807,2.1807,2.1807,2.1807,2.1807,2.1807,2.1807,2.1807,2.1807,2.1883,2.2101,2.2252,2.2553,2.2927,2.3075,2.315,2.3298,2.3075,2.2777,2.2777,2.2628,2.2628,2.315,2.3001,2.2777,2.2777,2.2553,2.2402,2.2176,2.2101,2.2025,2.1883,2.1807,2.1807,2.1807,2.1807,2.1807,2.1807,2.1807,2.1807,2.1807,2.1655,2.1502,2.1502,2.1359,2.1138,2.0906,2.0906,2.1026,2.1191,2.1201,2.0996,2.0644,2.0644,2.0644,2.0566,2.0566,2.0566,0.0,0.0,0.0,2.9585,3.0081,3.0452,0.0,0.0,0.0,0.0,0.0,0.0,0.0,0.0,0.0,0.0,0.0,0.0,0.0,0.0,0.0,0.0,0.0,0.0,0.0,0.0,0.0,0.0,0.0,2.6989,2.7411,2.7956,2.8256,2.8344,2.8547,2.8356,2.7736,2.6688,2.5931,2.5312,2.4694,2.4345,2.42,2.42,2.42,2.4189,2.374,2.353,2.3446,2.2703,2.2402,2.2327,2.1959,2.1807,2.1807,2.1807,2.1807,2.1807,2.1807,2.1807,2.1807,2.1807,2.1807,2.1807,2.2025,2.2176,2.2252,2.2553,2.2628,2.2628,2.2703,2.2553,2.2252,2.2176,2.2101,2.2101,2.2327,2.2327,2.2327,2.2327,2.2176,2.1949,2.1959,2.1883,2.1873,2.1807,2.1807,2.1807,2.1807,2.1807,2.1807,2.1807,2.1807,2.1807,2.1807,2.1655,2.1436,2.1359,2.1128,2.0896,2.0731,2.0938,2.1154,2.123,2.1514,2.1572,2.1416,2.1416,2.1416,2.1416,2.1416,2.1416,2.7004,0.0,0.0,0.0,0.0,2.9924,3.0081,0.0,0.0,0.0,0.0,0.0,0.0,0.0,0.0,0.0,0.0,0.0,0.0,0.0,0.0,0.0,0.0,0.0,0.0,0.0,0.0,0.0,0.0,0.0,2.8057,2.8661,2.8862,2.8649,2.8815,2.8444,2.7523,2.6769,2.6,2.5312,2.4766,2.4418,2.42,2.42,2.42,2.4189,2.374,2.3593,2.3519,2.2777,2.2478,2.2402,2.2035,2.1883,2.1807,2.1807,2.1807,2.1807,2.1807,2.1807,2.1807,2.1807,2.1807,2.1807,2.1949,2.2035,2.2035,2.2176,2.2176,2.2176,2.2176,2.2101,2.1959,2.1807,2.1807,2.1807,2.1807,2.1883,2.2035,2.2035,2.1883,2.1807,2.1807,2.1807,2.1807,2.1807,2.1807,2.1807,2.1807,2.1807,2.1807,2.1807,2.1807,2.1807,2.1807,2.1578,2.1359,2.1205,2.1035,2.0968,2.0791,2.1211,2.1523,2.166,2.1943,2.2168,2.2305,2.2021,2.1885,2.1885,2.1885,2.1885,0.0,0.0,0.0,0.0,0.0,0.0,2.9705,0.0,0.0,0.0,0.0,0.0,0.0,0.0,0.0,0.0,0.0,0.0,0.0,0.0,0.0,0.0,0.0,0.0,0.0,0.0,0.0,0.0,2.8163,2.8703,2.8717,2.9279,2.9477,2.9099,2.878,2.8262,2.7523,2.6769,2.6,2.5312,2.4766,2.4418,2.42,2.42,2.42,2.4189,2.3751,2.3604,2.3519,2.2927,2.2553,2.2402,2.2176,2.1959,2.1807,2.1807,2.1807,2.1807,2.1807,2.1807,2.1807,2.1807,2.1807,2.1807,2.1807,2.1807,2.1807,2.1807,2.1807,2.1807,2.1807,2.1807,2.1807,2.1807,2.1807,2.1807,2.1807,2.1807,2.1807,2.1807,2.1807,2.1807,2.1807,2.1807,2.1807,2.1807,2.1807,2.1807,2.1807,2.1807,2.1807,2.1807,2.1807,2.1807,2.1807,2.1446,2.1225,2.1225,2.1253,2.125,2.125,2.167,2.21,2.251,2.2519,2.2734,2.3135,2.2324,2.1924,2.1924,2.1924,2.1924,2.5204,0.0,0.0,0.0,0.0,0.0,0.0,0.0,0.0,0.0,0.0,0.0,0.0,0.0,0.0,0.0,0.0,0.0,0.0,0.0,0.0,0.0,0.0,0.0,0.0,0.0,0.0,0.0,2.8717,2.8886,2.9336,2.9518,2.9477,2.9099,2.8881,2.8352,2.7523,2.6769,2.6,2.5312,2.4766,2.4418,2.42,2.42,2.42,2.42,2.3897,2.3751,2.3519,2.2927,2.2553,2.2402,2.2176,2.1959,2.1807,2.1807,2.1807,2.1807,2.1807,2.1807,2.1807,2.1807,2.1807,2.1807,2.1807,2.1807,2.1807,2.1807,2.1807,2.1807,2.1807,2.1807,2.1807,2.1807,2.1807,2.1807,2.1807,2.1807,2.1807,2.1807,2.1807,2.1807,2.1807,2.1807,2.1807,2.1807,2.1807,2.1807,2.1807,2.1807,2.1807,2.1807,2.1807,2.1807,2.1807,2.172,2.1599,2.1599,2.1698,2.1709,2.1709,2.2109,2.2393,2.251,2.2812,2.3027,2.3135,2.291,2.2793,2.2793,2.2793,2.2793,0.0,0.0,0.0,0.0,0.0,0.0,2.7834,2.8352,2.8795,0.0,0.0,0.0,0.0,0.0,0.0,0.0,0.0,0.0,0.0,0.0,0.0,0.0,0.0,0.0,0.0,2.952,2.9474,2.9464,2.9217,2.9237,2.9588,2.9602,2.9477,2.9099,2.8881,2.8352,2.7377,2.6701,2.6,2.5158,2.4694,2.4418,2.42,2.42,2.42,2.42,2.397,2.3824,2.3593,2.315,2.2703,2.2402,2.2252,2.2025,2.1807,2.1807,2.1807,2.1807,2.1807,2.1807,2.1807,2.1807,2.1807,2.1807,2.1807,2.1807,2.1807,2.1807,2.1807,2.1807,2.1807,2.1807,2.1807,2.1807,2.1807,2.1807,2.1807,2.1807,2.1807,2.1807,2.1807,2.1807,2.1807,2.1807,2.1807,2.1807,2.1807,2.1807,2.1807,2.1807,2.188,2.2076,2.2097,2.2092,2.22,2.2139,2.205,2.198,2.207,2.2148,2.2148,2.2549,2.2773,2.2773,2.3018,2.3135,2.3135,2.3135,2.3135,2.3135,2.3135,2.3135,0.0,0.0,0.0,0.0,0.0,0.0,2.6805,2.7333,2.7849,2.8255,2.8559,0.0,0.0,0.0,0.0,0.0,0.0,0.0,0.0,0.0,0.0,0.0,0.0,0.0,3.0479,3.0278,3.0001,2.9726,2.9661,2.9602,2.9602,2.9602,2.9477,2.9099,2.8881,2.8274,2.7229,2.662,2.5931,2.5004,2.4622,2.4345,2.42,2.42,2.42,2.42,2.397,2.3824,2.3604,2.3372,2.2927,2.2402,2.2402,2.2176,2.1807,2.1807,2.1807,2.1807,2.1807,2.1807,2.1807,2.1807,2.1807,2.1807,2.1807,2.1807,2.1807,2.1807,2.1807,2.1807,2.1807,2.1807,2.1807,2.1807,2.1807,2.1807,2.1807,2.1807,2.1807,2.1807,2.1807,2.1807,2.1807,2.1807,2.1807,2.1807,2.1807,2.1807,2.1807,2.1849,2.2035,2.2449,2.2542,2.258,2.2808,2.2645,2.2439,2.2274,2.2428,2.2578,2.2578,2.2939,2.3135,2.3135,2.3135,2.3135,2.3135,2.3135,2.3135,2.3135,2.3135,2.3135,0.0,0.0,0.0,0.0,0.0,0.0,2.5591,2.6133,2.6663,0.0,2.7515,0.0,0.0,0.0,0.0,0.0,0.0,0.0,0.0,0.0,0.0,0.0,0.0,0.0,3.1166,3.1065,3.0764,3.0199,2.9842,2.9602,2.9602,2.9602,2.9477,2.9099,2.878,2.8183,2.7229,2.6414,2.5639,2.5016,2.4467,2.4273,2.42,2.42,2.42,2.42,2.4127,2.397,2.3593,2.353,2.3075,2.2402,2.2402,2.2176,2.1807,2.1807,2.1807,2.1807,2.1807,2.1807,2.1807,2.1807,2.1807,2.1807,2.1807,2.1807,2.1807,2.1807,2.1807,2.1807,2.1807,2.1807,2.1807,2.1807,2.1807,2.1807,2.1807,2.1807,2.1807,2.1807,2.1807,2.1807,2.1807,2.1807,2.1807,2.1807,2.1807,2.1807,2.1807,2.2128,2.2397,2.248,2.2662,2.2747,2.2839,2.2762,2.271,2.272,2.2859,2.3018,2.3018,2.3096,2.3135,2.3135,2.3135,2.3135,2.3135,2.3135,2.3135,2.3135,2.3135,2.3135,0.0,0.0,0.0,2.2274,0.0,0.0,0.0,2.46,2.5218,2.5658,2.6158,2.6649,2.6909,0.0,0.0,0.0,0.0,0.0,0.0,0.0,0.0,0.0,0.0,0.0,3.1656,3.1285,3.0718,3.0021,2.9727,2.9602,2.9602,2.9602,2.9477,2.9099,2.8702,2.8039,2.7095,2.6208,2.5453,2.4897,2.4406,2.42,2.42,2.42,2.42,2.42,2.42,2.397,2.3593,2.3593,2.315,2.2402,2.2402,2.2176,2.1807,2.1807,2.1807,2.1807,2.1807,2.1807,2.1807,2.1807,2.1807,2.1807,2.1807,2.1807,2.1807,2.1807,2.1807,2.1807,2.1807,2.1807,2.1807,2.1807,2.1807,2.1807,2.1807,2.1807,2.1807,2.1807,2.1807,2.1807,2.1807,2.1807,2.1807,2.1807,2.2004,2.2149,2.2149,2.2553,2.2925,2.2991,2.3053,2.3185,2.3157,2.3133,2.308,2.2994,2.3018,2.3135,2.3135,2.3135,2.3135,2.3135,2.3135,2.3135,2.3135,2.2969,2.2969,2.3135,2.2969,2.2969,0.0,0.0,0.0,0.0,0.0,2.2089,0.0,0.0,0.0,2.4187,2.477,0.0,0.0,0.0,0.0,0.0,0.0,0.0,0.0,0.0,0.0,0.0,0.0,0.0,3.1766,3.1087,3.0297,2.9665,2.9602,2.9602,2.954,2.954,2.9352,2.8958,2.8495,2.7829,2.6905,2.6013,2.5336,2.479,2.4418,2.42,2.42,2.42,2.42,2.42,2.4127,2.397,2.3593,2.353,2.3075,2.2402,2.2402,2.2176,2.1807,2.1807,2.1807,2.1807,2.1807,2.1807,2.1807,2.1807,2.1807,2.1807,2.1807,2.1807,2.1807,2.1807,2.1807,2.1807,2.1807,2.1807,2.1807,2.1807,2.1807,2.1807,2.1807,2.1807,2.1807,2.1807,2.1807,2.1807,2.1807,2.188,2.1932,2.1932,2.2335,2.2625,2.2546,2.2948,2.3289,2.3398,2.352,2.3458,2.3474,2.3406,2.3319,2.3135,2.3135,2.3135,2.3135,2.3135,2.3047,2.3057,2.3057,2.2969,2.2882,2.2706,2.2794,2.296,2.2794,2.2627,0.0,0.0,0.0,0.0,2.0409,0.0,0.0,0.0,2.2652,2.2942,0.0,0.0,0.0,0.0,0.0,0.0,0.0,0.0,0.0,0.0,0.0,0.0,0.0,0.0,0.0,3.0418,2.9822,2.9602,2.9602,2.954,2.9415,2.9415,2.9085,2.8417,2.817,2.7497,2.6483,2.5873,2.5336,2.479,2.4418,2.42,2.42,2.42,2.42,2.42,2.397,2.3824,2.3604,2.3372,2.3001,2.2402,2.2402,2.2176,2.1807,2.1807,2.1807,2.1807,2.1807,2.1807,2.1807,2.1807,2.1807,2.1807,2.1807,2.1807,2.1807,2.1807,2.1807,2.1807,2.1807,2.1807,2.1807,2.1807,2.1807,2.1807,2.1807,2.1807,2.1807,2.1807,2.1807,2.1807,2.1807,2.2149,2.2418,2.2418,2.2811,2.302,2.2767,2.3165,2.3388,2.3271,2.3368,2.3541,2.3493,2.3319,2.3135,2.3135,2.3135,2.3135,2.3135,2.3135,2.3057,2.2794,2.2803,2.2618,2.2185,2.2185,2.2274,2.2441,2.2264,2.1998,0.0,0.0,0.0,0.0,0.0,0.0,2.0302,0.0,2.1439,0.0,0.0,0.0,0.0,0.0,0.0,0.0,2.6162,0.0,0.0,0.0,2.9366,0.0,0.0,0.0,0.0,0.0,0.0,0.0,2.9477,2.9415,2.9226,2.9035,2.8702,2.8157,2.7643,2.7095,2.6414,2.5652,2.5111,2.479,2.4418,2.42,2.42,2.42,2.42,2.42,2.397,2.3824,2.3604,2.3224,2.2852,2.2402,2.2252,2.2025,2.1807,2.1807,2.1807,2.1807,2.1807,2.1807,2.1807,2.1807,2.1807,2.1807,2.1807,2.1807,2.1807,2.1807,2.1807,2.1807,2.1807,2.1807,2.1807,2.1807,2.1807,2.1807,2.1807,2.1807,2.1807,2.1807,2.2025,2.2123,2.1957,2.2288,2.2505,2.2683,2.2951,2.3081,2.2812,2.3033,2.3226,2.2967,2.3037,2.3057,2.3057,2.2882,2.2794,2.2882,2.2969,2.2882,2.2706,2.2882,2.2803,2.2362,2.2362,2.2176,2.1722,2.1544,2.1266,2.0979,2.1266,2.1186,1.7432,0.0,0.0,0.0,0.0,0.0,0.0,0.0,0.0,0.0,0.0,0.0,0.0,0.0,0.0,0.0,0.0,2.6074,0.0,0.0,0.0,0.0,0.0,0.0,0.0,0.0,0.0,2.9212,2.9212,2.9149,2.8894,2.8573,2.8118,2.7643,2.7108,2.6633,2.622,2.537,2.4957,2.479,2.4418,2.42,2.42,2.42,2.42,2.42,2.3897,2.3751,2.3593,2.3075,2.2703,2.2402,2.2176,2.1959,2.1807,2.1807,2.1807,2.1807,2.1807,2.1807,2.1807,2.1807,2.1807,2.1807,2.1807,2.1807,2.1807,2.1807,2.1807,2.1807,2.1807,2.1807,2.1807,2.1807,2.1807,2.1807,2.1807,2.1807,2.1807,2.1731,2.2102,2.2364,2.2169,2.2461,2.2816,2.2808,2.2992,2.3028,2.2761,2.2766,2.2696,2.253,2.253,2.253,2.253,2.2353,2.2264,2.2451,2.253,2.2441,2.2176,2.2362,2.2264,2.182,2.182,2.1544,2.0907,2.0718,2.0266,1.953,2.0266,2.0365,0.0,0.0,0.0,1.7373,0.0,0.0,0.0,0.0,2.0492,0.0,0.0,0.0,0.0,0.0,0.0,0.0,0.0,0.0,0.0,0.0,0.0,0.0,0.0,0.0,0.0,2.8573,2.8702,2.8803,2.8803,2.8675,2.8352,2.8039,2.751,2.6782,2.6496,2.6151,2.5606,2.5229,2.4957,2.479,2.4418,2.42,2.42,2.42,2.42,2.4189,2.3751,2.3604,2.3519,2.2927,2.2553,2.2402,2.2176,2.1959,2.1807,2.1807,2.1807,2.1807,2.1807,2.1807,2.1807,2.1807,2.1807,2.1807,2.1807,2.1807,2.1807,2.1807,2.1807,2.1807,2.1807,2.1807,2.1807,2.1807,2.1807,2.1807,2.1807,2.1807,2.1731,2.1578,2.1859,2.2139,2.2187,2.2865,2.3314,2.2904,2.2928,2.295,2.2501,2.2236,2.2069,2.1731,2.1741,2.1741,2.1741,2.1731,2.1741,2.1731,2.1741,2.1731,2.1741,2.1731,2.1553,2.1087,2.1087,2.0546,1.9637,1.9646,1.9271,1.8535,1.9271,1.9271,0.0,0.0,1.6621,1.6691,0.0,0.0,0.0,0.0,0.0,0.0,0.0,0.0,0.0,0.0,0.0,0.0,0.0,0.0,0.0,0.0,0.0,0.0,0.0,0.0,0.0,0.0,0.0,2.8091,2.8222,2.8091,2.763,2.7242,2.685,2.6371,2.6013,2.5816,2.5606,2.5123,2.4849,2.479,2.4418,2.42,2.42,2.42,2.42,2.4189,2.374,2.3593,2.3519,2.2777,2.2402,2.2176,2.1807,2.1578,2.1436,2.1731,2.1807,2.1807,2.1807,2.1807,2.1807,2.1655,2.1578,2.1578,2.1578,2.1578,2.1578,2.1578,2.1578,2.1578,2.1578,2.1578,2.1655,2.1807,2.1731,2.1578,2.1578,2.1502,2.1349,2.1108,2.1551,2.1843,2.1486,2.2092,2.2553,2.2573,2.2328,2.1971,2.1535,2.0988,2.0718,2.0736,2.0637,2.0628,2.0907,2.0997,2.0916,2.0744,2.0916,2.0916,2.0744,2.0916,2.0736,2.0283,2.0283,1.992,1.9096,1.9096,1.8735,1.7994,1.8272,1.8179,1.5141,1.5497,0.0,1.5921,1.6768,0.0,1.8103,0.0,0.0,0.0,0.0,0.0,0.0,0.0,0.0,0.0,0.0,0.0,0.0,2.3621,0.0,0.0,0.0,0.0,0.0,0.0,2.7149,2.7297,2.7364,2.7229,0.0,0.0,2.6164,2.5873,2.5606,2.5465,2.5394,2.4992,2.479,2.4718,2.4345,2.42,2.42,2.42,2.4127,2.4043,2.374,2.353,2.3446,2.2703,2.2252,2.2025,2.1578,2.1205,2.1051,2.1425,2.1655,2.1655,2.1655,2.1655,2.1655,2.1436,2.1349,2.1272,2.1185,2.1195,2.1195,2.1195,2.1195,2.1195,2.1195,2.1262,2.1339,2.1415,2.1415,2.1272,2.1272,2.1041,2.0799,2.0557,2.1018,2.1265,2.0838,2.1355,2.19,2.1998,2.1624,2.1168,2.0817,2.0085,1.9729,1.992,1.9637,1.9629,1.9911,2.0002,1.9911,1.9737,1.992,1.9911,1.9745,1.992,1.982,1.9371,1.9371,1.9104,1.8365,1.8365,1.8087,1.7535,1.7535,1.7535]},{"header":{"parameterUnit":"m.s-1","parameterCategory":1,"la1":30.6,"la2":29.2853,"lo1":-89.7004,"lo2":-87.6739,"dy":0.0162,"dx":0.0183,"nx":112,"ny":82,"refTime":"2023-07-21T00:00:00:Z","depth":0,"parameterNumber":3,"parameterNumberName":"V-component_of_WINDS"},"data":[0.0,0.0,0.0,0.0,0.0,0.0,0.0,0.0,0.0,0.0,0.0,0.0,0.0,0.0,0.0,0.0,0.0,0.0,0.0,0.0,0.0,0.0,0.0,0.0,0.0,0.0,0.0,0.0,0.0,0.0,0.0,0.0,0.0,0.0,0.0,0.0,0.0,0.0,0.0,0.0,0.0,0.0,0.0,0.0,0.0,0.0,0.0,0.0,0.0,0.0,0.0,0.0,0.0,0.0,0.0,0.0,0.0,0.0,0.0,0.0,0.0,0.0,0.0,0.0,0.0,0.0,0.0,0.0,0.0,0.0,0.0,0.0,0.0,0.0,0.0,0.0,0.0,0.0,0.0,0.0,0.0,0.0,0.0,0.0,0.0,0.0,0.0,0.0,0.0,0.0,-0.9666,-1.0174,-1.0702,-1.1124,-1.1318,-1.1124,-1.1074,-1.1175,0.0,0.0,0.0,0.0,0.0,0.0,0.0,0.0,0.0,0.0,0.0,0.0,0.0,0.0,0.0,0.0,0.0,0.0,0.0,0.0,0.0,0.0,0.0,0.0,0.0,0.0,0.0,0.0,0.0,0.0,0.0,0.0,0.0,0.0,0.0,0.0,0.0,0.0,0.0,0.0,0.0,0.0,0.0,0.0,0.0,0.0,0.0,0.0,0.0,0.0,0.0,0.0,0.0,0.0,0.0,0.0,0.0,0.0,0.0,0.0,0.0,0.0,0.0,0.0,0.0,0.0,0.0,0.0,0.0,0.0,0.0,0.0,0.0,0.0,0.0,0.0,0.0,0.0,0.0,0.0,0.0,0.0,0.0,0.0,0.0,0.0,0.0,0.0,0.0,0.0,0.0,0.0,0.0,0.0,0.0,0.0,0.0,0.0,0.0,0.0,0.0,0.0,0.0,0.0,-1.0226,-1.1006,-1.1368,-1.1528,-1.1477,-1.1418,-1.1477,-1.1628,0.0,0.0,0.0,0.0,0.0,0.0,0.0,0.0,0.0,0.0,0.0,0.0,0.0,0.0,0.0,0.0,0.0,0.0,0.0,0.0,0.0,0.0,0.0,0.0,0.0,0.0,0.0,0.0,0.0,0.0,0.0,0.0,0.0,0.0,0.0,0.0,0.0,0.0,0.0,0.0,0.0,0.0,0.0,0.0,0.0,0.0,0.0,0.0,0.0,0.0,0.0,0.0,0.0,0.0,0.0,0.0,0.0,0.0,0.0,0.0,0.0,0.0,0.0,0.0,0.0,0.0,0.0,0.0,0.0,0.0,0.0,0.0,0.0,0.0,0.0,0.0,0.0,0.0,0.0,0.0,0.0,0.0,0.0,0.0,0.0,0.0,0.0,0.0,0.0,0.0,0.0,0.0,0.0,0.0,0.0,0.0,0.0,0.0,0.0,0.0,0.0,0.0,0.0,-1.0592,-1.115,-1.1678,-1.1778,-1.1769,-1.1628,-1.1678,-1.1769,-1.1927,-1.2058,0.0,0.0,0.0,0.0,0.0,0.0,0.0,0.0,0.0,0.0,0.0,0.0,0.0,0.0,0.0,0.0,0.0,0.0,0.0,0.0,0.0,0.0,0.0,0.0,0.0,0.0,0.0,0.0,0.0,0.0,0.0,0.0,0.0,0.0,0.0,0.0,0.0,0.0,0.0,0.0,0.0,0.0,0.0,0.0,0.0,0.0,0.0,0.0,0.0,0.0,0.0,0.0,0.0,0.0,0.0,0.0,0.0,0.0,0.0,0.0,0.0,0.0,0.0,0.0,0.0,0.0,0.0,0.0,0.0,0.0,0.0,0.0,0.0,0.0,0.0,0.0,0.0,0.0,0.0,0.0,0.0,0.0,0.0,0.0,0.0,0.0,0.0,0.0,0.0,0.0,0.0,0.0,0.0,0.0,0.0,0.0,0.0,0.0,0.0,0.0,0.0,0.0,-1.1678,-1.1927,-1.2175,-1.2126,-1.2026,-1.1877,-1.1977,-1.2126,-1.2264,-1.2686,0.0,0.0,0.0,0.0,0.0,0.0,0.0,0.0,0.0,0.0,0.0,0.0,0.0,0.0,0.0,0.0,0.0,0.0,0.0,0.0,0.0,0.0,0.0,0.0,0.0,0.0,0.0,0.0,0.0,0.0,0.0,0.0,0.0,0.0,0.0,0.0,0.0,0.0,0.0,0.0,0.0,0.0,0.0,0.0,0.0,0.0,0.0,0.0,0.0,0.0,0.0,0.0,0.0,0.0,0.0,0.0,0.0,0.0,0.0,0.0,0.0,0.0,0.0,0.0,0.0,0.0,0.0,0.0,0.0,0.0,0.0,0.0,0.0,0.0,0.0,0.0,0.0,0.0,0.0,0.0,0.0,0.0,0.0,0.0,0.0,0.0,0.0,0.0,0.0,0.0,0.0,0.0,0.0,0.0,0.0,0.0,0.0,0.0,0.0,0.0,0.0,0.0,-1.2076,-1.2323,-1.248,-1.2578,-1.2529,-1.2274,-1.248,-1.2657,-1.2774,-1.3122,0.0,0.0,0.0,0.0,0.0,0.0,0.0,0.0,0.0,0.0,0.0,0.0,0.0,0.0,0.0,0.0,0.0,0.0,0.0,0.0,0.0,0.0,0.0,0.0,0.0,0.0,0.0,0.0,0.0,0.0,0.0,0.0,0.0,0.0,0.0,0.0,0.0,0.0,0.0,0.0,0.0,0.0,0.0,0.0,0.0,0.0,0.0,0.0,0.0,0.0,0.0,0.0,0.0,0.0,0.0,0.0,0.0,0.0,0.0,0.0,0.0,0.0,0.0,0.0,0.0,0.0,0.0,0.0,0.0,0.0,0.0,0.0,0.0,0.0,0.0,0.0,0.0,0.0,0.0,0.0,0.0,0.0,0.0,0.0,0.0,0.0,0.0,0.0,0.0,0.0,0.0,0.0,0.0,0.0,0.0,0.0,0.0,0.0,0.0,0.0,0.0,0.0,-1.289,-1.3045,0.0,-1.3094,-1.289,-1.2638,-1.2842,-1.3035,-1.3064,0.0,0.0,0.0,0.0,0.0,0.0,0.0,0.0,0.0,0.0,0.0,0.0,0.0,0.0,0.0,0.0,0.0,0.0,0.0,0.0,0.0,0.0,0.0,0.0,0.0,0.0,0.0,0.0,0.0,0.0,0.0,0.0,0.0,0.0,0.0,0.0,0.0,0.0,0.0,0.0,0.0,0.0,0.0,0.0,0.0,0.0,0.0,0.0,0.0,0.0,0.0,0.0,0.0,0.0,0.0,0.0,0.0,0.0,0.0,0.0,0.0,0.0,0.0,0.0,0.0,0.0,0.0,0.0,0.0,0.0,0.0,0.0,0.0,0.0,0.0,0.0,0.0,0.0,0.0,0.0,0.0,0.0,0.0,0.0,0.0,0.0,0.0,0.0,0.0,0.0,0.0,0.0,0.0,0.0,0.0,0.0,0.0,0.0,0.0,0.0,0.0,0.0,-1.3399,-1.3647,-1.3752,0.0,-1.3647,-1.3457,-1.3198,-1.3362,-1.3457,-1.3505,0.0,0.0,0.0,0.0,0.0,0.0,0.0,0.0,0.0,0.0,0.0,0.0,0.0,0.0,0.0,0.0,0.0,0.0,0.0,0.0,0.0,0.0,0.0,0.0,0.0,0.0,0.0,0.0,0.0,0.0,0.0,0.0,0.0,0.0,0.0,0.0,0.0,0.0,0.0,0.0,0.0,0.0,0.0,0.0,0.0,0.0,0.0,0.0,0.0,0.0,0.0,0.0,0.0,0.0,0.0,0.0,0.0,0.0,0.0,0.0,0.0,0.0,0.0,0.0,0.0,0.0,0.0,0.0,0.0,0.0,0.0,0.0,0.0,0.0,0.0,0.0,0.0,0.0,0.0,0.0,0.0,0.0,0.0,0.0,0.0,0.0,0.0,0.0,0.0,0.0,0.0,0.0,0.0,0.0,0.0,0.0,0.0,0.0,0.0,0.0,0.0,0.0,-1.4129,-1.4326,-1.4419,-1.4419,-1.428,-1.4165,-1.4025,-1.3999,-1.4057,0.0,0.0,0.0,0.0,0.0,0.0,0.0,0.0,0.0,0.0,0.0,0.0,0.0,0.0,0.0,0.0,0.0,0.0,0.0,0.0,0.0,0.0,0.0,0.0,0.0,0.0,0.0,0.0,0.0,0.0,0.0,0.0,0.0,0.0,0.0,0.0,0.0,0.0,0.0,0.0,0.0,0.0,0.0,0.0,0.0,0.0,0.0,0.0,0.0,0.0,0.0,0.0,0.0,0.0,0.0,0.0,0.0,0.0,0.0,0.0,0.0,0.0,0.0,0.0,0.0,0.0,0.0,0.0,0.0,0.0,0.0,0.0,0.0,0.0,0.0,0.0,0.0,0.0,0.0,0.0,0.0,0.0,0.0,0.0,0.0,0.0,0.0,0.0,0.0,0.0,0.0,0.0,0.0,0.0,0.0,0.0,0.0,0.0,0.0,0.0,0.0,0.0,0.0,-1.4777,-1.4926,-1.5028,-1.5028,-1.4743,-1.4558,-1.4512,-1.4373,-1.4291,-1.4326,0.0,0.0,0.0,0.0,0.0,0.0,0.0,0.0,0.0,0.0,0.0,0.0,0.0,0.0,0.0,0.0,0.0,0.0,0.0,0.0,0.0,0.0,0.0,0.0,0.0,0.0,0.0,0.0,0.0,0.0,0.0,0.0,0.0,0.0,0.0,0.0,0.0,0.0,0.0,0.0,0.0,0.0,0.0,0.0,0.0,0.0,0.0,0.0,0.0,0.0,0.0,0.0,0.0,0.0,0.0,0.0,0.0,0.0,0.0,0.0,0.0,0.0,0.0,0.0,0.0,0.0,0.0,0.0,0.0,0.0,0.0,0.0,0.0,0.0,0.0,0.0,0.0,0.0,0.0,0.0,0.0,0.0,0.0,0.0,0.0,0.0,0.0,0.0,0.0,0.0,0.0,0.0,0.0,0.0,0.0,0.0,0.0,0.0,0.0,0.0,0.0,0.0,-1.5513,-1.5525,-1.548,-1.548,-1.5165,-1.4937,-1.4937,-1.4933,-1.4904,-1.4904,0.0,0.0,0.0,0.0,0.0,0.0,0.0,0.0,0.0,0.0,0.0,0.0,0.0,0.0,0.0,0.0,0.0,0.0,0.0,0.0,0.0,0.0,0.0,0.0,0.0,0.0,0.0,0.0,0.0,0.0,0.0,0.0,0.0,0.0,0.0,0.0,0.0,0.0,0.0,0.0,0.0,0.0,0.0,0.0,0.0,0.0,0.0,0.0,0.0,0.0,0.0,0.0,0.0,0.0,0.0,0.0,0.0,0.0,0.0,0.0,0.0,0.0,0.0,0.0,0.0,0.0,0.0,0.0,0.0,0.0,0.0,0.0,0.0,0.0,0.0,0.0,0.0,0.0,0.0,0.0,0.0,0.0,0.0,0.0,0.0,0.0,0.0,0.0,0.0,0.0,0.0,0.0,0.0,0.0,0.0,0.0,0.0,0.0,0.0,0.0,0.0,0.0,-1.6262,-1.6086,-1.5921,-1.5981,-1.5666,-1.5497,-1.5497,-1.5693,-1.5813,-1.5813,0.0,0.0,0.0,0.0,0.0,0.0,0.0,0.0,0.0,0.0,0.0,0.0,0.0,0.0,0.0,0.0,0.0,0.0,0.0,0.0,0.0,0.0,0.0,0.0,0.0,0.0,0.0,0.0,0.0,0.0,0.0,0.0,0.0,0.0,0.0,0.0,0.0,0.0,0.0,0.0,0.0,0.0,0.0,0.0,0.0,0.0,0.0,0.0,0.0,0.0,0.0,0.0,0.0,0.0,0.0,0.0,0.0,0.0,0.0,0.0,-1.7797,0.0,0.0,0.0,0.0,0.0,0.0,0.0,0.0,0.0,0.0,0.0,0.0,0.0,0.0,0.0,0.0,0.0,0.0,0.0,0.0,0.0,0.0,0.0,0.0,0.0,0.0,0.0,0.0,0.0,0.0,0.0,0.0,0.0,0.0,0.0,0.0,0.0,0.0,0.0,0.0,0.0,-1.6945,-1.6905,-1.6929,-1.7204,-1.6967,-1.6776,-1.6776,-1.6688,-1.6671,-1.6795,-1.69,0.0,0.0,0.0,0.0,0.0,0.0,0.0,0.0,0.0,0.0,0.0,0.0,0.0,0.0,0.0,0.0,0.0,0.0,0.0,0.0,0.0,0.0,0.0,0.0,0.0,0.0,0.0,0.0,0.0,0.0,0.0,0.0,0.0,0.0,0.0,0.0,0.0,0.0,0.0,0.0,0.0,0.0,0.0,0.0,0.0,0.0,0.0,0.0,0.0,0.0,0.0,0.0,0.0,0.0,0.0,0.0,0.0,0.0,0.0,0.0,-1.8073,0.0,0.0,0.0,0.0,0.0,0.0,0.0,0.0,0.0,0.0,0.0,0.0,0.0,0.0,0.0,0.0,0.0,0.0,0.0,0.0,0.0,0.0,0.0,0.0,0.0,0.0,0.0,0.0,0.0,0.0,0.0,0.0,0.0,0.0,0.0,0.0,0.0,0.0,0.0,0.0,-1.7827,-1.7659,-1.7619,-1.7749,-1.7593,-1.746,-1.746,-1.7541,-1.7635,-1.7723,-1.8063,0.0,0.0,0.0,0.0,0.0,0.0,0.0,0.0,0.0,0.0,0.0,0.0,0.0,0.0,0.0,0.0,0.0,0.0,0.0,0.0,0.0,0.0,0.0,0.0,0.0,0.0,0.0,0.0,0.0,0.0,0.0,0.0,0.0,0.0,0.0,0.0,0.0,0.0,0.0,0.0,0.0,0.0,0.0,0.0,0.0,0.0,0.0,0.0,0.0,0.0,0.0,0.0,0.0,-2.0511,-2.0398,-2.0233,-2.0029,-1.9823,-1.9552,-1.9052,-1.8583,-1.8084,-1.7601,0.0,0.0,0.0,0.0,0.0,0.0,0.0,0.0,0.0,0.0,0.0,0.0,0.0,0.0,0.0,0.0,0.0,0.0,0.0,0.0,0.0,0.0,0.0,0.0,-1.7046,-1.7102,0.0,0.0,0.0,0.0,0.0,0.0,0.0,0.0,0.0,0.0,0.0,0.0,-1.8716,-1.8472,-1.8259,-1.8359,-1.819,-1.8093,-1.8093,-1.8474,-1.872,-1.877,-1.9356,-1.972,0.0,0.0,0.0,0.0,0.0,0.0,0.0,0.0,0.0,0.0,0.0,0.0,0.0,0.0,0.0,0.0,0.0,0.0,0.0,0.0,0.0,0.0,0.0,0.0,0.0,0.0,0.0,0.0,0.0,0.0,0.0,0.0,1.5359,1.6528,0.0,0.0,0.0,0.0,0.0,0.0,0.0,0.0,0.0,0.0,0.0,0.0,0.0,-2.1471,-2.134,-2.1229,-2.1082,-2.0947,-2.0586,-2.0435,-2.0461,-2.0029,-1.9759,-1.9565,-1.9146,0.0,-1.8313,-1.7963,0.0,0.0,0.0,0.0,0.0,0.0,0.0,0.0,0.0,0.0,0.0,0.0,0.0,0.0,0.0,0.0,0.0,0.0,0.0,0.0,0.0,0.0,-1.8829,-1.8963,-1.9124,-1.927,0.0,-1.8376,-1.7567,-1.7725,-1.8247,0.0,0.0,0.0,0.0,0.0,0.0,0.0,-1.9391,-1.9297,-1.9366,-1.9712,-1.9597,-1.9585,-1.9687,-1.9737,-1.9889,-2.0105,-2.0131,-2.0169,-2.0271,-2.0409,0.0,0.0,0.0,0.0,0.0,0.0,0.0,0.0,0.0,0.0,0.0,0.0,0.0,0.0,0.0,0.0,0.0,0.0,0.0,0.0,0.0,0.0,0.0,0.0,0.0,0.0,0.0,0.0,0.0,1.5898,1.7034,1.7699,1.2114,0.5576,0.0,0.0,0.0,0.0,0.0,0.0,0.0,0.0,0.0,-2.2231,-2.1949,-2.1698,-2.152,-2.1471,-2.1277,-2.0997,-2.0673,-2.0422,-2.0347,-1.9862,-1.9617,-1.9473,-1.9146,-1.8839,-1.8583,-1.8073,-1.7843,-1.7744,0.0,0.0,0.0,0.0,-1.744,-1.7335,-1.7259,-1.7143,0.0,-1.7107,0.0,0.0,0.0,0.0,0.0,0.0,0.0,0.0,0.0,0.0,-1.9781,-1.9825,-1.9927,-2.0085,-2.0158,-1.9938,-1.9619,0.0,-1.9442,-1.9632,-1.9734,0.0,0.0,0.0,0.0,-1.9711,-2.0227,-2.0145,-2.0137,-2.0295,-2.0258,-2.0258,-2.0346,-2.0396,-2.0497,-2.061,-2.0623,-2.0686,-2.0723,-2.0772,-2.0921,0.0,0.0,0.0,0.0,0.0,0.0,0.0,0.0,0.0,0.0,0.0,0.0,0.0,0.0,0.0,0.0,0.0,0.0,0.0,0.0,0.0,0.0,0.0,0.0,0.0,0.0,0.0,0.0,1.7357,1.7038,1.5421,1.1036,0.4668,0.0,0.0,0.0,0.0,0.0,0.0,-2.3171,-2.2797,-2.2555,-2.2417,-2.2137,-2.1902,-2.1664,-2.1616,-2.1423,-2.1033,-2.0723,-2.0472,-2.0182,-1.9772,-1.9565,-1.942,-1.9146,-1.8987,-1.8839,-1.829,-1.8127,-1.8127,-1.803,-1.8139,-1.8344,-1.8375,-1.8289,-1.8191,-1.8334,-1.8234,-1.8056,-1.8167,0.0,-1.8435,-1.8729,0.0,0.0,0.0,0.0,-2.0188,-2.034,-2.0603,-2.0823,-2.0881,-2.0953,-2.101,-2.104,-2.1394,-2.1447,0.0,-2.0564,-2.0587,-2.0645,0.0,0.0,0.0,0.0,-2.0492,-2.0904,-2.0858,-2.0759,-2.0759,-2.0709,-2.0723,-2.0759,-2.0858,-2.0908,-2.0957,-2.1019,-2.1033,-2.1033,-2.1082,-2.1229,-2.1471,0.0,0.0,0.0,0.0,0.0,0.0,0.0,0.0,0.0,0.0,0.0,0.0,0.0,0.0,0.0,0.0,0.0,0.0,0.0,0.0,0.0,0.0,0.0,0.0,0.0,0.0,0.0,0.0,0.0,0.8738,0.7936,0.0,0.0,0.0,0.0,-2.324,-2.3494,-2.3319,-2.3275,-2.2873,-2.2555,-2.2417,-2.2137,-2.1949,-2.1793,-2.1664,-2.1471,-2.118,-2.0772,-2.0472,-2.0182,-1.9772,-1.9617,-1.9552,-1.9291,-1.9186,-1.9133,-1.8721,-1.8625,-1.8744,-1.8744,-1.8839,-1.8987,-1.9081,-1.9162,-1.9137,-1.9267,-1.9399,-1.9478,-1.9478,-1.9825,-2.0241,-2.0144,-2.0348,0.0,0.0,-2.108,-2.1535,-2.213,-2.2363,-2.2515,-2.2649,-2.2663,-2.2694,-2.2756,-2.2785,-2.2521,0.0,-2.1601,-2.1899,-2.1899,0.0,-2.1534,-2.1561,-2.1417,-2.1334,-2.1361,-2.1277,-2.118,-2.118,-2.1033,-2.1033,-2.118,-2.118,-2.1229,-2.1361,-2.1277,-2.118,-2.118,-2.1326,-2.1471,-2.1616,-2.1841,0.0,0.0,0.0,0.0,0.0,0.0,0.0,0.0,0.0,0.0,0.0,0.0,0.0,0.0,0.0,0.0,0.0,0.0,0.0,0.0,0.0,0.0,0.0,0.0,0.0,0.0,0.0,0.0,0.7548,-0.0723,0.0,-1.3277,-1.7744,-2.1382,-2.3876,-2.3797,-2.3581,-2.3466,-2.2949,-2.2632,-2.2509,-2.2278,-2.2044,-2.1949,-2.1793,-2.152,-2.1082,-2.0772,-2.0359,-1.9914,-1.9617,-1.9473,-1.9473,-1.9263,-1.9263,-1.9303,-1.9146,-1.9093,-1.904,-1.904,-1.9146,-1.9263,-1.9303,-1.9408,-1.9448,-1.9512,-1.9668,-1.9875,-2.0169,-2.061,-2.1028,-2.1069,-2.1382,-2.1662,-2.1815,-2.2104,-2.2417,-2.2586,-2.2721,-2.2812,-2.2857,-2.2857,-2.2857,-2.2888,-2.2888,-2.2785,-2.2419,-2.2426,-2.2491,-2.2491,-2.2292,-2.2091,-2.1996,-2.1841,-2.1698,-2.1568,-2.1471,-2.1423,-2.1326,-2.1277,-2.1277,-2.1326,-2.1326,-2.1375,-2.1423,-2.1375,-2.1326,-2.1326,-2.1471,-2.1664,-2.1996,-2.2231,-2.2601,0.0,0.0,0.0,0.0,0.0,0.0,0.0,0.0,0.0,0.0,0.0,0.0,0.0,0.0,0.0,0.0,0.0,0.0,0.0,0.0,0.0,0.0,0.0,0.0,0.0,0.0,0.5494,0.0435,-0.8407,-1.5018,-1.7398,-2.1818,-2.4457,-2.4291,-2.3982,-2.3711,-2.3538,-2.3024,-2.2663,-2.2615,-2.2324,-2.2091,-2.1949,-2.1746,-2.141,-2.0934,-2.0623,-2.0207,-1.9798,-1.9512,-1.942,-1.9473,-1.942,-1.9473,-1.9565,-1.9577,-1.9512,-1.9396,-1.9344,-1.9396,-1.9512,-1.9512,-1.9617,-1.9656,-1.972,-1.9875,-2.0131,-2.056,-2.1019,-2.1423,-2.1616,-2.1996,-2.237,-2.2417,-2.2629,-2.2826,-2.2826,-2.2872,-2.2888,-2.2888,-2.2888,-2.2888,-2.2888,-2.2888,-2.2888,-2.2888,-2.2826,-2.2809,-2.2809,-2.2629,-2.2417,-2.2278,-2.2184,-2.2044,-2.1746,-2.1712,-2.1616,-2.1471,-2.1423,-2.1423,-2.1423,-2.1423,-2.1423,-2.1423,-2.1423,-2.1471,-2.1471,-2.1664,-2.1996,-2.2324,-2.2723,-2.3127,-2.3494,0.0,0.0,0.0,0.0,0.0,0.0,0.0,0.0,0.0,0.0,0.0,0.0,0.0,0.0,0.0,0.0,0.0,0.0,0.0,0.0,0.0,0.0,0.0,0.6081,0.6867,0.1438,-1.2818,-1.4603,-1.7387,-2.4335,-2.4766,-2.4605,-2.4539,-2.4094,-2.3739,-2.3638,-2.3068,-2.2663,-2.2615,-2.2217,-2.1949,-2.1793,-2.152,-2.1215,-2.0795,-2.0372,-2.0067,-1.9798,-1.9512,-1.9473,-1.9617,-1.9759,-1.9798,-1.9798,-1.9926,-1.9926,-1.9798,-1.9656,-1.9708,-1.9798,-1.9798,-1.9798,-1.9811,-1.9978,-2.0093,-2.0271,-2.0709,-2.1104,-2.1471,-2.1746,-2.2184,-2.2615,-2.2615,-2.2752,-2.2888,-2.2888,-2.2888,-2.2888,-2.2888,-2.2888,-2.2888,-2.2888,-2.2888,-2.2888,-2.2888,-2.2872,-2.2795,-2.2795,-2.2675,-2.2555,-2.2417,-2.2417,0.0,-2.2044,-2.1888,-2.1746,-2.1616,-2.1471,-2.1423,-2.1423,-2.1423,-2.1423,-2.1423,-2.152,-2.1616,-2.1616,-2.1996,-2.2324,-2.2601,-2.3304,-2.3696,-2.3839,0.0,0.0,0.0,0.0,0.0,0.0,0.0,0.0,0.0,0.0,0.0,0.0,0.0,0.0,0.0,0.0,0.0,0.0,0.0,0.0,0.0,0.0,-0.2892,-0.0708,-0.5097,-1.0066,-1.4105,-1.9272,-2.3243,-2.5112,-2.5224,-2.5107,-2.495,-2.4589,-2.4245,-2.3994,-2.3436,-2.2994,-2.2663,-2.231,-2.2044,-2.1793,-2.1423,-2.1118,-2.0795,-2.0372,-2.0067,-1.9798,-1.9512,-1.9473,-1.9617,-1.9565,-1.9604,-1.9798,-1.9862,-1.9759,-1.9656,-1.9708,-1.9747,-1.9798,-1.9798,-1.9862,-1.9978,-2.022,-2.0536,-2.0835,-2.1118,-2.1554,-2.1996,-2.2091,-2.2385,-2.2749,-2.2749,-2.2826,-2.2888,-2.2888,-2.2888,-2.2888,-2.2888,-2.2888,-2.2888,-2.2888,-2.2888,-2.2888,-2.2888,-2.2902,-2.2857,-2.2857,-2.2781,-2.2689,-2.2569,-2.237,0.0,-2.1902,-2.1746,-2.1616,-2.1471,-2.1423,-2.1423,-2.1423,-2.1423,-2.1423,-2.1423,-2.152,-2.1664,-2.1746,-2.2137,-2.2646,-2.3246,-2.3668,-2.3967,0.0,0.0,0.0,0.0,0.0,0.0,0.0,0.0,0.0,0.0,0.0,0.0,0.0,0.0,0.0,0.0,0.0,0.0,0.0,0.0,0.0,0.0,-1.5494,-1.2882,-1.2828,-1.3956,-1.597,-1.899,-2.3202,-2.5787,-2.5621,-2.5621,-2.5508,-2.5201,-2.4855,-2.4492,-2.4078,-2.3581,-2.3083,-2.2678,-2.2356,-2.2044,-2.1698,-2.1423,-2.1068,-2.0709,-2.0372,-2.0067,-1.9798,-1.9512,-1.942,-1.9512,-1.946,-1.9565,-1.9656,-1.9708,-1.9604,0.0,0.0,0.0,0.0,0.0,-1.9823,-2.0042,-2.0233,-2.0573,-2.097,-2.1229,-2.1664,-2.2044,-2.2091,-2.2338,-2.2644,-2.2644,-2.2721,-2.2752,-2.2752,-2.2752,-2.2752,-2.2752,-2.2752,-2.2752,-2.2752,-2.2752,-2.2752,-2.2752,-2.2752,0.0,-2.2752,-2.2781,-2.2749,-2.2523,-2.2324,-2.2091,-2.1746,-2.1664,-2.1568,-2.1423,-2.1375,-2.1326,-2.1326,-2.1326,0.0,0.0,0.0,-2.2047,-2.2644,-2.3001,0.0,0.0,0.0,-2.4904,-2.5078,0.0,0.0,0.0,-2.537,-2.5333,0.0,0.0,0.0,0.0,0.0,0.0,0.0,0.0,0.0,0.0,0.0,0.0,0.0,0.0,0.0,0.0,-2.5486,-2.5712,-2.5934,-2.0419,-1.8796,-2.5281,-2.617,-2.617,-2.5954,-2.5934,-2.5787,-2.5355,-2.5029,-2.4574,-2.4067,0.0,0.0,0.0,0.0,-2.2044,-2.1616,-2.1471,-2.1166,-2.066,-2.0372,-2.0067,-1.9811,-1.9512,-1.9368,-1.9368,-1.946,-1.946,-1.9368,-1.946,-1.9396,-1.9186,-1.9448,-1.946,-1.9368,-1.9512,-1.9772,-2.0042,-2.0182,0.0,0.0,-2.118,-2.1568,-2.1902,-2.1996,-2.2231,-2.2417,-2.2417,-2.2509,-2.2615,-2.2615,-2.2615,-2.2615,-2.2615,-2.2615,-2.2555,-2.2555,-2.2555,-2.2555,-2.2555,-2.2555,-2.2555,-2.2555,-2.2629,-2.2644,-2.2417,-2.2231,-2.201,-2.1746,-2.1712,-2.1642,-2.1613,0.0,0.0,-2.143,-2.143,-2.143,-2.148,-2.1966,-2.2824,-2.3963,-2.4288,-2.48,-2.56,-2.5879,-2.6077,-2.6184,-2.6528,-2.6689,-2.6658,-2.5909,-2.5557,0.0,0.0,0.0,0.0,0.0,0.0,0.0,0.0,0.0,0.0,0.0,0.0,0.0,0.0,0.0,-2.5454,-2.577,-2.599,-2.6189,-2.5146,-2.4846,-2.6073,-2.6364,-2.6364,-2.6225,-2.6187,-2.6007,-2.5626,-2.5153,-2.4679,-2.4261,-2.3769,-2.3216,-2.2709,-2.2449,-2.2184,-2.1746,-2.152,-2.1229,-2.0934,0.0,0.0,-1.9926,-1.9448,-1.9239,-1.9239,-1.9052,-1.8999,-1.9093,-1.9093,-1.8999,-1.8893,-1.904,-1.9198,-1.9239,-1.9408,-1.9733,-2.0182,-2.0422,-2.0908,-2.1458,-2.165,-2.1949,-2.2278,-2.2324,-2.2417,0.0,-2.2555,-2.2555,-2.2615,-2.2615,-2.2615,-2.2615,-2.2615,-2.2509,-2.2417,-2.2417,-2.237,-2.2278,-2.2278,-2.2278,-2.2278,-2.2278,-2.2278,-2.2292,-2.2231,-2.1949,-2.1877,-2.2259,-2.2228,-2.2319,-2.2782,-2.2733,-2.2681,-2.2785,-2.2733,-2.2785,-2.3043,-2.3652,-2.4238,-2.4761,-2.5014,-2.5386,-2.5755,-2.594,-2.6077,-2.6184,-2.6528,-2.6689,-2.6673,-2.691,-2.699,0.0,0.0,0.0,0.0,0.0,0.0,0.0,0.0,0.0,0.0,0.0,-2.283,0.0,0.0,-2.4799,-2.5492,-2.5807,-2.6063,-2.6364,-2.6417,-2.6452,-2.6452,-2.6503,-2.6468,-2.633,-2.617,-2.5917,-2.553,-2.5036,-2.4502,-2.3994,-2.348,-2.2949,-2.248,-2.2217,-2.1949,-2.1616,-2.1326,-2.1082,-2.0772,-2.0372,-2.008,-1.9772,-1.9291,-1.904,-1.8987,-1.8786,-1.8732,-1.8774,-1.8614,-1.8616,-1.8684,-1.8716,-1.888,-1.9146,-1.9251,-1.9668,-2.0131,-2.0472,-2.0957,-2.1423,-2.1616,-2.1888,-2.2091,-2.2091,-2.2137,-2.2184,-2.2184,-2.2184,-2.2255,-2.2564,-2.2634,-2.2718,-2.3041,-2.3077,-2.3028,-2.3028,-2.2979,-2.293,-2.293,-2.293,-2.293,-2.293,-2.2817,-2.272,-2.2498,-2.2476,-2.2643,-2.2944,-2.292,-2.3043,-2.3409,-2.3294,-2.3189,-2.3241,-2.3241,-2.3437,-2.3965,-2.4455,-2.4979,-2.5663,-2.5886,-2.6258,-2.6796,-2.694,-2.7098,-2.7177,-2.7504,-2.7688,-2.7749,-2.8094,-2.7949,0.0,0.0,0.0,0.0,0.0,0.0,0.0,0.0,-2.0673,-2.1458,-2.2109,-2.2785,-2.361,-2.4204,-2.4815,-2.5454,-2.577,-2.6043,-2.638,-2.6347,-2.6347,-2.6503,-2.6537,-2.6452,-2.6312,-2.6082,-2.5754,-2.5278,-2.4759,-2.4173,-2.3508,-2.2979,-2.254,-2.2044,-2.1793,-2.1506,-2.1264,-2.0983,-2.0723,-2.0459,-2.008,-1.9772,-1.9408,-1.9148,-1.8941,-1.8736,-1.8709,-1.869,-1.869,-1.8426,-1.8442,-1.869,-1.8563,-1.877,-1.9137,-1.9341,-1.9768,-2.0359,-2.0694,-2.1165,-2.1628,-2.1825,-2.2021,-2.2138,-2.2014,-2.1973,-2.1945,-2.1835,-2.1793,-2.1904,-2.2401,-2.2525,-2.2649,-2.3124,-2.3183,-2.3197,-2.3132,-2.3081,-2.3081,-2.3081,-2.3081,-2.3122,-2.3296,-2.3303,-2.3221,-2.2917,-2.3122,-2.3373,-2.3601,-2.3615,-2.3708,-2.3989,-2.3793,-2.3687,-2.374,-2.3884,-2.4263,-2.4826,-2.5162,-2.5742,-2.6555,-2.6718,-2.7085,-2.7725,-2.7905,-2.8005,-2.8137,-2.8429,-2.8636,-2.8747,-2.8951,-2.8627,-1.5874,-1.6503,-1.7179,-1.7788,-1.829,-1.8774,0.0,0.0,-2.0759,-2.1458,-2.2156,-2.2875,-2.3508,-2.4173,-2.4799,-2.5339,-2.5696,-2.599,-2.6206,-2.6206,-2.6206,-2.6241,-2.6312,-2.6312,-2.6203,-2.5901,-2.5497,-2.4981,-2.4338,-2.3709,-2.3024,-2.2434,-2.1888,-2.152,-2.1251,-2.0944,-2.0709,-2.0523,-2.0258,-1.9901,-1.9708,-1.9356,-1.8917,-1.901,-1.8929,-1.8657,-1.8915,-1.9048,-1.9048,-1.8988,-1.9022,-1.9019,-1.9019,-1.9233,-1.954,-1.9877,-2.0552,-2.1267,-2.1652,-2.2259,-2.2986,-2.3038,-2.318,-2.3289,-2.2774,-2.2594,-2.2484,-2.1945,-2.1793,-2.1821,-2.1876,-2.1904,-2.187,-2.1842,-2.171,-2.1627,-2.148,-2.1381,-2.1282,-2.1282,-2.1282,-2.1506,-2.2167,-2.2692,-2.3134,-2.3289,-2.3134,-2.3272,-2.396,-2.4028,-2.4273,-2.497,-2.5025,-2.5025,-2.5149,-2.556,-2.5952,-2.6256,-2.6688,-2.7056,-2.7282,-2.7419,-2.755,-2.7625,-2.774,-2.7905,-2.8005,-2.8299,-2.8493,-2.8636,-2.8826,-2.898,-1.5758,-1.6161,-1.6616,0.0,-1.7744,-1.829,-1.9093,-1.9747,-2.051,-2.1313,-2.203,-2.2709,-2.3377,-2.3921,-2.4477,0.0,-2.5285,-2.553,-2.5828,-2.6091,-2.6259,-2.6319,-2.6506,-2.6442,-2.5889,-2.5879,-2.5481,-2.4508,-2.3794,-2.3143,-2.2466,-2.1874,-2.1361,-2.097,-2.0987,-2.0914,-2.072,-2.0721,-2.0669,-2.0506,-2.0055,-1.9666,-1.9364,-1.9183,-1.8924,-1.8581,-1.8731,-1.8747,-1.8676,-1.8676,-1.8862,-1.9186,-1.9236,-1.9711,-2.0335,-2.0158,-2.0562,-2.1244,-2.1746,-2.2239,-2.2697,-2.2924,-2.303,-2.3082,-2.2825,-2.2744,-2.269,-2.2447,-2.238,-2.2461,-2.2798,-2.2893,-2.2974,-2.3272,-2.3299,-2.3178,-2.3071,-2.3071,-2.3084,-2.2963,-2.303,-2.3218,-2.3622,-2.3864,-2.4027,-2.3958,-2.4042,-2.4367,-2.4847,-2.4929,-2.508,-2.5536,-2.5674,-2.5729,-2.5825,-2.6042,-2.6365,-2.6645,-2.6937,-2.7196,-2.7401,-2.7437,-2.7539,-2.7625,-2.774,-2.784,-2.7905,-2.8137,-2.8348,-2.8493,-2.8668,-2.8638,-1.5352,-1.57,0.0,-1.6549,-1.7134,-1.7744,-1.8602,-1.9371,-2.0144,-2.1068,-2.1746,-2.2505,-2.3302,-2.382,-2.4295,-2.4782,-2.4905,-2.5004,-2.5075,-2.5462,-2.5723,-2.5717,-2.6184,-2.6158,-2.5233,-2.5493,-2.5215,-2.4053,-2.3231,-2.2523,-2.1939,-2.1394,-2.0987,-2.0772,-2.0866,-2.0878,-2.0782,-2.0778,-2.0803,-2.0746,-2.0158,-1.9807,-1.9643,-1.9302,-1.9083,-1.8978,-1.8978,-1.8978,-1.8843,-1.8843,-1.9122,-1.951,-1.969,-2.0269,-2.0939,-2.0684,-2.0948,-2.1531,-2.2034,-2.2442,-2.2802,-2.3023,-2.3133,-2.3107,-2.2948,-2.2895,-2.2855,-2.2697,-2.2657,-2.275,-2.3228,-2.3334,-2.344,-2.3808,-2.39,-2.3844,-2.366,-2.3774,-2.3844,-2.3717,-2.3887,-2.4123,-2.4453,-2.4536,-2.461,-2.4559,-2.4901,-2.5175,-2.5205,-2.5439,-2.5702,-2.5948,-2.6056,-2.6165,-2.6218,-2.6365,-2.6539,-2.6846,-2.6989,-2.7144,-2.735,-2.735,-2.7386,-2.7473,-2.764,-2.769,-2.774,-2.7989,-2.8094,-2.8071,-2.84,-2.8264,-1.4469,0.0,-1.5342,-1.5816,-1.6492,-1.7279,-1.8124,-1.898,-1.9825,-2.0646,-2.1348,-2.2164,-2.3293,-2.388,-2.4295,-2.4642,-2.4716,-2.4489,-2.3867,-2.4029,-2.4221,-2.4069,-2.4932,-2.5128,0.0,-2.4576,-2.4582,-2.3699,-2.2564,-2.178,-2.1459,-2.104,-2.0932,-2.1169,-2.0949,-2.0791,-2.0803,-2.0505,-2.0274,-2.0111,-1.9772,-1.9477,-1.9201,-1.9313,-1.9585,-1.989,-2.0031,-2.0042,-2.0042,-2.0042,-2.0183,-2.0388,-2.0495,-2.0828,-2.1221,-2.1667,-2.2151,-2.2592,-2.2955,-2.3399,-2.3839,-2.3839,-2.393,-2.3974,-2.3367,-2.3197,-2.308,-2.2463,-2.232,-2.232,-2.2333,-2.2346,-2.2291,-2.2208,-2.2166,-2.2153,-2.2001,-2.2111,-2.2153,-2.2153,-2.2413,-2.2869,-2.3617,-2.3959,-2.4354,-2.5065,-2.5439,-2.5411,-2.4652,-2.5298,-2.5948,-2.6056,-2.6233,-2.6326,-2.6457,-2.6659,-2.6832,-2.7003,-2.7144,-2.7181,-2.7233,-2.7233,-2.7233,-2.7218,-2.7335,-2.7488,-2.7625,-2.7725,-2.7606,-2.7286,-2.804,-2.8122,-1.3571,-1.3923,-1.4341,-1.4805,-1.5497,-1.6291,-1.7235,-1.8112,-1.9076,-2.0263,-2.1069,-2.1867,-2.2957,-2.3459,-2.3745,-2.3865,-2.3724,-2.3449,-2.3021,-2.3308,-2.3489,-2.3332,-2.3933,0.0,0.0,0.0,0.0,-2.2975,-2.2257,-2.172,-2.1348,-2.1167,-2.1002,-2.0917,-2.1156,-2.1304,-2.1198,-2.1284,-2.1329,-2.128,-2.0715,-2.0205,-1.9827,-1.9748,-1.9717,-1.9736,-1.9868,-1.9944,-1.9933,-2.0053,-2.0248,-2.0582,-2.0711,-2.1083,-2.16,-2.1975,-2.2235,-2.2531,-2.2957,-2.333,-2.3582,-2.37,-2.3747,-2.3754,-2.3515,-2.3451,-2.3412,-2.3219,-2.3167,-2.3167,-2.3167,-2.3167,-2.3167,-2.311,-2.3122,-2.3065,-2.289,-2.3135,-2.3308,-2.3308,-2.3625,-2.4003,-2.4498,-2.4693,-2.4984,-2.5467,-2.5729,-2.5714,-2.545,-2.5875,-2.6165,-2.6111,-2.6233,-2.634,-2.6379,-2.6447,-2.6553,-2.6645,-2.6736,-2.6855,-2.7041,-2.7041,-2.7093,-2.7181,-2.7233,-2.7335,-2.7488,-2.7575,-2.762,-2.7606,-2.7947,-2.7883,-1.2528,-1.2956,-1.339,-1.3795,-1.456,-1.5439,-1.6348,-1.7378,-1.8437,-1.9672,-2.0439,-2.1272,-2.2356,-2.2734,-2.287,-2.2884,-2.252,-2.213,-2.1588,-2.166,-2.1719,-2.1574,-2.206,-2.229,0.0,0.0,0.0,-2.2099,-2.1562,-2.1212,-2.108,-2.0989,-2.0993,-2.0962,-2.1296,-2.1474,-2.1425,-2.1623,-2.1663,-2.1537,-2.1031,-2.0571,-2.0096,-2.0064,-1.9998,-1.9791,-2.0064,-2.0205,-2.0194,-2.0259,-2.0442,-2.0711,-2.0903,-2.1285,-2.1737,-2.2061,-2.2309,-2.2482,-2.2848,-2.303,-2.3163,-2.333,-2.333,-2.339,-2.339,-2.3437,-2.3437,-2.3437,-2.3437,-2.3437,-2.3437,-2.3437,-2.3437,-2.3437,-2.3509,-2.3509,-2.3403,-2.37,-2.4008,-2.4041,-2.4363,-2.4765,-2.5005,-2.523,-2.5508,-2.5784,-2.5893,-2.5948,-2.5893,-2.6111,-2.6233,-2.6111,-2.6233,-2.6286,-2.6286,-2.6286,-2.6326,-2.6418,-2.6418,-2.6539,-2.6817,-2.6817,-2.687,-2.7026,-2.7078,-2.7196,-2.7248,-2.7386,-2.7405,-2.7394,-2.7735,-2.7625,-1.1421,-1.1919,-1.2482,-1.2834,-1.3674,-1.4647,-1.5526,-1.6742,-1.7908,-1.8783,-1.9587,-2.037,0.0,0.0,-2.1756,-2.1636,-2.1211,-2.0606,-1.9691,-1.934,-1.9115,0.0,0.0,0.0,0.0,0.0,0.0,-2.1056,0.0,-2.0252,-2.0572,-2.0607,-2.0777,-2.121,-2.1336,-2.1388,-2.1388,-2.1388,-2.1198,-2.0903,-2.0786,-2.0518,-2.0107,-2.0335,-2.0259,-2.0107,-2.0529,-2.0669,-2.0669,-2.0733,-2.0786,-2.0967,-2.1158,-2.1423,-2.1761,-2.2073,-2.2247,-2.242,-2.2555,-2.2678,-2.2739,-2.2848,-2.2909,-2.2909,-2.3017,-2.3078,-2.3078,-2.3078,-2.3078,-2.3078,-2.3078,-2.3138,-2.3138,-2.3138,-2.3271,-2.3403,-2.3403,-2.376,-2.4157,-2.4305,-2.4708,-2.5061,-2.523,-2.5508,-2.5784,-2.6056,-2.6056,-2.6002,-2.5893,-2.6002,-2.6111,-2.6056,-2.6179,-2.6233,-2.6233,-2.6286,-2.6286,-2.6286,-2.6286,-2.6326,-2.6457,-2.651,-2.6578,-2.6779,-2.6899,-2.7003,-2.7003,-2.7144,-2.7009,-2.6662,-2.7275,-2.7394,-1.0485,-1.0926,-1.1365,-1.1787,-1.2642,-1.3683,-1.4808,-1.5897,-1.7021,-1.8411,-1.9131,-1.9733,0.0,0.0,0.0,-2.0344,-1.9823,0.0,-1.9029,-1.8553,0.0,-1.862,0.0,-1.8742,-1.8968,-1.9257,0.0,0.0,-2.012,-2.0351,-2.0422,-2.0699,-2.0957,-2.1158,-2.1221,-2.1221,-2.1221,-2.1221,-2.1158,-2.0903,-2.0711,-2.0518,-2.0335,-2.0205,-2.014,-2.014,-2.0335,-2.054,-2.0733,-2.0786,-2.1031,-2.1273,-2.1336,-2.1486,-2.1698,-2.1824,-2.1824,-2.1886,-2.1949,-2.2247,-2.2678,-2.2739,-2.2739,-2.2739,-2.28,-2.28,-2.28,-2.2909,-2.2969,-2.2969,-2.3078,-2.321,-2.333,-2.333,-2.3582,-2.3772,-2.3772,-2.4041,-2.4305,-2.4607,-2.5118,-2.5564,-2.5729,-2.5729,-2.5729,-2.5784,-2.5702,-2.5757,-2.6002,-2.6002,-2.5893,-2.5784,-2.5743,-2.5702,-2.5702,-2.5798,-2.5893,-2.6002,-2.6111,-2.6218,-2.6326,-2.6326,-2.6433,-2.6578,-2.663,-2.675,-2.7003,-2.7055,-2.7056,-2.7033,-2.7312,-2.7449,-0.9658,-1.0168,-1.0681,-1.1115,-1.1981,-1.3046,-1.4276,-1.538,-1.6461,-1.7897,-1.8441,0.0,-1.928,-1.9191,0.0,0.0,0.0,0.0,-1.825,-1.7816,-1.7507,0.0,-1.782,0.0,-1.8304,-1.8762,-1.9131,0.0,-1.9726,-2.0118,-2.0183,-2.0388,-2.0582,-2.0711,-2.0914,-2.1042,-2.1094,-2.1042,-2.0914,-2.0786,-2.0582,-2.0464,-2.041,-2.0281,-2.0216,-2.0205,0.0,-2.0604,-2.0733,-2.0786,-2.0903,-2.1094,-2.1146,-2.1285,-2.1498,-2.1561,-2.1624,-2.1698,-2.1698,-2.1949,-2.2321,-2.2432,-2.2506,-2.2494,-2.269,-2.269,-2.2739,-2.2848,-2.2969,-2.303,-2.321,-2.339,-2.3641,-2.3641,-2.3865,-2.4099,-2.4099,-2.4319,-2.4593,-2.4892,-2.53,-2.5647,-2.5688,-2.5633,-2.5633,-2.5633,-2.555,-2.5605,-2.5812,-2.5743,-2.5702,-2.5633,-2.5536,-2.5494,-2.5494,-2.5592,-2.5633,-2.5688,-2.5853,-2.6002,-2.6111,-2.6179,-2.6272,-2.6418,-2.6691,-2.6957,-2.72,-2.749,-2.7715,-2.793,-2.8089,-2.8233,-0.8952,-0.9594,-1.0301,-1.0681,-1.1527,-1.264,-1.3987,-1.5069,-1.6132,-1.7212,0.0,-1.7901,-1.7978,-1.7706,-1.7501,-1.7569,0.0,-1.7314,-1.747,-1.7187,-1.6949,-1.7064,-1.7327,-1.7635,-1.7845,-1.8715,-1.9198,-1.9198,-1.9539,-1.9802,-1.9868,-2.0074,-2.0151,-2.0205,-2.0529,-2.0786,-2.0903,-2.0786,-2.0669,-2.0669,-2.054,-2.041,-2.041,-2.041,-2.041,-2.0346,-2.054,0.0,-2.0669,-2.0669,-2.0669,-2.0733,-2.0839,-2.1031,-2.1221,-2.1336,-2.1549,-2.1698,-2.1698,-2.1698,-2.1761,-2.2073,-2.2185,-2.2247,-2.2555,-2.2678,-2.2739,-2.2848,-2.303,-2.3198,-2.3403,-2.37,-2.3936,-2.3936,-2.4144,-2.435,-2.435,-2.4593,-2.4892,-2.5174,-2.5369,-2.5494,-2.5494,-2.5494,-2.5439,-2.5439,-2.5439,-2.5439,-2.5439,-2.5439,-2.5439,-2.5439,-2.5439,-2.5439,-2.5439,-2.5439,-2.5439,-2.5439,-2.5578,-2.5771,-2.5965,-2.6075,-2.6281,-2.6475,-2.707,-2.7453,-2.7564,-2.811,-2.8553,-2.8849,-2.9002,-2.9167,-0.8823,-0.9338,-0.9779,-1.0491,-1.144,-1.2618,-1.3794,-1.4962,0.0,0.0,-1.7042,-1.7226,-1.695,-1.6682,-1.6612,-1.6742,-1.6742,-1.689,-1.7401,-1.7235,-1.7292,0.0,-1.8087,-1.8267,-1.8787,-1.942,0.0,0.0,0.0,-2.0248,-1.9933,-2.0205,-2.0464,-2.0775,-2.0839,-2.0903,-2.0903,-2.0786,-2.0669,-2.0669,-2.0669,-2.054,-2.041,-2.041,-2.0281,-2.014,-2.0216,0.0,-2.0475,-2.0475,-2.0593,-2.0839,-2.0903,-2.1083,-2.14,-2.1388,-2.1549,-2.1698,-2.1698,-2.1698,-2.1761,-2.1874,-2.2061,-2.2247,-2.242,-2.2555,-2.2739,-2.3017,-2.321,-2.3403,-2.37,-2.4041,-2.4247,-2.4247,-2.4478,-2.4721,-2.4721,-2.4948,-2.5118,-2.5174,-2.5369,-2.5494,-2.5494,-2.5369,-2.5244,-2.5244,-2.5188,-2.5075,-2.5075,-2.5174,-2.5244,-2.5244,-2.5174,-2.5075,-2.5075,-2.5188,-2.5244,-2.5244,-2.5425,-2.5771,-2.627,-2.644,-2.6834,-2.7454,-2.7711,-2.7954,-2.8097,-2.8268,-2.844,-2.8497,-2.8931,-2.9098,-0.8635,-0.9081,-0.9652,-1.0174,-1.1162,-1.2385,-1.3555,0.0,0.0,0.0,-1.6621,-1.6682,-1.6473,-1.6342,0.0,-1.6533,-1.6742,-1.7028,-1.7461,-1.762,0.0,-1.824,-1.8415,-1.8695,0.0,-1.9539,-1.9868,0.0,0.0,-2.0518,-2.0259,-2.07,-2.1019,-2.1336,-2.1262,-2.1262,-2.1336,-2.1158,-2.1031,-2.0978,-2.0978,-2.085,-2.0658,-2.0658,-2.0593,-2.041,-2.041,0.0,-2.054,-2.054,-2.0658,-2.0903,-2.1031,-2.1273,-2.1588,-2.1651,-2.18,-2.1949,-2.1949,-2.1949,-2.1999,-2.2235,-2.2235,-2.2247,-2.2543,-2.2739,-2.286,-2.315,-2.345,-2.3688,-2.3949,-2.4274,-2.4536,-2.4536,-2.4721,-2.4892,-2.4892,-2.5005,-2.5118,-2.5118,-2.5188,-2.5257,-2.5257,-2.5188,-2.5118,-2.5118,-2.5061,-2.5005,-2.5005,-2.5005,-2.5005,-2.5118,-2.5061,-2.5005,-2.5005,-2.5061,-2.5254,-2.5554,-2.5709,-2.6098,-2.6703,-2.682,-2.7076,-2.7426,-2.7939,-2.8285,-2.8477,-2.8893,-2.9242,-2.9419,-2.9711,-2.9943,-0.8641,-0.9081,-0.967,-1.0053,-1.1064,-1.2292,-1.3467,-1.4503,0.0,-1.614,-1.6342,-1.6342,-1.6342,0.0,-1.6342,0.0,-1.689,-1.7245,-1.747,-1.794,-1.8269,0.0,-1.8674,0.0,-1.9351,-1.9539,0.0,0.0,0.0,0.0,-2.0764,-2.1273,-2.1651,-2.1788,-2.1765,-2.1827,-2.1839,-2.1651,-2.1537,-2.1423,-2.1423,-2.1285,-2.1083,-2.1083,-2.0967,-2.085,-2.0797,0.0,0.0,-2.0797,-2.0914,-2.1094,-2.1221,-2.1526,-2.1901,-2.2037,-2.2173,-2.2371,-2.2371,-2.2371,-2.242,-2.2714,-2.2604,-2.2432,-2.2848,-2.303,-2.309,-2.3403,-2.3688,-2.3923,-2.4171,-2.4505,-2.4778,-2.4778,-2.4835,-2.4892,-2.4892,-2.4948,-2.4948,-2.4948,-2.4948,-2.4948,-2.4948,-2.4948,-2.4892,-2.4892,-2.4892,-2.4946,-2.5067,-2.4966,-2.502,-2.5256,-2.5219,-2.5138,-2.5195,-2.5317,-2.5602,-2.6063,-2.6208,-2.6585,-2.7188,-2.7396,-2.7571,-2.7649,-2.8349,-2.8736,-2.8886,-2.9534,-3.0007,-3.0266,-3.0582,-3.0762,-0.9151,-0.9472,-0.9918,-1.0496,-1.1577,-1.2773,-1.3638,0.0,-1.579,-1.6053,-1.6333,-1.6542,-1.6342,0.0,0.0,0.0,0.0,-1.7047,-1.747,-1.7803,-1.8144,-1.8482,0.0,0.0,-1.9539,-1.9857,0.0,0.0,0.0,0.0,-2.1325,-2.1862,-2.2123,-2.2123,-2.2297,-2.2359,-2.2359,-2.2185,-2.2123,-2.2123,-2.2123,-2.1975,-2.1815,-2.1714,-2.1526,-2.1336,-2.1221,0.0,0.0,-2.1169,-2.1348,-2.1651,-2.1651,-2.2025,-2.2519,-2.2519,-2.2763,-2.3017,-2.3017,-2.3017,-2.3078,-2.3271,-2.309,-2.2909,-2.3283,-2.345,-2.3569,-2.3772,-2.3949,-2.4171,-2.4447,-2.462,-2.462,-2.462,-2.462,-2.462,-2.462,-2.4734,-2.4835,-2.4835,-2.4835,-2.4835,-2.4835,-2.4734,-2.462,-2.462,-2.462,-2.4807,-2.5282,-2.5348,-2.5548,-2.6142,-2.5834,-2.5689,-2.5805,-2.6335,-2.6687,-2.6728,-2.6922,-2.7229,-2.779,-2.8288,-2.8736,-2.9171,-2.9524,-2.9614,-2.9532,-2.9898,-3.0111,-3.0111,-3.0776,-3.1073,-0.9291,-0.9548,-0.9995,-1.0725,-1.1745,-1.2871,-1.4029,0.0,-1.5921,-1.6333,-1.6542,-1.6603,-1.6621,-1.6551,0.0,0.0,0.0,0.0,-1.7116,-1.7461,-1.7803,-1.8144,-1.8549,0.0,0.0,0.0,0.0,0.0,0.0,0.0,-2.1862,-2.2173,-2.2371,-2.2494,-2.2604,-2.2726,-2.2726,-2.2665,-2.2555,-2.2494,-2.2494,-2.2432,-2.2211,-2.2161,-2.2037,-2.1862,-2.1812,0.0,0.0,-2.18,-2.1925,-2.2099,-2.2099,-2.2408,-2.2775,-2.2775,-2.2896,-2.3138,-2.3271,-2.3271,-2.333,-2.3582,-2.3582,-2.3522,-2.3641,-2.376,-2.3819,-2.4008,-2.4099,-2.4261,-2.4363,-2.4492,-2.462,-2.462,-2.462,-2.462,-2.462,-2.462,-2.4677,-2.4677,-2.4677,-2.4677,-2.4677,-2.4914,-2.5082,-2.5082,-2.5375,-2.5695,-2.5921,-2.5948,-2.6041,-2.639,-2.6203,-2.6129,-2.625,-2.6479,-2.6884,-2.7421,-2.7646,-2.8105,-2.8886,-2.9209,-2.952,-2.9837,-3.0007,-3.0068,-3.0021,-3.028,-3.0462,-3.0536,-3.0776,-3.1014,-0.9484,-0.974,-1.0271,-1.1161,-1.2143,-1.3157,0.0,0.0,-1.6211,-1.6682,-1.6742,-1.6821,-1.6899,-1.6751,-1.6603,0.0,0.0,-1.6612,-1.676,-1.7107,-1.751,0.0,0.0,0.0,0.0,0.0,0.0,0.0,0.0,0.0,-2.2309,-2.2482,-2.2604,-2.269,-2.286,-2.2909,-2.2909,-2.2969,-2.2909,-2.28,-2.28,-2.2726,-2.2592,-2.2543,-2.2482,-2.2432,-2.2371,0.0,0.0,-2.2383,-2.2432,-2.2543,-2.2543,-2.2726,-2.303,-2.303,-2.315,-2.3258,-2.339,-2.3522,-2.3582,-2.3832,-2.3949,-2.3949,-2.3949,-2.3949,-2.4008,-2.4054,-2.4203,-2.4292,-2.4247,-2.4376,-2.4492,-2.4447,-2.4447,-2.4447,-2.4447,-2.4492,-2.4492,-2.4492,-2.4638,-2.4758,-2.4758,-2.5236,-2.5635,-2.5635,-2.5967,-2.6361,-2.6534,-2.6623,-2.6752,-2.7037,-2.7064,-2.6983,-2.6931,-2.708,-2.7488,-2.8271,-2.856,-2.9016,-2.9699,-3.0007,-3.0176,-3.0312,-3.0493,-3.0553,-3.0493,-3.0687,-3.0881,-3.094,-3.1058,-3.1219,-0.9977,-1.0308,-1.0823,-1.1727,-1.2699,-1.3767,0.0,0.0,-1.6682,-1.7097,-1.7166,-1.7097,-1.6908,-1.6751,-1.6533,-1.6342,0.0,0.0,-1.6533,-1.6959,0.0,0.0,0.0,0.0,0.0,0.0,0.0,0.0,0.0,0.0,-2.258,-2.2787,-2.2848,-2.269,-2.286,-2.2909,-2.2909,-2.3017,-2.3078,-2.3078,-2.3078,-2.3065,-2.3078,-2.2969,-2.2909,-2.2909,0.0,0.0,0.0,-2.2678,-2.28,-2.2909,-2.2909,-2.309,-2.3403,-2.3403,-2.345,-2.3628,-2.3628,-2.37,-2.3891,-2.3891,-2.4008,-2.4112,-2.4112,-2.4112,-2.4112,-2.4112,-2.4203,-2.4247,-2.4171,-2.4203,-2.4247,-2.4171,-2.4112,-2.4112,-2.4112,-2.4203,-2.4292,-2.4292,-2.478,-2.5189,-2.5189,-2.5664,-2.6109,-2.6109,-2.6233,-2.6507,-2.708,-2.7363,-2.7655,-2.8206,-2.8597,-2.8543,-2.7954,-2.8397,-2.8944,-2.9233,-2.9608,-2.987,-3.0068,-3.0673,-3.0896,-3.0777,-3.1087,-3.1219,-3.097,-3.1219,-3.1278,-3.1278,-3.1567,-3.1796,-1.0521,-1.078,-1.139,-1.2609,-1.3443,-1.4363,-1.593,0.0,-1.6751,-1.7314,-1.7107,-1.6821,-1.6908,-1.6621,-1.6342,-1.6342,-1.6272,0.0,0.0,0.0,0.0,-1.7638,-1.8596,0.0,0.0,0.0,0.0,0.0,0.0,0.0,-2.3258,-2.3412,-2.3424,-2.3163,-2.3223,-2.3271,-2.339,-2.345,-2.3437,-2.3437,-2.333,-2.333,-2.333,-2.3271,-2.3223,0.0,0.0,0.0,0.0,-2.303,-2.3017,-2.3017,-2.3017,-2.3078,-2.3198,-2.3198,-2.3198,-2.3258,-2.339,-2.3522,-2.3582,-2.3832,-2.3949,-2.4008,-2.4054,-2.4112,-2.4112,-2.4112,-2.4099,-2.4157,-2.4112,-2.4099,-2.4157,-2.4112,-2.4112,-2.4112,-2.4112,-2.4472,-2.4793,-2.4912,-2.5387,-2.5845,-2.5967,-2.6583,-2.7046,-2.7046,-2.762,-2.8058,-2.8298,-2.8529,-2.885,-2.9156,-2.9373,-2.9303,-2.8746,-2.9087,-2.9498,-2.9822,-3.019,-3.0433,-3.0718,-3.1131,-3.1394,-3.1467,-3.1697,-3.1754,-3.1682,-3.1754,-3.1754,-3.1754,-3.1966,-3.2079,0.0,-1.1392,-1.2022,-1.3344,-1.4115,0.0,0.0,0.0,0.0,0.0,0.0,-1.6751,-1.6908,-1.6621,-1.6412,-1.6342,-1.6342,0.0,0.0,0.0,0.0,-1.8317,0.0,0.0,0.0,0.0,0.0,0.0,0.0,0.0,-2.3897,-2.3989,-2.406,-2.4028,-2.3734,-2.3616,-2.3793,-2.3852,-2.3852,-2.3852,-2.3793,-2.3734,-2.3675,-2.3675,-2.3675,0.0,0.0,0.0,0.0,-2.345,-2.339,-2.3318,-2.3318,-2.3318,-2.3318,-2.3318,-2.3318,-2.3318,-2.345,-2.3582,-2.37,-2.3832,-2.3949,-2.4008,-2.4054,-2.4112,-2.4112,-2.4112,-2.4112,-2.4112,-2.4112,-2.4112,-2.4112,-2.4112,-2.4282,-2.4498,-2.4498,-2.5004,-2.5519,-2.5701,-2.6241,-2.6703,-2.6889,-2.7575,-2.8157,-2.8269,-2.8823,-2.917,-2.931,-2.9498,-2.9747,-2.987,-3.0068,-3.0068,-2.9775,-2.9822,-3.0007,-3.0326,-3.0628,-3.0851,-3.1087,-3.1452,-3.164,-3.1799,-3.1996,-3.2094,-3.2094,-3.215,-3.2135,-3.2135,-3.2302,-3.2302,0.0,-1.2197,-1.271,-1.399,-1.4649,0.0,0.0,0.0,0.0,0.0,0.0,0.0,-1.6839,-1.6751,-1.6542,-1.6342,-1.6473,0.0,0.0,-1.7442,0.0,0.0,0.0,0.0,0.0,0.0,0.0,0.0,0.0,0.0,-2.4509,-2.4509,-2.4694,-2.5005,-2.4279,-2.3989,-2.4189,-2.4292,-2.435,-2.435,-2.435,-2.4292,-2.4131,-2.4131,-2.4131,0.0,0.0,0.0,0.0,-2.3949,-2.3819,-2.3675,-2.3675,-2.3675,-2.3675,-2.3675,-2.3675,-2.3675,-2.3675,-2.3865,-2.4112,-2.3995,-2.4067,-2.4171,-2.4112,-2.4112,-2.4112,-2.4112,-2.4112,-2.4112,-2.4112,-2.4138,-2.4178,-2.4178,-2.4787,-2.5315,-2.5315,-2.5887,-2.6484,-2.6654,-2.7215,-2.7773,-2.8071,-2.8726,-2.9275,-2.9623,-2.9808,-2.9931,-3.0129,-3.0251,-3.0387,-3.0372,-3.0628,-3.0821,-3.0821,-3.0568,-3.0507,-3.0821,-3.0984,-3.1087,-3.1278,-3.1597,-3.1799,-3.1799,-3.2038,-3.2191,-3.2191,-3.2342,-3.2398,-3.2398,-3.2523,-3.2523,-1.3502,0.0,-1.35,-1.4637,-1.5236,-1.5834,0.0,0.0,0.0,0.0,0.0,0.0,0.0,0.0,-1.676,-1.6542,-1.6821,-1.7097,-1.7097,0.0,0.0,0.0,0.0,0.0,0.0,0.0,0.0,0.0,0.0,-2.4465,-2.4878,-2.4991,-2.5118,-2.5383,-2.5201,-2.5061,-2.4935,-2.4991,-2.4991,-2.4991,-2.4878,-2.4778,-2.4664,-2.4664,-2.4664,0.0,0.0,0.0,-2.4563,-2.4421,-2.435,-2.4292,-2.4292,-2.4292,-2.4292,-2.4292,-2.4292,-2.4292,-2.4292,-2.435,-2.4408,-2.435,-2.4478,-2.462,-2.4505,-2.4287,-2.4112,-2.4189,-2.4247,-2.4305,-2.4434,-2.4779,-2.511,-2.511,-2.5668,-2.6277,-2.6277,-2.6992,-2.766,-2.7817,-2.8498,-2.9163,-2.935,-2.9723,-3.0068,-3.0129,-3.0387,-3.0568,-3.0642,-3.0821,-3.094,-3.1043,-3.1176,-3.1234,-3.1307,-3.1161,-3.1102,-3.1176,-3.1292,-3.1409,-3.1467,-3.167,-3.1799,-3.1799,-3.194,-3.2094,-3.2191,-3.2247,-3.2287,-3.2398,-3.2453,-3.2453,-1.43,-1.4025,-1.4013,-1.5159,-1.556,-1.5965,-1.6853,0.0,0.0,0.0,0.0,0.0,0.0,0.0,0.0,0.0,-1.7107,0.0,0.0,0.0,0.0,0.0,0.0,0.0,0.0,0.0,0.0,0.0,0.0,-2.4821,-2.5188,-2.5313,-2.5411,-2.5702,-2.5702,-2.5633,-2.5508,-2.5508,-2.5564,-2.5619,-2.5564,-2.5453,-2.5286,-2.5286,-2.5286,0.0,0.0,0.0,-2.523,-2.5104,-2.5021,-2.4921,-2.5276,-2.5385,-2.5412,-2.567,-2.5765,-2.5765,-2.5765,-2.5765,-2.5765,-2.5778,-2.5805,-2.5819,-2.5716,-2.5553,-2.5322,-2.5015,-2.4936,-2.5061,-2.5531,-2.584,-2.6082,-2.6082,-2.6755,-2.7359,-2.7434,-2.816,-2.8898,-2.913,-2.9582,-3.0007,-3.019,-3.0387,-3.0568,-3.0747,-3.0925,-3.1058,-3.1117,-3.1249,-3.1307,-3.1409,-3.1409,-3.1409,-3.1482,-3.1409,-3.1409,-3.1409,-3.1467,-3.1482,-3.1482,-3.1597,-3.1727,-3.1799,-3.1898,-3.1996,-3.2094,-3.2094,-3.2191,-3.2302,-3.2302,-3.2342,-1.4765,-1.4524,-1.4459,-1.5505,-1.5753,-1.5965,-1.6725,0.0,0.0,0.0,0.0,0.0,0.0,-1.676,0.0,0.0,0.0,0.0,0.0,0.0,0.0,0.0,0.0,0.0,0.0,0.0,0.0,0.0,0.0,-2.5018,-2.5494,-2.5494,-2.5592,-2.5893,-2.5893,-2.5948,-2.5948,-2.5948,-2.6002,-2.6165,-2.6165,-2.6111,-2.5948,-2.5948,-2.6004,-2.6089,0.0,0.0,-2.6064,-2.6064,-2.598,-2.5897,-2.6453,-2.6719,-2.6775,-2.7262,-2.7502,-2.7502,-2.7443,-2.7443,-2.7457,-2.7471,-2.7367,-2.7248,-2.7171,-2.7111,-2.7028,-2.6399,-2.609,-2.6085,-2.6854,-2.7133,-2.7188,-2.7188,-2.787,-2.8544,-2.8755,-2.9393,-3.0068,-3.0312,-3.0433,-3.0568,-3.0821,-3.0881,-3.0999,-3.1292,-3.1351,-3.1351,-3.1482,-3.1482,-3.1482,-3.1482,-3.1482,-3.1482,-3.1482,-3.1482,-3.1482,-3.1482,-3.1482,-3.1482,-3.1482,-3.1482,-3.1597,-3.1727,-3.1727,-3.1841,-3.194,-3.194,-3.2038,-3.215,-3.215,-3.2247,-1.5294,-1.5217,-1.5244,-1.577,-1.5882,-1.603,-1.6725,0.0,0.0,0.0,0.0,0.0,0.0,0.0,0.0,0.0,0.0,0.0,0.0,0.0,0.0,0.0,0.0,0.0,0.0,0.0,0.0,0.0,0.0,-2.5131,-2.5494,-2.5494,-2.5592,-2.5893,-2.6002,-2.6111,-2.6233,-2.6233,-2.6326,-2.6457,-2.6457,-2.6365,-2.6233,-2.6233,-2.6572,-2.707,0.0,-2.737,-2.7798,-2.7798,-2.7798,-2.7798,-2.7897,-2.7997,-2.8197,-2.8283,-2.8312,-2.8312,-2.8125,-2.8068,-2.8082,-2.814,-2.814,-2.8082,-2.8082,-2.8096,-2.8182,-2.8667,-2.7987,-2.7138,-2.753,-2.8054,-2.8446,-2.8567,-2.9227,-2.9864,-2.9986,-3.0375,-3.0642,-3.0702,-3.0925,-3.1161,-3.1219,-3.1292,-3.1409,-3.1467,-3.1467,-3.1467,-3.1482,-3.1482,-3.1482,-3.1482,-3.1482,-3.1482,-3.1482,-3.1482,-3.1482,-3.1482,-3.1482,-3.1482,-3.1482,-3.1482,-3.1539,-3.1539,-3.1539,-3.1655,-3.1841,-3.1841,-3.1898,-3.2038,-3.2038,-3.2094,-1.5546,-1.5504,-1.5566,-1.5989,-1.6067,-1.625,-1.6771,0.0,0.0,0.0,0.0,0.0,0.0,0.0,0.0,0.0,0.0,0.0,0.0,0.0,0.0,0.0,0.0,0.0,0.0,0.0,0.0,0.0,0.0,0.0,-2.5494,-2.5592,-2.5688,-2.5893,-2.6002,-2.6165,-2.6286,-2.6379,-2.6486,-2.6645,-2.6645,-2.678,-2.7072,-2.7072,-2.7417,-2.8064,0.0,-2.8222,-2.8497,-2.8497,-2.8497,-2.8469,-2.8814,-2.9074,-2.929,-2.9754,-2.9828,-2.977,-2.9755,-2.9697,-2.958,-2.9638,-2.9638,-2.9638,-2.958,-2.9521,-2.9638,-3.006,-2.9315,-2.8592,-2.9185,-2.9545,-2.976,-2.982,-3.017,-3.0507,-3.0673,-3.0866,-3.1117,-3.1176,-3.1292,-3.1409,-3.1409,-3.1467,-3.1482,-3.1482,-3.1482,-3.1482,-3.1482,-3.1482,-3.1482,-3.1482,-3.1482,-3.1482,-3.1482,-3.1482,-3.1482,-3.1482,-3.1482,-3.1482,-3.1482,-3.1482,-3.1482,-3.1482,-3.1482,-3.1539,-3.167,-3.167,-3.1727,-3.1898,-3.1898,-3.1996,-1.586,-1.5838,-1.5841,-1.6268,0.0,-1.6422,-1.6817,0.0,0.0,0.0,0.0,0.0,0.0,0.0,0.0,0.0,0.0,0.0,0.0,0.0,0.0,0.0,0.0,0.0,0.0,0.0,0.0,0.0,0.0,0.0,-2.5494,-2.5633,-2.5784,-2.5893,-2.6056,-2.6233,-2.6286,-2.6486,-2.6645,-2.6779,-2.6924,-2.7258,-2.7737,-2.7882,-2.8303,-2.8898,-2.8898,-2.8985,-2.9116,-2.9116,-2.9116,-2.9174,-2.9653,-2.9973,-3.0279,-3.0896,-3.1073,-3.094,-3.1073,-3.1014,-3.0895,-3.0881,-3.094,-3.0881,-3.0807,-3.0821,-3.0807,-3.094,-3.0456,-3.0017,-3.0571,-3.0702,-3.0702,-3.0747,-3.0807,-3.094,-3.1102,-3.1219,-3.1409,-3.1467,-3.1482,-3.1482,-3.1482,-3.1482,-3.1482,-3.1482,-3.1482,-3.1482,-3.1482,-3.1482,-3.1482,-3.1482,-3.1482,-3.1482,-3.1482,-3.1482,-3.1482,-3.1482,-3.1482,-3.1482,-3.1482,-3.1482,-3.1482,-3.1482,-3.1482,-3.1482,-3.1482,-3.1482,-3.1597,-3.1727,-3.1727,-3.1883,-1.6397,-1.6286,-1.6277,-1.6628,-1.6561,0.0,-1.6817,-1.7038,0.0,-1.7166,0.0,0.0,0.0,0.0,0.0,0.0,0.0,0.0,0.0,0.0,0.0,0.0,0.0,0.0,0.0,0.0,0.0,0.0,0.0,0.0,-2.5494,-2.5633,-2.5784,-2.5893,-2.6165,-2.6286,-2.6286,-2.6621,-2.6779,-2.6794,-2.7389,-2.7639,-2.7697,-2.8347,-2.8956,-2.9566,-2.9566,-2.99,-3.0437,-3.0437,-3.0437,-3.0437,-3.0495,-3.0763,-3.1014,-3.1219,-3.1292,-3.1234,-3.1132,-3.1087,-3.1073,-3.1234,-3.1278,-3.1292,-3.1409,-3.1424,-3.1424,-3.1482,-3.1379,-3.1291,-3.1117,-3.1073,-3.1073,-3.1234,-3.1292,-3.1292,-3.1424,-3.1467,-3.1482,-3.1482,-3.1482,-3.1482,-3.1482,-3.1482,-3.1482,-3.1482,-3.1482,-3.1482,-3.1482,-3.1482,-3.1482,-3.1482,-3.1482,-3.1482,-3.1482,-3.1482,-3.1482,-3.1482,-3.1482,-3.1482,-3.1482,-3.1482,-3.1482,-3.1482,-3.1482,-3.1482,-3.1482,-3.1482,-3.1539,-3.1539,-3.1539,-3.1655,-1.6517,-1.6529,-1.6581,-1.6732,-1.6622,0.0,0.0,-1.689,0.0,0.0,0.0,0.0,0.0,0.0,0.0,0.0,0.0,0.0,0.0,0.0,0.0,0.0,0.0,0.0,0.0,0.0,0.0,0.0,0.0,0.0,-2.5494,-2.5688,-2.5839,-2.5893,-2.6165,-2.6286,-2.6286,-2.701,-2.7374,-2.7374,-2.7607,-2.8199,-2.9097,-2.9345,-2.9856,-3.0529,-3.0397,-3.0483,-3.0702,-3.0642,-3.0642,-3.0762,-3.1029,-3.1263,-3.1394,-3.1539,-3.1524,-3.1437,-3.1351,-3.1292,-3.1234,-3.1351,-3.1409,-3.1409,-3.1467,-3.1482,-3.1482,-3.1482,-3.1482,-3.1482,-3.1366,-3.1366,-3.1366,-3.1409,-3.1409,-3.1409,-3.1482,-3.1482,-3.1482,-3.1482,-3.1482,-3.1482,-3.1482,-3.1482,-3.1482,-3.1482,-3.1482,-3.1482,-3.1482,-3.1482,-3.1482,-3.1482,-3.1482,-3.1482,-3.1482,-3.1597,-3.167,-3.167,-3.1597,-3.1482,-3.1482,-3.1482,-3.1482,-3.1482,-3.1482,-3.1482,-3.1482,-3.1482,-3.1482,-3.1482,-3.1482,-3.1655,-1.7011,-1.6914,-1.693,0.0,0.0,0.0,-1.676,0.0,0.0,0.0,0.0,0.0,0.0,0.0,0.0,0.0,0.0,0.0,0.0,0.0,0.0,0.0,0.0,0.0,0.0,0.0,0.0,0.0,0.0,0.0,0.0,-2.5688,-2.5839,-2.5893,-2.6111,-2.6372,-2.6626,-2.7288,-2.7871,-2.8277,-2.8388,-2.891,-2.9943,-3.0191,-3.0645,-3.1132,-3.1043,-3.1043,-3.0984,-3.0911,-3.0984,-3.1102,-3.1552,-3.1724,-3.1724,-3.1981,-3.191,-3.1724,-3.1739,-3.164,-3.1524,-3.1597,-3.1597,-3.1597,-3.1539,-3.1482,-3.1482,-3.1482,-3.1482,-3.1482,-3.1482,-3.1482,-3.1482,-3.1482,-3.1482,-3.1482,-3.1482,-3.1482,-3.1482,-3.1482,-3.1482,-3.1482,-3.1482,-3.1482,-3.1482,-3.1482,-3.1482,-3.1482,-3.1482,-3.1482,-3.1482,-3.1482,-3.1482,-3.1539,-3.1597,-3.1784,-3.1898,-3.1996,-3.1925,-3.1796,-3.164,-3.1655,-3.1655,-3.1655,-3.1655,-3.1655,-3.1655,-3.1655,-3.1655,-3.1655,-3.1655,-3.1754,-1.7914,-1.7494,-1.7196,0.0,0.0,0.0,-1.6603,0.0,0.0,0.0,0.0,0.0,0.0,0.0,0.0,0.0,0.0,0.0,0.0,0.0,0.0,0.0,0.0,0.0,0.0,0.0,0.0,0.0,0.0,0.0,0.0,-2.5633,-2.5784,-2.5893,-2.6002,-2.6477,-2.7269,-2.7449,-2.8194,-2.9624,-2.9813,-2.9943,-2.9957,-3.088,-3.1278,-3.1351,-3.1437,-3.148,-3.148,-3.148,-3.161,-3.1739,-3.2079,-3.2191,-3.2247,-3.2492,-3.2453,-3.2191,-3.2191,-3.215,-3.1996,-3.1841,-3.1784,-3.1784,-3.1539,-3.1482,-3.1482,-3.1482,-3.1482,-3.1482,-3.1482,-3.1482,-3.1482,-3.1482,-3.1482,-3.1482,-3.1482,-3.1482,-3.1482,-3.1482,-3.1482,-3.1482,-3.1482,-3.1482,-3.1482,-3.1482,-3.1482,-3.1482,-3.1482,-3.1482,-3.1482,-3.1482,-3.1539,-3.1597,-3.1799,-3.1955,-3.215,-3.2398,-3.2547,-3.2453,-3.2038,-3.1996,-3.1996,-3.1996,-3.1996,-3.1996,-3.1996,-3.1996,-3.1996,-3.1996,-3.1996,-3.1996,-1.8168,-1.7909,0.0,-1.7579,0.0,0.0,0.0,0.0,0.0,0.0,0.0,0.0,0.0,0.0,0.0,0.0,0.0,0.0,0.0,0.0,0.0,0.0,0.0,0.0,0.0,0.0,0.0,0.0,0.0,0.0,0.0,-2.5633,-2.5784,-2.5893,-2.6002,-2.6477,-2.7269,-2.788,-2.8683,-2.9624,-3.0397,-3.0778,-3.0894,-3.1362,-3.1781,-3.2064,-3.2007,-3.2064,-3.2104,-3.2104,-3.2176,-3.2231,-3.2711,-3.2819,-3.2765,-3.298,-3.2926,-3.278,-3.2641,-3.2547,-3.2398,-3.2247,-3.2094,-3.1883,-3.1784,-3.1597,-3.1482,-3.1482,-3.1482,-3.1482,-3.1482,-3.1482,-3.1482,-3.1482,-3.1482,-3.1482,-3.1482,-3.1482,-3.1482,-3.1482,-3.1482,-3.1482,-3.1482,-3.1482,-3.1482,-3.1482,-3.1482,-3.1482,-3.1482,-3.1597,-3.1727,-3.1727,-3.1883,-3.2023,-3.2191,-3.2437,-3.2711,-3.2926,-3.3156,-3.3049,-3.2602,-3.2547,-3.2547,-3.2547,-3.2547,-3.2547,-3.2547,-3.2547,-3.2547,-3.2547,-3.2547,-3.2547,-1.853,-1.8272,0.0,-1.7657,-1.7314,-1.6968,-1.6908,0.0,0.0,0.0,0.0,0.0,0.0,0.0,0.0,0.0,0.0,0.0,0.0,0.0,0.0,0.0,0.0,0.0,0.0,0.0,0.0,0.0,0.0,0.0,0.0,-2.5522,-2.5688,-2.5839,-2.6242,-2.6887,-2.764,-2.844,-2.9247,-3.0016,-3.0778,-3.119,-3.1394,-3.1739,-3.212,-3.2508,-3.2578,-3.2687,-3.2742,-3.285,-3.2888,-3.2942,-3.3403,-3.3507,-3.3455,-3.361,-3.3507,-3.3366,-3.3245,-3.314,-3.2942,-3.2765,-3.2508,-3.2191,-3.1996,-3.1769,-3.1597,-3.1539,-3.1482,-3.1482,-3.1482,-3.1482,-3.1482,-3.1482,-3.1482,-3.1482,-3.1482,-3.1482,-3.1482,-3.1482,-3.1482,-3.1482,-3.1482,-3.1482,-3.1482,-3.1482,-3.1597,-3.1655,-3.1712,-3.1826,-3.1996,-3.2094,-3.2247,-3.2453,-3.2602,-3.2926,-3.3193,-3.3455,-3.3678,-3.3729,-3.3491,-3.3282,-3.314,-3.314,-3.314,-3.314,-3.314,-3.314,-3.314,-3.314,-3.314,-3.314,-1.9075,0.0,0.0,-1.7852,-1.7442,0.0,-1.6978,0.0,-1.6839,0.0,0.0,0.0,0.0,0.0,0.0,0.0,0.0,0.0,0.0,0.0,0.0,0.0,0.0,0.0,0.0,0.0,0.0,0.0,0.0,0.0,0.0,-2.5369,-2.5536,-2.5674,-2.6609,-2.7456,-2.8197,-2.9001,-2.9826,-3.0642,-3.0955,-3.1292,-3.1552,-3.2007,-3.2398,-3.2711,-3.3171,-3.3346,-3.3361,-3.3503,-3.3642,-3.3797,-3.405,-3.4151,-3.4151,-3.43,-3.4151,-3.3949,-3.3949,-3.3797,-3.3555,-3.3298,-3.3018,-3.2656,-3.2342,-3.2053,-3.1784,-3.1597,-3.1539,-3.1482,-3.1482,-3.1482,-3.1482,-3.1482,-3.1482,-3.1482,-3.1482,-3.1482,-3.1482,-3.1482,-3.1482,-3.1539,-3.1539,-3.1539,-3.1539,-3.1582,-3.1712,-3.1898,-3.2053,-3.2191,-3.2342,-3.2656,-3.2695,-3.2819,-3.3087,-3.3382,-3.371,-3.3949,-3.4201,-3.4399,-3.4546,-3.405,-3.3745,-3.3745,-3.3745,-3.3745,-3.3745,-3.3745,-3.3745,-3.3745,-3.3797,-3.3797,-1.9605,-1.9075,0.0,0.0,-1.7579,-1.7176,-1.6978,-1.6908,-1.6908,0.0,0.0,0.0,0.0,0.0,0.0,0.0,0.0,0.0,0.0,0.0,0.0,0.0,0.0,0.0,0.0,0.0,0.0,0.0,0.0,0.0,-2.5174,-2.5369,-2.5536,-2.5674,-2.6609,-2.7456,-2.8197,-2.9001,-2.9885,0.0,-3.1117,-3.1467,-3.1925,-3.2231,-3.2726,-3.333,-3.3539,-3.3642,-3.3797,-3.3899,-3.405,-3.4201,-3.4448,-3.4497,-3.4448,-3.4546,-3.4497,-3.4349,-3.4349,-3.425,-3.4101,-3.3832,-3.3539,-3.3224,-3.2656,-3.2342,-3.2038,-3.1841,-3.1597,-3.1482,-3.1482,-3.1482,-3.1482,-3.1482,-3.1482,-3.1482,-3.1482,-3.1482,-3.1482,-3.1482,-3.1482,-3.1539,-3.1727,-3.1727,-3.1841,-3.2038,-3.2094,-3.2191,-3.2437,-3.2602,-3.2749,-3.3018,-3.3314,-3.3575,-3.3832,-3.405,-3.425,-3.4497,-3.4594,-3.4691,-3.4804,-3.4497,-3.4349,-3.4349,-3.4349,-3.4349,-3.4349,-3.4349,-3.4349,-3.4349,-3.4448,-3.4448,-2.0053,0.0,0.0,-1.8134,0.0,-1.7373,-1.7107,-1.7038,-1.7038,0.0,0.0,0.0,0.0,0.0,0.0,0.0,0.0,0.0,0.0,0.0,0.0,0.0,0.0,0.0,0.0,0.0,0.0,0.0,0.0,-2.5005,-2.5118,-2.5369,-2.5675,-2.6008,-2.699,-2.7911,-2.8668,-2.952,-3.0293,-3.0925,-3.1278,-3.1796,-3.2444,-3.2703,-3.3118,-3.3607,-3.3745,-3.3848,-3.4,-3.4201,-3.4349,-3.4399,-3.4691,-3.4739,-3.4691,-3.4756,-3.4739,-3.4691,-3.4691,-3.4594,-3.4448,-3.4349,-3.4,-3.3591,-3.3156,-3.2726,-3.2342,-3.1996,-3.1769,-3.167,-3.167,-3.167,-3.1655,-3.1712,-3.1597,-3.1482,-3.1482,-3.1597,-3.167,-3.167,-3.1769,-3.1868,-3.1996,-3.2094,-3.2247,-3.2453,-3.2547,-3.2672,-3.2996,-3.314,-3.3351,-3.3713,-3.3882,-3.405,-3.425,-3.4399,-3.4546,-3.4691,-3.4739,-3.4851,-3.4899,-3.4756,-3.4691,-3.4691,-3.4691,-3.4691,-3.4804,-3.4804,-3.4804,-3.4899,-3.4947,-3.4947,-2.0431,0.0,-1.9044,-1.8202,-1.7862,0.0,-1.7304,-1.7166,0.0,0.0,0.0,0.0,0.0,0.0,0.0,0.0,0.0,0.0,0.0,0.0,0.0,0.0,0.0,0.0,0.0,0.0,0.0,0.0,0.0,-2.5005,-2.5005,-2.5313,-2.5784,-2.6378,-2.7425,-2.8395,-2.9183,-3.0144,-3.0747,-3.1087,-3.161,-3.2262,-3.2951,-3.3203,-3.345,-3.371,-3.3797,-3.3949,-3.4151,-3.4399,-3.4497,-3.4546,-3.4787,-3.4899,-3.4899,-3.4899,-3.4899,-3.4899,-3.4899,-3.4851,-3.4739,-3.4707,-3.4399,-3.4,-3.3642,-3.3208,-3.2656,-3.2247,-3.1996,-3.1898,-3.1898,-3.1883,-3.194,-3.2094,-3.191,-3.1697,-3.164,-3.1769,-3.1898,-3.1955,-3.215,-3.2358,-3.2342,-3.2617,-3.2819,-3.2964,-3.3071,-3.3261,-3.3591,-3.3745,-3.3949,-3.4349,-3.4349,-3.4448,-3.4546,-3.4691,-3.4739,-3.4739,-3.4851,-3.4899,-3.4947,-3.4947,-3.4947,-3.4947,-3.4947,-3.4994,-3.5135,-3.5135,-3.5198,-3.5291,-3.5337,-3.5337,0.0,0.0,-1.8741,0.0,-1.7735,-1.7461,0.0,0.0,0.0,0.0,0.0,0.0,0.0,0.0,0.0,0.0,0.0,0.0,0.0,0.0,0.0,0.0,0.0,0.0,0.0,0.0,0.0,0.0,-2.5005,-2.5005,-2.5005,-2.5313,-2.5784,-2.6378,-2.7425,-2.8395,-2.9183,-3.0144,-3.0866,-3.1422,-3.2318,-3.2843,-3.3112,-3.3256,-3.345,-3.3694,-3.3694,-3.3949,-3.43,-3.4448,-3.4546,-3.4691,-3.4851,-3.4899,-3.4899,-3.4899,-3.4899,-3.4899,-3.4899,-3.4899,-3.4851,-3.4739,-3.4643,-3.4497,-3.4,-3.3642,-3.3277,-3.2656,-3.2453,-3.2287,-3.2191,-3.2342,-3.2492,-3.2492,-3.2586,-3.2532,-3.2191,-3.215,-3.2191,-3.2453,-3.2711,-3.2926,-3.3033,-3.3261,-3.3487,-3.3745,-3.3797,-3.3899,-3.4151,-3.4201,-3.4349,-3.4611,-3.4643,-3.4691,-3.4851,-3.4851,-3.4899,-3.4899,-3.4899,-3.4947,-3.5041,-3.5088,-3.5152,-3.5245,-3.5135,-3.5152,-3.5291,-3.5291,-3.5291,-3.5291,-3.5446,-3.5492,-2.121,-2.0118,-1.9142,0.0,-1.8212,-1.7872,-1.7579,0.0,0.0,0.0,0.0,0.0,0.0,0.0,0.0,0.0,0.0,0.0,0.0,0.0,0.0,0.0,0.0,0.0,0.0,0.0,0.0,0.0,-2.5005,-2.5005,-2.5005,-2.5502,-2.6139,-2.6862,-2.7739,-2.8669,-2.9697,-3.0317,-3.1087,-3.1992,-3.2703,-3.3112,-3.3203,-3.3256,-3.3398,-3.3607,-3.3658,-3.3848,-3.4101,-3.4399,-3.4546,-3.4594,-3.4804,-3.4899,-3.4899,-3.4899,-3.4899,-3.4899,-3.4899,-3.4899,-3.4899,-3.4851,-3.4739,-3.4643,-3.425,-3.3949,-3.3642,-3.3118,-3.2888,-3.2711,-3.2672,-3.2765,-3.2964,-3.3102,-3.3208,-3.3261,-3.3156,-3.2888,-3.278,-3.3156,-3.3366,-3.3575,-3.3764,-3.3882,-3.4,-3.4201,-3.425,-3.43,-3.4497,-3.4546,-3.4594,-3.4787,-3.4787,-3.4851,-3.4899,-3.4899,-3.4947,-3.4994,-3.4994,-3.5088,-3.5198,-3.5198,-3.5291,-3.54,-3.5291,-3.5291,-3.54,-3.54,-3.5429,-3.5458,-3.5549,-3.5549,0.0,0.0,-1.9594,-1.9065,-1.8539,-1.8134,0.0,0.0,0.0,0.0,0.0,0.0,0.0,0.0,0.0,0.0,0.0,0.0,0.0,0.0,0.0,0.0,0.0,0.0,0.0,0.0,0.0,0.0,-2.5141,-2.5236,-2.5236,-2.5908,-2.6685,-2.7529,-2.8107,-2.8956,-3.0111,-3.0628,-3.1422,-3.2398,-3.292,-3.3203,-3.3309,-3.3309,-3.3346,-3.345,-3.3658,-3.3761,-3.3949,-3.4349,-3.4497,-3.4546,-3.4804,-3.4899,-3.4899,-3.4899,-3.4899,-3.4899,-3.4899,-3.4899,-3.4899,-3.4899,-3.4851,-3.4707,-3.4448,-3.425,-3.4,-3.3607,-3.3382,-3.3245,-3.3261,-3.3351,-3.3507,-3.3694,-3.3797,-3.3899,-3.3899,-3.3626,-3.3403,-3.3797,-3.3949,-3.4151,-3.4349,-3.4399,-3.4448,-3.4594,-3.4594,-3.4643,-3.4739,-3.4739,-3.4804,-3.4899,-3.4899,-3.4899,-3.4899,-3.4947,-3.4994,-3.5088,-3.5135,-3.5198,-3.5354,-3.5337,-3.5484,-3.5807,-3.5715,-3.5631,-3.552,-3.552,-3.5566,-3.5622,-3.5622,-3.5622,0.0,-2.0858,0.0,-1.9441,0.0,0.0,0.0,0.0,0.0,0.0,0.0,0.0,0.0,0.0,0.0,0.0,0.0,0.0,0.0,0.0,0.0,0.0,0.0,0.0,0.0,0.0,0.0,0.0,-2.552,-2.5846,-2.5846,-2.6521,-2.7316,-2.8132,-2.833,-2.8956,-3.0111,-3.1248,-3.2048,-3.2398,-3.3011,-3.3309,-3.3309,-3.3309,-3.3293,-3.3293,-3.3607,-3.3761,-3.3949,-3.4349,-3.4497,-3.4546,-3.4804,-3.4899,-3.4899,-3.4899,-3.4899,-3.4899,-3.4899,-3.4899,-3.4899,-3.4899,-3.4899,-3.4851,-3.4691,-3.4594,-3.4399,-3.4151,-3.405,-3.4,-3.3899,-3.405,-3.425,-3.425,-3.4349,-3.4349,-3.4,-3.4101,-3.425,-3.425,-3.4399,-3.4497,-3.4643,-3.4691,-3.4739,-3.4851,-3.4899,-3.4899,-3.4899,-3.4899,-3.4899,-3.4899,-3.4899,-3.4899,-3.4899,-3.4994,-3.5088,-3.5088,-3.5198,-3.5354,-3.5492,-3.5492,-3.5874,-3.6705,-3.6721,-3.6366,-3.5577,-3.5577,-3.5577,-3.5622,-3.5622,-3.5622,0.0,0.0,0.0,-2.0333,-1.9628,-1.9121,0.0,0.0,0.0,0.0,0.0,0.0,0.0,0.0,0.0,0.0,0.0,0.0,0.0,0.0,0.0,0.0,0.0,0.0,0.0,0.0,0.0,0.0,0.0,-2.6063,-2.647,-2.7115,-2.7646,-2.7975,-2.8547,-2.9364,-3.0401,-3.1248,-3.1879,-3.2398,-3.292,-3.3203,-3.3309,-3.3309,-3.3309,-3.3293,-3.3591,-3.3761,-3.3797,-3.43,-3.4497,-3.4546,-3.4804,-3.4899,-3.4899,-3.4899,-3.4899,-3.4899,-3.4899,-3.4899,-3.4899,-3.4899,-3.4899,-3.4899,-3.4739,-3.4643,-3.4594,-3.4399,-3.4349,-3.4349,-3.43,-3.4399,-3.4594,-3.4643,-3.4691,-3.4691,-3.4546,-3.4546,-3.4546,-3.4546,-3.4643,-3.4787,-3.4804,-3.4851,-3.4835,-3.4899,-3.4899,-3.4899,-3.4899,-3.4899,-3.4899,-3.4899,-3.4899,-3.4899,-3.4899,-3.4994,-3.5152,-3.5198,-3.5337,-3.5475,-3.5549,-3.6084,-3.6455,-3.6772,-3.7263,-3.7364,-3.7094,-3.7094,-3.7094,-3.7094,-3.7094,-3.7094,-2.3682,0.0,0.0,0.0,0.0,-1.9901,-1.9628,0.0,0.0,0.0,0.0,0.0,0.0,0.0,0.0,0.0,0.0,0.0,0.0,0.0,0.0,0.0,0.0,0.0,0.0,0.0,0.0,0.0,0.0,0.0,-2.7094,-2.7678,-2.8116,-2.8277,-2.8941,-2.9713,-3.0568,-3.1204,-3.1823,-3.2398,-3.2866,-3.315,-3.3309,-3.3309,-3.3309,-3.3293,-3.3591,-3.3694,-3.3745,-3.425,-3.4448,-3.4497,-3.4756,-3.4851,-3.4899,-3.4899,-3.4899,-3.4899,-3.4899,-3.4899,-3.4899,-3.4899,-3.4899,-3.4899,-3.4787,-3.4756,-3.4756,-3.4643,-3.4643,-3.4643,-3.4643,-3.4691,-3.4804,-3.4899,-3.4899,-3.4899,-3.4899,-3.4851,-3.4756,-3.4756,-3.4851,-3.4899,-3.4899,-3.4899,-3.4899,-3.4899,-3.4899,-3.4899,-3.4899,-3.4899,-3.4899,-3.4899,-3.4899,-3.4899,-3.4899,-3.5041,-3.5198,-3.5291,-3.571,-3.5954,-3.6011,-3.6738,-3.728,-3.7516,-3.8007,-3.8396,-3.8633,-3.8142,-3.7905,-3.7905,-3.7905,-3.7905,0.0,0.0,0.0,0.0,0.0,0.0,-2.0226,0.0,0.0,0.0,0.0,0.0,0.0,0.0,0.0,0.0,0.0,0.0,0.0,0.0,0.0,0.0,0.0,0.0,0.0,0.0,0.0,0.0,-2.6843,-2.7718,-2.7732,-2.8275,-2.8716,-2.9099,-2.9415,-2.9913,-3.0568,-3.1204,-3.1823,-3.2398,-3.2866,-3.315,-3.3309,-3.3309,-3.3309,-3.3293,-3.3607,-3.371,-3.3745,-3.4151,-3.4399,-3.4497,-3.4643,-3.4804,-3.4899,-3.4899,-3.4899,-3.4899,-3.4899,-3.4899,-3.4899,-3.4899,-3.4899,-3.4899,-3.4899,-3.4899,-3.4899,-3.4899,-3.4899,-3.4899,-3.4899,-3.4899,-3.4899,-3.4899,-3.4899,-3.4899,-3.4899,-3.4899,-3.4899,-3.4899,-3.4899,-3.4899,-3.4899,-3.4899,-3.4899,-3.4899,-3.4899,-3.4899,-3.4899,-3.4899,-3.4899,-3.4899,-3.4899,-3.4899,-3.4899,-3.5168,-3.5325,-3.5325,-3.6262,-3.6806,-3.6806,-3.7533,-3.8278,-3.8988,-3.9005,-3.9377,-4.007,-3.8667,-3.7973,-3.7973,-3.7973,-3.7973,-2.5536,0.0,0.0,0.0,0.0,0.0,0.0,0.0,0.0,0.0,0.0,0.0,0.0,0.0,0.0,0.0,0.0,0.0,0.0,0.0,0.0,0.0,0.0,0.0,0.0,0.0,0.0,0.0,-2.7252,-2.7895,-2.8329,-2.8505,-2.8716,-2.9099,-2.9261,-2.9747,-3.0568,-3.1204,-3.1823,-3.2398,-3.2866,-3.315,-3.3309,-3.3309,-3.3309,-3.3309,-3.3503,-3.3607,-3.3745,-3.4151,-3.4399,-3.4497,-3.4643,-3.4804,-3.4899,-3.4899,-3.4899,-3.4899,-3.4899,-3.4899,-3.4899,-3.4899,-3.4899,-3.4899,-3.4899,-3.4899,-3.4899,-3.4899,-3.4899,-3.4899,-3.4899,-3.4899,-3.4899,-3.4899,-3.4899,-3.4899,-3.4899,-3.4899,-3.4899,-3.4899,-3.4899,-3.4899,-3.4899,-3.4899,-3.4899,-3.4899,-3.4899,-3.4899,-3.4899,-3.4899,-3.4899,-3.4899,-3.4899,-3.4899,-3.4899,-3.5618,-3.6125,-3.6125,-3.702,-3.7601,-3.7601,-3.8294,-3.8785,-3.8988,-3.9512,-3.9884,-4.007,-3.9681,-3.9478,-3.9478,-3.9478,-3.9478,0.0,0.0,0.0,0.0,0.0,0.0,-2.264,-2.2051,-2.1502,0.0,0.0,0.0,0.0,0.0,0.0,0.0,0.0,0.0,0.0,0.0,0.0,0.0,0.0,0.0,0.0,-2.477,-2.5962,-2.6763,-2.7605,-2.8234,-2.8573,-2.8587,-2.8716,-2.9099,-2.9261,-2.9747,-3.0673,-3.1263,-3.1823,-3.2492,-3.292,-3.315,-3.3309,-3.3309,-3.3309,-3.3309,-3.345,-3.3555,-3.3694,-3.4,-3.43,-3.4497,-3.4594,-3.4739,-3.4899,-3.4899,-3.4899,-3.4899,-3.4899,-3.4899,-3.4899,-3.4899,-3.4899,-3.4899,-3.4899,-3.4899,-3.4899,-3.4899,-3.4899,-3.4899,-3.4899,-3.4899,-3.4899,-3.4899,-3.4899,-3.4899,-3.4899,-3.4899,-3.4899,-3.4899,-3.4899,-3.4899,-3.4899,-3.4899,-3.4899,-3.4899,-3.4899,-3.4899,-3.4899,-3.4899,-3.5015,-3.533,-3.5363,-3.5527,-3.5874,-3.6484,-3.688,-3.6944,-3.7843,-3.8362,-3.8362,-3.9056,-3.9445,-3.9445,-3.9868,-4.007,-4.007,-4.007,-4.007,-4.007,-4.007,-4.007,0.0,0.0,0.0,0.0,0.0,0.0,-2.382,-2.3242,-2.2652,-2.2175,-2.1815,0.0,0.0,0.0,0.0,0.0,0.0,0.0,0.0,0.0,0.0,0.0,0.0,0.0,-2.3706,-2.5294,-2.6426,-2.6765,-2.7902,-2.8587,-2.8587,-2.8587,-2.8716,-2.9099,-2.9261,-2.9794,-3.0777,-3.1306,-3.1879,-3.2586,-3.2973,-3.3203,-3.3309,-3.3309,-3.3309,-3.3309,-3.345,-3.3555,-3.371,-3.3848,-3.4151,-3.4497,-3.4497,-3.4643,-3.4899,-3.4899,-3.4899,-3.4899,-3.4899,-3.4899,-3.4899,-3.4899,-3.4899,-3.4899,-3.4899,-3.4899,-3.4899,-3.4899,-3.4899,-3.4899,-3.4899,-3.4899,-3.4899,-3.4899,-3.4899,-3.4899,-3.4899,-3.4899,-3.4899,-3.4899,-3.4899,-3.4899,-3.4899,-3.4899,-3.4899,-3.4899,-3.4899,-3.4899,-3.4899,-3.4965,-3.5263,-3.5926,-3.6075,-3.6489,-3.722,-3.7502,-3.7716,-3.7814,-3.8652,-3.9106,-3.9106,-3.9732,-4.007,-4.007,-4.007,-4.007,-4.007,-4.007,-4.007,-4.007,-4.007,-4.007,0.0,0.0,0.0,0.0,0.0,0.0,-2.5148,-2.4584,-2.4008,0.0,-2.3088,0.0,0.0,0.0,0.0,0.0,0.0,0.0,0.0,0.0,0.0,0.0,0.0,0.0,-2.435,-2.5722,-2.686,-2.7552,-2.8195,-2.8587,-2.8587,-2.8587,-2.8716,-2.9099,-2.9415,-2.996,-3.0777,-3.148,-3.2089,-3.2602,-3.3065,-3.3256,-3.3309,-3.3309,-3.3309,-3.3309,-3.3361,-3.345,-3.3694,-3.3761,-3.405,-3.4497,-3.4497,-3.4643,-3.4899,-3.4899,-3.4899,-3.4899,-3.4899,-3.4899,-3.4899,-3.4899,-3.4899,-3.4899,-3.4899,-3.4899,-3.4899,-3.4899,-3.4899,-3.4899,-3.4899,-3.4899,-3.4899,-3.4899,-3.4899,-3.4899,-3.4899,-3.4899,-3.4899,-3.4899,-3.4899,-3.4899,-3.4899,-3.4899,-3.4899,-3.4899,-3.4899,-3.4899,-3.4899,-3.5413,-3.5843,-3.5976,-3.6622,-3.712,-3.727,-3.807,-3.8554,-3.8571,-3.9395,-3.9868,-3.9868,-4.0003,-4.007,-4.007,-4.007,-4.007,-4.007,-4.007,-4.007,-4.007,-4.007,-4.007,0.0,0.0,0.0,-2.8128,0.0,0.0,0.0,-2.6037,-2.5439,-2.4995,-2.45,-2.3995,-2.3702,0.0,0.0,0.0,0.0,0.0,0.0,0.0,0.0,0.0,0.0,0.0,-2.518,-2.6251,-2.7297,-2.8118,-2.8457,-2.8587,-2.8587,-2.8587,-2.8716,-2.9099,-2.9463,-3.0068,-3.0896,-3.1652,-3.2287,-3.2742,-3.3134,-3.3309,-3.3309,-3.3309,-3.3309,-3.3309,-3.3309,-3.345,-3.3694,-3.3694,-3.4,-3.4497,-3.4497,-3.4643,-3.4899,-3.4899,-3.4899,-3.4899,-3.4899,-3.4899,-3.4899,-3.4899,-3.4899,-3.4899,-3.4899,-3.4899,-3.4899,-3.4899,-3.4899,-3.4899,-3.4899,-3.4899,-3.4899,-3.4899,-3.4899,-3.4899,-3.4899,-3.4899,-3.4899,-3.4899,-3.4899,-3.4899,-3.4899,-3.4899,-3.4899,-3.4899,-3.5214,-3.5446,-3.5446,-3.6092,-3.6688,-3.7153,-3.7619,-3.802,-3.8539,-3.9076,-3.9379,-3.9429,-3.9868,-4.007,-4.007,-4.007,-4.007,-4.007,-4.007,-4.007,-4.007,-4.0188,-4.0188,-4.007,-4.0188,-4.0188,0.0,0.0,0.0,0.0,0.0,-2.8273,0.0,0.0,0.0,-2.6395,-2.5875,0.0,0.0,0.0,0.0,0.0,0.0,0.0,0.0,0.0,0.0,0.0,0.0,0.0,-2.607,-2.6905,-2.7762,-2.8522,-2.8587,-2.8587,-2.8651,-2.8651,-2.8844,-2.9212,-2.9637,-3.0237,-3.1087,-3.1838,-3.2428,-3.2897,-3.315,-3.3309,-3.3309,-3.3309,-3.3309,-3.3309,-3.3361,-3.345,-3.3694,-3.3761,-3.405,-3.4497,-3.4497,-3.4643,-3.4899,-3.4899,-3.4899,-3.4899,-3.4899,-3.4899,-3.4899,-3.4899,-3.4899,-3.4899,-3.4899,-3.4899,-3.4899,-3.4899,-3.4899,-3.4899,-3.4899,-3.4899,-3.4899,-3.4899,-3.4899,-3.4899,-3.4899,-3.4899,-3.4899,-3.4899,-3.4899,-3.4899,-3.4899,-3.5015,-3.5098,-3.5098,-3.5744,-3.6208,-3.6257,-3.6904,-3.7635,-3.837,-3.857,-3.9041,-3.985,-3.9935,-3.9986,-4.007,-4.007,-4.007,-4.007,-4.007,-4.0121,-4.0138,-4.0138,-4.0188,-4.0238,-4.0337,-4.0288,-4.0171,-4.0288,-4.0404,0.0,0.0,0.0,0.0,-2.9556,0.0,0.0,0.0,-2.7849,-2.7585,0.0,0.0,0.0,0.0,0.0,0.0,0.0,0.0,0.0,0.0,0.0,0.0,0.0,0.0,0.0,-2.763,-2.83,-2.8587,-2.8587,-2.8651,-2.878,-2.878,-2.9085,-2.9685,-2.9946,-3.0539,-3.1422,-3.1951,-3.2428,-3.2897,-3.315,-3.3309,-3.3309,-3.3309,-3.3309,-3.3309,-3.345,-3.3555,-3.371,-3.3848,-3.4101,-3.4497,-3.4497,-3.4643,-3.4899,-3.4899,-3.4899,-3.4899,-3.4899,-3.4899,-3.4899,-3.4899,-3.4899,-3.4899,-3.4899,-3.4899,-3.4899,-3.4899,-3.4899,-3.4899,-3.4899,-3.4899,-3.4899,-3.4899,-3.4899,-3.4899,-3.4899,-3.4899,-3.4899,-3.4899,-3.4899,-3.4899,-3.4899,-3.5446,-3.5876,-3.5876,-3.6506,-3.702,-3.7153,-3.7803,-3.8353,-3.8539,-3.9277,-3.9765,-3.9884,-3.9986,-4.007,-4.007,-4.007,-4.007,-4.007,-4.007,-4.0138,-4.0288,-4.0305,-4.0387,-4.0648,-4.0648,-4.06,-4.0485,-4.0583,-4.0728,0.0,0.0,0.0,0.0,0.0,0.0,-2.9677,0.0,-2.8842,0.0,0.0,0.0,0.0,0.0,0.0,0.0,-2.8426,0.0,0.0,0.0,-2.8607,0.0,0.0,0.0,0.0,0.0,0.0,0.0,-2.8716,-2.878,-2.8972,-2.9162,-2.9463,-2.9931,-3.0433,-3.0896,-3.148,-3.2104,-3.2578,-3.2897,-3.315,-3.3309,-3.3309,-3.3309,-3.3309,-3.3309,-3.345,-3.3555,-3.371,-3.3949,-3.4201,-3.4497,-3.4594,-3.4739,-3.4899,-3.4899,-3.4899,-3.4899,-3.4899,-3.4899,-3.4899,-3.4899,-3.4899,-3.4899,-3.4899,-3.4899,-3.4899,-3.4899,-3.4899,-3.4899,-3.4899,-3.4899,-3.4899,-3.4899,-3.4899,-3.4899,-3.4899,-3.4899,-3.4899,-3.4899,-3.5247,-3.5577,-3.5656,-3.5842,-3.6191,-3.6655,-3.7453,-3.8037,-3.8154,-3.8908,-3.943,-3.9581,-3.9901,-4.0138,-4.0138,-4.0238,-4.0288,-4.0238,-4.0188,-4.0238,-4.0337,-4.0238,-4.0305,-4.0551,-4.0551,-4.0631,-4.0853,-4.0948,-4.1071,-4.1174,-4.1071,-4.1134,-3.1449,0.0,0.0,0.0,0.0,0.0,0.0,0.0,0.0,0.0,0.0,0.0,0.0,0.0,0.0,0.0,0.0,-3.0127,0.0,0.0,0.0,0.0,0.0,0.0,0.0,0.0,0.0,-2.8958,-2.8958,-2.9022,-2.9275,-2.9588,-3.0021,-3.0433,-3.0911,-3.1321,-3.1667,-3.2327,-3.2672,-3.2897,-3.315,-3.3309,-3.3309,-3.3309,-3.3309,-3.3309,-3.3503,-3.3607,-3.3694,-3.405,-3.43,-3.4497,-3.4643,-3.4804,-3.4899,-3.4899,-3.4899,-3.4899,-3.4899,-3.4899,-3.4899,-3.4899,-3.4899,-3.4899,-3.4899,-3.4899,-3.4899,-3.4899,-3.4899,-3.4899,-3.4899,-3.4899,-3.4899,-3.4899,-3.4899,-3.4899,-3.4899,-3.4899,-3.4899,-3.4947,-3.5544,-3.614,-3.6534,-3.6653,-3.6871,-3.7586,-3.8455,-3.9093,-3.9226,-3.9832,-4.032,-4.0436,-4.0436,-4.0436,-4.0436,-4.0534,-4.0583,-4.0502,-4.0436,-4.0485,-4.0631,-4.0551,-4.0583,-4.0823,-4.0823,-4.0948,-4.1255,-4.1328,-4.1552,-4.1881,-4.1552,-4.1525,0.0,0.0,0.0,-3.1504,0.0,0.0,0.0,0.0,-3.1405,0.0,0.0,0.0,0.0,0.0,0.0,0.0,0.0,0.0,0.0,0.0,0.0,0.0,0.0,0.0,0.0,-2.9588,-2.9463,-2.931,-2.931,-2.9435,-2.9747,-3.0068,-3.0553,-3.1219,-3.1437,-3.1724,-3.2191,-3.2437,-3.2672,-3.2897,-3.315,-3.3309,-3.3309,-3.3309,-3.3309,-3.3293,-3.3607,-3.371,-3.3745,-3.4151,-3.4399,-3.4497,-3.4643,-3.4804,-3.4899,-3.4899,-3.4899,-3.4899,-3.4899,-3.4899,-3.4899,-3.4899,-3.4899,-3.4899,-3.4899,-3.4899,-3.4899,-3.4899,-3.4899,-3.4899,-3.4899,-3.4899,-3.4899,-3.4899,-3.4899,-3.4899,-3.4899,-3.4899,-3.4947,-3.5041,-3.5671,-3.6484,-3.748,-3.8053,-3.8421,-3.869,-3.9513,-4.0154,-4.0385,-4.0531,-4.0645,-4.0871,-4.0888,-4.0888,-4.0888,-4.0871,-4.0888,-4.0871,-4.0888,-4.0871,-4.0888,-4.0871,-4.0965,-4.1163,-4.1163,-4.1436,-4.1874,-4.1892,-4.2044,-4.2374,-4.2044,-4.2044,0.0,0.0,-3.1929,-3.1893,0.0,0.0,0.0,0.0,0.0,0.0,0.0,0.0,0.0,0.0,0.0,0.0,0.0,0.0,0.0,0.0,0.0,0.0,0.0,0.0,0.0,0.0,0.0,-2.9993,-2.987,-2.9993,-3.0418,-3.0792,-3.1161,-3.1567,-3.1838,-3.2023,-3.2191,-3.2594,-3.2827,-3.2897,-3.315,-3.3309,-3.3309,-3.3309,-3.3309,-3.3293,-3.3591,-3.3694,-3.3745,-3.425,-3.4497,-3.4643,-3.4899,-3.5041,-3.5152,-3.4947,-3.4899,-3.4899,-3.4899,-3.4899,-3.4899,-3.4994,-3.5041,-3.5041,-3.5041,-3.5041,-3.5041,-3.5041,-3.5041,-3.5041,-3.5041,-3.5041,-3.4994,-3.4899,-3.4947,-3.5041,-3.5041,-3.5088,-3.5182,-3.5304,-3.6404,-3.7455,-3.7976,-3.9047,-3.9863,-3.9897,-4.028,-4.0676,-4.0931,-4.1192,-4.1328,-4.1363,-4.1391,-4.1373,-4.1255,-4.1209,-4.1272,-4.138,-4.1272,-4.1272,-4.138,-4.1272,-4.1363,-4.1587,-4.1587,-4.1762,-4.2145,-4.2145,-4.2328,-4.2649,-4.253,-4.257,-3.2657,-3.2489,0.0,-3.2284,-3.2557,0.0,-3.2997,0.0,0.0,0.0,0.0,0.0,0.0,0.0,0.0,0.0,0.0,0.0,0.0,-3.3578,0.0,0.0,0.0,0.0,0.0,0.0,-3.0822,-3.0718,-3.0658,-3.0777,0.0,0.0,-3.1739,-3.1951,-3.2191,-3.2302,-3.2358,-3.2718,-3.2897,-3.2951,-3.3203,-3.3309,-3.3309,-3.3309,-3.3361,-3.3398,-3.3591,-3.3761,-3.3797,-3.43,-3.4594,-3.4739,-3.5041,-3.5291,-3.5383,-3.5135,-3.4994,-3.4994,-3.4994,-3.4994,-3.4994,-3.5152,-3.5182,-3.5228,-3.5258,-3.5274,-3.5274,-3.5274,-3.5274,-3.5274,-3.5274,-3.5211,-3.5165,-3.5118,-3.5118,-3.5228,-3.5228,-3.5367,-3.5487,-3.5605,-3.6961,-3.8167,-3.838,-3.9743,-4.0758,-4.0728,-4.0884,-4.11,-4.13,-4.164,-4.1831,-4.1762,-4.1874,-4.1856,-4.1744,-4.1701,-4.1744,-4.1849,-4.1762,-4.1744,-4.1866,-4.1762,-4.1788,-4.2019,-4.2019,-4.2163,-4.249,-4.249,-4.2609,-4.286,-4.286,-4.286]}]]